[[{"header":{"parameterUnit":"m.s-1","parameterCategory":1,"la1":30.6,"la2":29.2853,"lo1":-89.7004,"lo2":-87.6739,"dy":0.0162,"dx":0.0183,"nx":112,"ny":82,"refTime":"2025-07-03T00:00:00:Z","depth":0,"parameterNumber":2,"parameterNumberName":"U-component_of_WINDS"},"data":[0.0,0.0,0.0,0.0,0.0,0.0,0.0,0.0,0.0,0.0,0.0,0.0,0.0,0.0,0.0,0.0,0.0,0.0,0.0,0.0,0.0,0.0,0.0,0.0,0.0,0.0,0.0,0.0,0.0,0.0,0.0,0.0,0.0,0.0,0.0,0.0,0.0,0.0,0.0,0.0,0.0,0.0,0.0,0.0,0.0,0.0,0.0,0.0,0.0,0.0,0.0,0.0,0.0,0.0,0.0,0.0,0.0,0.0,0.0,0.0,0.0,0.0,0.0,0.0,0.0,0.0,0.0,0.0,0.0,0.0,0.0,0.0,0.0,0.0,0.0,0.0,0.0,0.0,0.0,0.0,0.0,0.0,0.0,0.0,0.0,0.0,0.0,0.0,0.0,0.0,0.0,2.5086,2.8449,2.9915,2.8841,2.8401,2.6416,2.2266,0.0,0.0,0.0,0.0,0.0,0.0,0.0,0.0,0.0,0.0,0.0,0.0,0.0,0.0,0.0,0.0,0.0,0.0,0.0,0.0,0.0,0.0,0.0,0.0,0.0,0.0,0.0,0.0,0.0,0.0,0.0,0.0,0.0,0.0,0.0,0.0,0.0,0.0,0.0,0.0,0.0,0.0,0.0,0.0,0.0,0.0,0.0,0.0,0.0,0.0,0.0,0.0,0.0,0.0,0.0,0.0,0.0,0.0,0.0,0.0,0.0,0.0,0.0,0.0,0.0,0.0,0.0,0.0,0.0,0.0,0.0,0.0,0.0,0.0,0.0,0.0,0.0,0.0,0.0,0.0,0.0,0.0,0.0,0.0,0.0,0.0,0.0,0.0,0.0,0.0,0.0,0.0,0.0,0.0,0.0,0.0,0.0,0.0,0.0,0.0,0.0,0.0,0.0,0.0,1.9744,2.6309,2.8827,2.966,2.8641,2.7494,2.5727,2.3145,0.0,0.0,0.0,0.0,0.0,0.0,0.0,0.0,0.0,0.0,0.0,0.0,0.0,0.0,0.0,0.0,0.0,0.0,0.0,0.0,0.0,0.0,0.0,0.0,0.0,0.0,0.0,0.0,0.0,0.0,0.0,0.0,0.0,0.0,0.0,0.0,0.0,0.0,0.0,0.0,0.0,0.0,0.0,0.0,0.0,0.0,0.0,0.0,0.0,0.0,0.0,0.0,0.0,0.0,0.0,0.0,0.0,0.0,0.0,0.0,0.0,0.0,0.0,0.0,0.0,0.0,0.0,0.0,0.0,0.0,0.0,0.0,0.0,0.0,0.0,0.0,0.0,0.0,0.0,0.0,0.0,0.0,0.0,0.0,0.0,0.0,0.0,0.0,0.0,0.0,0.0,0.0,0.0,0.0,0.0,0.0,0.0,0.0,0.0,0.0,0.0,0.0,0.0,2.0316,2.2607,2.6643,2.8747,2.9423,2.8368,2.7174,2.5295,2.241,1.907,0.0,0.0,0.0,0.0,0.0,0.0,0.0,0.0,0.0,0.0,0.0,0.0,0.0,0.0,0.0,0.0,0.0,0.0,0.0,0.0,0.0,0.0,0.0,0.0,0.0,0.0,0.0,0.0,0.0,0.0,0.0,0.0,0.0,0.0,0.0,0.0,0.0,0.0,0.0,0.0,0.0,0.0,0.0,0.0,0.0,0.0,0.0,0.0,0.0,0.0,0.0,0.0,0.0,0.0,0.0,0.0,0.0,0.0,0.0,0.0,0.0,0.0,0.0,0.0,0.0,0.0,0.0,0.0,0.0,0.0,0.0,0.0,0.0,0.0,0.0,0.0,0.0,0.0,0.0,0.0,0.0,0.0,0.0,0.0,0.0,0.0,0.0,0.0,0.0,0.0,0.0,0.0,0.0,0.0,0.0,0.0,0.0,0.0,0.0,0.0,0.0,0.0,2.3064,2.5224,2.6487,2.8353,2.9027,2.7923,2.6611,2.4514,2.137,1.7782,0.0,0.0,0.0,0.0,0.0,0.0,0.0,0.0,0.0,0.0,0.0,0.0,0.0,0.0,0.0,0.0,0.0,0.0,0.0,0.0,0.0,0.0,0.0,0.0,0.0,0.0,0.0,0.0,0.0,0.0,0.0,0.0,0.0,0.0,0.0,0.0,0.0,0.0,0.0,0.0,0.0,0.0,0.0,0.0,0.0,0.0,0.0,0.0,0.0,0.0,0.0,0.0,0.0,0.0,0.0,0.0,0.0,0.0,0.0,0.0,0.0,0.0,0.0,0.0,0.0,0.0,0.0,0.0,0.0,0.0,0.0,0.0,0.0,0.0,0.0,0.0,0.0,0.0,0.0,0.0,0.0,0.0,0.0,0.0,0.0,0.0,0.0,0.0,0.0,0.0,0.0,0.0,0.0,0.0,0.0,0.0,0.0,0.0,0.0,0.0,0.0,0.0,2.2055,2.5524,2.5841,2.7665,2.8344,2.7084,2.5086,2.293,2.0689,1.642,0.0,0.0,0.0,0.0,0.0,0.0,0.0,0.0,0.0,0.0,0.0,0.0,0.0,0.0,0.0,0.0,0.0,0.0,0.0,0.0,0.0,0.0,0.0,0.0,0.0,0.0,0.0,0.0,0.0,0.0,0.0,0.0,0.0,0.0,0.0,0.0,0.0,0.0,0.0,0.0,0.0,0.0,0.0,0.0,0.0,0.0,0.0,0.0,0.0,0.0,0.0,0.0,0.0,0.0,0.0,0.0,0.0,0.0,0.0,0.0,0.0,0.0,0.0,0.0,0.0,0.0,0.0,0.0,0.0,0.0,0.0,0.0,0.0,0.0,0.0,0.0,0.0,0.0,0.0,0.0,0.0,0.0,0.0,0.0,0.0,0.0,0.0,0.0,0.0,0.0,0.0,0.0,0.0,0.0,0.0,0.0,0.0,0.0,0.0,0.0,0.0,0.0,2.0204,2.3016,0.0,2.6117,2.6764,2.6085,2.4445,2.2277,1.9488,0.0,0.0,0.0,0.0,0.0,0.0,0.0,0.0,0.0,0.0,0.0,0.0,0.0,0.0,0.0,0.0,0.0,0.0,0.0,0.0,0.0,0.0,0.0,0.0,0.0,0.0,0.0,0.0,0.0,0.0,0.0,0.0,0.0,0.0,0.0,0.0,0.0,0.0,0.0,0.0,0.0,0.0,0.0,0.0,0.0,0.0,0.0,0.0,0.0,0.0,0.0,0.0,0.0,0.0,0.0,0.0,0.0,0.0,0.0,0.0,0.0,0.0,0.0,0.0,0.0,0.0,0.0,0.0,0.0,0.0,0.0,0.0,0.0,0.0,0.0,0.0,0.0,0.0,0.0,0.0,0.0,0.0,0.0,0.0,0.0,0.0,0.0,0.0,0.0,0.0,0.0,0.0,0.0,0.0,0.0,0.0,0.0,0.0,0.0,0.0,0.0,0.0,1.5991,1.8299,2.0597,0.0,2.4261,2.4972,2.5063,2.3481,2.1285,1.8453,0.0,0.0,0.0,0.0,0.0,0.0,0.0,0.0,0.0,0.0,0.0,0.0,0.0,0.0,0.0,0.0,0.0,0.0,0.0,0.0,0.0,0.0,0.0,0.0,0.0,0.0,0.0,0.0,0.0,0.0,0.0,0.0,0.0,0.0,0.0,0.0,0.0,0.0,0.0,0.0,0.0,0.0,0.0,0.0,0.0,0.0,0.0,0.0,0.0,0.0,0.0,0.0,0.0,0.0,0.0,0.0,0.0,0.0,0.0,0.0,0.0,0.0,0.0,0.0,0.0,0.0,0.0,0.0,0.0,0.0,0.0,0.0,0.0,0.0,0.0,0.0,0.0,0.0,0.0,0.0,0.0,0.0,0.0,0.0,0.0,0.0,0.0,0.0,0.0,0.0,0.0,0.0,0.0,0.0,0.0,0.0,0.0,0.0,0.0,0.0,0.0,0.0,1.4413,1.6413,1.8598,2.103,2.2094,2.306,2.3998,2.199,1.979,0.0,0.0,0.0,0.0,0.0,0.0,0.0,0.0,0.0,0.0,0.0,0.0,0.0,0.0,0.0,0.0,0.0,0.0,0.0,0.0,0.0,0.0,0.0,0.0,0.0,0.0,0.0,0.0,0.0,0.0,0.0,0.0,0.0,0.0,0.0,0.0,0.0,0.0,0.0,0.0,0.0,0.0,0.0,0.0,0.0,0.0,0.0,0.0,0.0,0.0,0.0,0.0,0.0,0.0,0.0,0.0,0.0,0.0,0.0,0.0,0.0,0.0,0.0,0.0,0.0,0.0,0.0,0.0,0.0,0.0,0.0,0.0,0.0,0.0,0.0,0.0,0.0,0.0,0.0,0.0,0.0,0.0,0.0,0.0,0.0,0.0,0.0,0.0,0.0,0.0,0.0,0.0,0.0,0.0,0.0,0.0,0.0,0.0,0.0,0.0,0.0,0.0,0.0,1.2799,1.5061,1.7201,1.8792,2.0187,2.1458,2.2604,2.0991,1.9014,1.6825,0.0,0.0,0.0,0.0,0.0,0.0,0.0,0.0,0.0,0.0,0.0,0.0,0.0,0.0,0.0,0.0,0.0,0.0,0.0,0.0,0.0,0.0,0.0,0.0,0.0,0.0,0.0,0.0,0.0,0.0,0.0,0.0,0.0,0.0,0.0,0.0,0.0,0.0,0.0,0.0,0.0,0.0,0.0,0.0,0.0,0.0,0.0,0.0,0.0,0.0,0.0,0.0,0.0,0.0,0.0,0.0,0.0,0.0,0.0,0.0,0.0,0.0,0.0,0.0,0.0,0.0,0.0,0.0,0.0,0.0,0.0,0.0,0.0,0.0,0.0,0.0,0.0,0.0,0.0,0.0,0.0,0.0,0.0,0.0,0.0,0.0,0.0,0.0,0.0,0.0,0.0,0.0,0.0,0.0,0.0,0.0,0.0,0.0,0.0,0.0,0.0,0.0,1.1547,1.3055,1.4758,1.6657,1.7819,1.9081,2.0643,1.9691,1.8206,1.632,0.0,0.0,0.0,0.0,0.0,0.0,0.0,0.0,0.0,0.0,0.0,0.0,0.0,0.0,0.0,0.0,0.0,0.0,0.0,0.0,0.0,0.0,0.0,0.0,0.0,0.0,0.0,0.0,0.0,0.0,0.0,0.0,0.0,0.0,0.0,0.0,0.0,0.0,0.0,0.0,0.0,0.0,0.0,0.0,0.0,0.0,0.0,0.0,0.0,0.0,0.0,0.0,0.0,0.0,0.0,0.0,0.0,0.0,0.0,0.0,0.0,0.0,0.0,0.0,0.0,0.0,0.0,0.0,0.0,0.0,0.0,0.0,0.0,0.0,0.0,0.0,0.0,0.0,0.0,0.0,0.0,0.0,0.0,0.0,0.0,0.0,0.0,0.0,0.0,0.0,0.0,0.0,0.0,0.0,0.0,0.0,0.0,0.0,0.0,0.0,0.0,0.0,1.0606,1.0868,1.1964,1.4645,1.526,1.6325,1.8357,1.8147,1.7336,1.5955,0.0,0.0,0.0,0.0,0.0,0.0,0.0,0.0,0.0,0.0,0.0,0.0,0.0,0.0,0.0,0.0,0.0,0.0,0.0,0.0,0.0,0.0,0.0,0.0,0.0,0.0,0.0,0.0,0.0,0.0,0.0,0.0,0.0,0.0,0.0,0.0,0.0,0.0,0.0,0.0,0.0,0.0,0.0,0.0,0.0,0.0,0.0,0.0,0.0,0.0,0.0,0.0,0.0,0.0,0.0,0.0,0.0,0.0,0.0,0.0,1.8382,0.0,0.0,0.0,0.0,0.0,0.0,0.0,0.0,0.0,0.0,0.0,0.0,0.0,0.0,0.0,0.0,0.0,0.0,0.0,0.0,0.0,0.0,0.0,0.0,0.0,0.0,0.0,0.0,0.0,0.0,0.0,0.0,0.0,0.0,0.0,0.0,0.0,0.0,0.0,0.0,0.0,0.9982,1.0573,1.1422,1.2872,1.4092,1.5207,1.6264,1.6593,1.6055,1.4416,1.3372,0.0,0.0,0.0,0.0,0.0,0.0,0.0,0.0,0.0,0.0,0.0,0.0,0.0,0.0,0.0,0.0,0.0,0.0,0.0,0.0,0.0,0.0,0.0,0.0,0.0,0.0,0.0,0.0,0.0,0.0,0.0,0.0,0.0,0.0,0.0,0.0,0.0,0.0,0.0,0.0,0.0,0.0,0.0,0.0,0.0,0.0,0.0,0.0,0.0,0.0,0.0,0.0,0.0,0.0,0.0,0.0,0.0,0.0,0.0,0.0,1.9667,0.0,0.0,0.0,0.0,0.0,0.0,0.0,0.0,0.0,0.0,0.0,0.0,0.0,0.0,0.0,0.0,0.0,0.0,0.0,0.0,0.0,0.0,0.0,0.0,0.0,0.0,0.0,0.0,0.0,0.0,0.0,0.0,0.0,0.0,0.0,0.0,0.0,0.0,0.0,0.0,0.9792,0.9783,1.0075,1.1115,1.2166,1.3032,1.3638,1.4655,1.4846,1.3826,1.3082,0.0,0.0,0.0,0.0,0.0,0.0,0.0,0.0,0.0,0.0,0.0,0.0,0.0,0.0,0.0,0.0,0.0,0.0,0.0,0.0,0.0,0.0,0.0,0.0,0.0,0.0,0.0,0.0,0.0,0.0,0.0,0.0,0.0,0.0,0.0,0.0,0.0,0.0,0.0,0.0,0.0,0.0,0.0,0.0,0.0,0.0,0.0,0.0,0.0,0.0,0.0,0.0,0.0,2.0269,2.0472,2.0292,1.9837,2.0015,2.0742,2.02,2.1118,2.2884,0.0,0.0,0.0,0.0,0.0,0.0,0.0,0.0,0.0,0.0,0.0,0.0,0.0,0.0,0.0,0.0,0.0,0.0,0.0,0.0,0.0,0.0,0.0,0.0,0.0,1.6382,1.5164,0.0,0.0,0.0,0.0,0.0,0.0,0.0,0.0,0.0,0.0,0.0,0.0,0.9592,0.8964,0.8753,0.9541,1.0073,1.0617,1.1151,1.2632,1.3541,1.3471,1.2824,1.2373,0.0,0.0,0.0,0.0,0.0,0.0,0.0,0.0,0.0,0.0,0.0,0.0,0.0,0.0,0.0,0.0,0.0,0.0,0.0,0.0,0.0,0.0,0.0,0.0,0.0,0.0,0.0,0.0,0.0,0.0,0.0,0.0,1.2297,1.3497,0.0,0.0,0.0,0.0,0.0,0.0,0.0,0.0,0.0,0.0,0.0,0.0,0.0,0.0,2.0312,2.138,2.1904,2.1939,2.2598,2.2217,2.1033,2.1304,2.1093,2.057,2.0839,0.0,2.2673,2.1498,0.0,0.0,0.0,0.0,0.0,0.0,0.0,0.0,0.0,0.0,0.0,0.0,0.0,0.0,0.0,0.0,0.0,0.0,0.0,0.0,0.0,0.0,1.6796,1.5233,1.5129,1.476,0.0,1.257,1.2465,1.1335,1.0791,0.0,0.0,0.0,0.0,0.0,0.0,0.0,0.9024,0.8829,0.8595,0.827,0.8578,0.9144,0.9973,1.084,1.1636,1.2459,1.2301,1.2177,1.2187,1.1302,0.0,0.0,0.0,0.0,0.0,0.0,0.0,0.0,0.0,0.0,0.0,0.0,0.0,0.0,0.0,0.0,0.0,0.0,0.0,0.0,0.0,0.0,0.0,0.0,0.0,0.0,0.0,0.0,0.0,1.2099,1.3554,1.4175,1.4854,1.4968,0.0,0.0,0.0,0.0,0.0,0.0,0.0,0.0,0.0,2.0475,2.0714,2.0972,2.1301,2.263,2.3328,2.3313,2.3872,2.3294,2.167,2.18,2.1397,2.0575,2.0762,2.1412,2.2184,2.1199,1.9433,1.7197,0.0,0.0,0.0,0.0,1.05,0.9964,0.978,0.9459,0.0,0.0,0.0,0.0,0.0,0.0,0.0,0.0,0.0,0.0,0.0,0.0,0.0,1.285,1.2459,1.2069,1.1822,1.1164,1.0473,0.0,1.0084,1.0148,0.9327,0.0,0.0,0.0,0.0,0.0,0.8271,0.7767,0.74,0.7517,0.7486,0.7419,0.736,0.9166,1.0406,1.0665,1.1869,1.2443,1.2249,1.211,1.1776,0.0,0.0,0.0,0.0,0.0,0.0,0.0,0.0,0.0,0.0,0.0,0.0,0.0,0.0,0.0,0.0,0.0,0.0,0.0,0.0,0.0,0.0,0.0,0.0,0.0,0.0,0.0,0.0,1.3489,1.4805,1.5442,1.6526,1.685,0.0,0.0,0.0,0.0,0.0,0.0,2.0292,2.1201,2.1794,2.1999,2.2457,2.2617,2.2347,2.3603,2.4226,2.4223,2.4722,2.3941,2.1988,2.2269,2.1635,2.0451,2.0524,2.0885,2.1339,2.0818,1.9408,1.7402,1.5853,1.4251,1.2524,1.0853,0.9858,0.929,0.8728,0.8294,0.7896,0.7683,0.0,0.8365,0.8,0.0,0.0,0.0,0.0,0.8641,0.991,1.0074,1.0121,1.1083,1.0423,0.9736,1.0442,0.9661,0.8725,0.0,0.8997,0.9308,0.8619,0.0,0.0,0.0,0.0,0.717,0.7462,0.6888,0.6463,0.6626,0.621,0.5748,0.5439,0.7757,0.93,0.9506,1.1262,1.231,1.2316,1.2591,1.2569,1.2145,0.0,0.0,0.0,0.0,0.0,0.0,0.0,0.0,0.0,0.0,0.0,0.0,0.0,0.0,0.0,0.0,0.0,0.0,0.0,0.0,0.0,0.0,0.0,0.0,0.0,0.0,0.0,0.0,0.0,1.8578,1.844,0.0,0.0,0.0,0.0,1.8833,2.0247,2.1413,2.2288,2.2937,2.3485,2.3932,2.394,2.413,2.4644,2.4705,2.473,2.477,2.5285,2.4316,2.2045,2.2983,2.2115,1.9987,2.0399,2.034,2.0029,2.0715,1.9673,1.7554,1.6245,1.3758,1.0761,1.0171,0.8793,0.7269,0.7338,0.7459,0.7643,0.7909,0.8408,0.883,0.8856,0.8283,0.0,0.0,0.8107,0.8382,0.9985,0.9664,0.9233,1.0541,1.0077,0.91,0.8219,0.801,0.7965,0.0,0.7372,0.7487,0.8215,0.0,0.8109,0.8109,0.8261,0.7894,0.6474,0.675,0.663,0.5579,0.442,0.4201,0.5318,0.6786,0.8231,0.9665,1.0429,1.1257,1.2263,1.2332,1.231,1.2217,1.1753,0.0,0.0,0.0,0.0,0.0,0.0,0.0,0.0,0.0,0.0,0.0,0.0,0.0,0.0,0.0,0.0,0.0,0.0,0.0,0.0,0.0,0.0,0.0,0.0,0.0,0.0,0.0,0.0,1.8481,1.9551,0.0,0.0,1.9846,2.0194,2.0531,2.2283,2.3667,2.4416,2.4919,2.5476,2.605,2.5394,2.5121,2.5322,2.5686,2.5875,2.5887,2.6063,2.503,2.2999,2.3358,2.2318,2.0342,1.9778,1.9515,1.9269,1.884,1.8258,1.7511,1.5707,1.3829,1.1954,1.0467,0.9001,0.7717,0.7083,0.693,0.7049,0.7138,0.7323,0.7489,0.749,0.7247,0.7046,0.7214,0.7218,0.748,0.8737,0.8866,0.8894,1.009,0.9466,0.824,0.7118,0.6872,0.6901,0.6693,0.6497,0.6583,0.7154,0.7321,0.727,0.721,0.6881,0.6443,0.6021,0.611,0.5554,0.3861,0.3641,0.4094,0.5309,0.6347,0.7389,0.8242,0.9535,1.0494,1.0979,1.1534,1.1808,1.1925,1.1565,1.124,0.0,0.0,0.0,0.0,0.0,0.0,0.0,0.0,0.0,0.0,0.0,0.0,0.0,0.0,0.0,0.0,0.0,0.0,0.0,0.0,0.0,0.0,0.0,0.0,0.0,0.0,1.707,1.8433,2.0016,2.0797,2.0393,2.1014,2.1701,2.2345,2.3919,2.5213,2.6051,2.6807,2.7214,2.7074,2.6839,2.6539,2.6163,2.6858,2.6898,2.6272,2.6272,2.5147,2.301,2.3174,2.2098,2.001,1.9421,1.8914,1.831,1.6814,1.6292,1.6358,1.5367,1.3804,1.1946,1.058,0.9154,0.7758,0.7071,0.6868,0.6848,0.681,0.6853,0.6843,0.6868,0.6763,0.6763,0.6763,0.6759,0.7073,0.8548,0.869,0.8773,1.0369,0.9776,0.8575,0.7683,0.6827,0.6373,0.6725,0.6704,0.6686,0.6596,0.6802,0.6892,0.6487,0.5944,0.5634,0.5728,0.5682,0.5075,0.3765,0.29,0.3219,0.5206,0.59,0.6662,0.7628,0.898,0.9947,1.0446,1.0958,1.1414,1.1774,1.1773,1.2006,1.2437,0.0,0.0,0.0,0.0,0.0,0.0,0.0,0.0,0.0,0.0,0.0,0.0,0.0,0.0,0.0,0.0,0.0,0.0,0.0,0.0,0.0,0.0,0.0,1.5081,1.6468,1.7765,1.8728,1.9894,2.0423,1.9938,2.0903,2.2337,2.4168,2.5048,2.6021,2.7106,2.8533,2.8559,2.7019,2.8271,2.8411,2.7339,2.8058,2.7532,2.5838,2.5765,2.4454,2.209,2.2464,2.1322,1.9011,1.9308,1.8585,1.7017,1.4809,1.3884,1.3975,1.5133,1.349,1.0559,1.0363,0.8961,0.7139,0.7139,0.7139,0.7139,0.7139,0.7139,0.7139,0.7139,0.7048,0.7044,0.7044,0.6953,0.733,0.9438,0.9289,0.9032,1.1226,1.1031,1.015,0.9848,0.8015,0.6609,0.7581,0.7877,0.7607,0.6492,0.6856,0.6948,0.5957,0.5761,0.0,0.5627,0.5498,0.5434,0.5428,0.2258,0.1511,0.5002,0.5372,0.6161,0.7842,0.8737,0.9643,1.0602,1.0637,1.0989,1.1787,1.2527,1.3293,1.4094,0.0,0.0,0.0,0.0,0.0,0.0,0.0,0.0,0.0,0.0,0.0,0.0,0.0,0.0,0.0,0.0,0.0,0.0,0.0,0.0,0.0,0.0,1.5604,1.5885,1.6783,1.7906,1.9381,2.0539,2.1344,2.1581,2.2648,2.3548,2.4035,2.5568,2.6644,2.6979,2.7746,2.8248,2.8438,2.7999,2.7902,2.817,2.7438,2.6783,2.6273,2.5482,2.4316,2.2956,2.2151,2.1096,1.9546,1.704,1.5691,1.4979,1.2655,1.1609,1.1541,1.1918,1.089,0.9331,0.9343,0.8404,0.7139,0.7139,0.7139,0.7139,0.7139,0.7665,0.8364,0.8364,0.8969,0.9566,0.9566,0.9566,0.9889,1.125,1.1398,1.1567,1.3079,1.2502,1.1588,1.1438,0.9548,0.7596,0.686,0.7442,0.7631,0.6524,0.6471,0.6446,0.6222,0.6159,0.0,0.3986,0.5089,0.6083,0.6051,0.3747,0.266,0.3678,0.4871,0.5916,0.6802,0.698,0.7716,0.9234,0.9348,0.9926,1.1267,1.2893,1.3754,0.0,0.0,0.0,0.0,0.0,0.0,0.0,0.0,0.0,0.0,0.0,0.0,0.0,0.0,0.0,0.0,0.0,0.0,0.0,0.0,0.0,0.0,1.5706,1.6814,1.7324,1.7789,1.8505,1.966,2.0803,2.1707,2.2259,2.3339,2.4092,2.433,2.5934,2.6984,2.7221,2.7485,2.796,2.8779,2.7649,2.7344,2.7978,2.7097,2.6287,2.5554,2.4298,2.3134,2.185,2.082,1.9436,0.0,1.5686,1.436,1.3242,1.1189,1.0479,0.0,0.0,0.0,0.0,0.0,0.7665,0.7139,0.7139,0.7139,0.7139,0.7139,0.7577,0.8292,0.889,0.9472,0.9941,1.0027,0.9989,1.0183,1.1295,1.1552,1.1992,1.3737,1.3523,1.2856,1.2744,1.1254,0.9514,0.807,0.7501,0.0,0.6516,0.6854,0.6976,0.6355,0.6295,0.5827,0.4631,0.4008,0.3679,0.3627,0.4157,0.4417,0.4451,0.5252,0.0,0.0,0.0,0.7326,0.9043,0.9631,0.0,0.0,0.0,0.0,0.0,0.0,0.0,0.0,1.7917,1.8654,0.0,0.0,0.0,0.0,0.0,0.0,0.0,0.0,0.0,0.0,0.0,0.0,0.0,0.0,0.0,0.0,1.6985,1.7862,1.8956,1.9121,1.932,1.9768,2.0807,2.1636,2.2129,2.3133,2.3976,2.4521,2.5806,2.67,2.7219,0.0,0.0,0.0,0.0,2.6456,2.6827,2.6401,2.5403,2.3826,2.2591,2.1306,1.9915,1.8933,1.7109,1.4694,1.4773,1.368,1.1775,0.9898,0.947,1.0017,1.0138,0.9579,0.8544,0.751,0.7166,0.7166,0.7166,0.0,0.0,0.7173,0.7265,0.7567,0.8874,0.9246,0.913,0.9383,0.9296,0.9323,1.0351,1.0697,1.13,1.3385,1.3997,1.4015,1.3748,1.2851,1.1675,1.0264,0.8095,0.6544,0.6575,0.7399,0.7675,0.6514,0.5908,0.5608,0.5608,0.2357,0.0157,0.0628,0.0,0.0,0.6273,0.6146,0.6275,0.6905,0.7065,0.7911,0.9537,1.0863,1.1798,1.2287,1.3262,1.4709,1.6515,1.6899,1.8046,1.981,1.9227,2.0006,0.0,0.0,0.0,0.0,0.0,0.0,0.0,0.0,0.0,0.0,0.0,0.0,0.0,0.0,0.0,1.6872,1.8311,1.9384,1.961,1.9812,1.9993,2.0088,2.072,2.1162,2.1392,2.2021,2.2594,2.3109,2.372,2.4186,2.429,2.4267,0.0,2.4572,2.4137,2.3878,2.3966,2.28,2.2044,2.1655,0.0,0.0,1.9552,1.7291,1.5978,1.5371,1.2651,1.1144,1.0387,0.6669,0.5548,0.6293,0.7344,0.768,0.7418,0.7368,0.7326,0.7326,0.7326,0.7407,0.7489,0.7366,0.8037,0.897,0.9192,0.9799,0.0,1.0488,1.0348,1.0351,1.0524,1.1295,1.2072,1.2504,1.3379,1.4075,1.4015,1.3128,1.1838,1.0585,0.9174,0.7859,0.6754,0.6614,0.6602,0.6369,0.3374,0.1256,0.1256,0.0471,0.1335,0.4729,0.4238,0.4455,0.6163,0.6115,0.6094,0.6208,0.698,0.8299,1.0341,1.0947,1.1717,1.268,1.3859,1.4928,1.5934,1.7018,1.8328,1.9899,2.0888,2.1935,0.0,0.0,0.0,0.0,0.0,0.0,0.0,0.0,0.0,0.0,0.0,1.5505,1.6805,0.0,1.7948,1.85,1.9573,2.0144,1.9674,2.0193,2.0618,2.0618,2.0484,2.0608,2.114,2.1688,2.2179,2.267,2.3173,2.3272,2.2689,2.2179,2.2129,2.2564,2.1393,2.1229,2.2129,2.0934,2.0274,2.0286,1.9165,1.8288,1.7494,1.5637,1.4238,1.3017,1.1325,1.0023,0.8864,0.5271,0.4107,0.4748,0.6719,0.7492,0.738,0.7458,0.7485,0.7485,0.7485,0.7536,0.7587,0.7509,0.7902,0.8629,0.9361,0.9815,1.0045,1.0237,1.0044,0.9809,0.9809,1.0256,1.0783,1.1295,1.1906,1.2345,1.2345,1.1906,1.1091,0.9871,0.9177,0.8328,0.708,0.6644,0.6481,0.6331,0.4713,0.2702,0.0314,0.104,0.298,0.5943,0.5401,0.5235,0.6203,0.6261,0.6264,0.6295,0.7798,0.9053,0.9685,1.1344,1.2469,1.3028,1.3748,1.4604,1.5724,1.7162,1.8583,1.9982,2.1793,2.3045,0.0,0.0,0.0,0.0,0.0,0.0,0.0,0.0,1.4704,1.658,1.6973,1.739,1.868,1.91,1.9374,1.9745,2.0302,2.0395,1.965,2.0064,2.0373,2.0373,1.9827,1.9641,2.0164,2.0647,2.1115,2.1606,2.2062,2.1943,2.104,2.0246,2.0071,2.054,1.8931,1.8712,2.0069,1.9174,1.8792,1.8763,1.781,1.6605,1.5302,1.4034,1.2446,1.0533,1.0259,0.8674,0.6282,0.3844,0.3378,0.4255,0.6963,0.791,0.7682,0.7641,0.7628,0.7628,0.7638,0.7658,0.7682,0.7651,0.7662,0.7896,0.906,0.9263,0.9055,0.9291,0.9076,0.88,0.88,0.8848,0.9148,1.0009,1.0438,1.0611,1.0611,1.0611,1.0265,0.9148,0.8854,0.85,0.7318,0.6943,0.6795,0.6485,0.681,0.5618,0.183,0.2704,0.4305,0.6185,0.6572,0.6579,0.6373,0.6454,0.6536,0.6586,0.8273,0.9505,0.9868,1.1647,1.2889,1.3421,1.3633,1.444,1.5857,1.7326,1.8769,2.0023,2.2199,2.3656,1.3197,1.3346,1.3579,1.3763,1.3831,1.4558,0.0,0.0,1.6796,1.8973,1.8676,1.8208,1.8856,1.8999,1.9065,1.9093,1.9785,2.0244,2.0132,1.9037,1.8251,1.8251,1.8185,1.7772,1.6819,1.6781,1.7107,1.7843,1.7929,1.7954,1.7794,1.7721,1.7482,1.7147,1.6923,1.6638,1.6358,1.6278,1.619,1.617,1.6103,1.5373,1.4028,1.2775,1.1536,1.0529,0.8947,0.5445,0.0909,0.0505,0.1815,0.4225,0.6936,0.8021,0.797,0.779,0.7822,0.7733,0.7773,0.7875,0.7967,0.7831,0.7879,0.7994,0.8107,0.8101,0.798,0.7997,0.7785,0.7549,0.7549,0.8236,0.889,0.9061,0.9836,1.0611,1.0611,1.0611,1.0265,0.9148,0.9148,0.8877,0.7383,0.709,0.7034,0.6975,0.6885,0.6636,0.6367,0.4689,0.4435,0.6509,0.6771,0.6767,0.6654,0.6582,0.6592,0.6685,0.694,0.9036,1.3349,1.1678,1.1893,1.4303,1.4356,1.512,1.6535,1.777,1.8946,2.0059,2.1738,2.3665,1.4924,1.4982,0.0,0.0,1.5748,1.6308,1.7422,1.7593,1.7842,1.9065,1.9298,1.9407,1.9938,2.0315,2.0315,0.0,2.0205,2.0109,1.8255,1.7742,1.7016,1.5412,1.5214,1.5455,1.6129,1.622,1.6533,1.7203,1.7342,1.7009,1.6437,1.6542,1.6282,1.5725,1.5826,1.5858,1.5825,1.5832,1.5832,1.5832,1.5832,1.4752,1.2711,1.2134,1.0356,0.7483,0.6245,0.4448,0.2326,0.2326,0.3949,0.6398,0.7575,0.7952,0.8028,0.7946,0.7916,0.7919,0.7936,0.7987,0.8028,0.7967,0.7987,0.8038,0.8038,0.7994,0.7943,0.7943,0.779,0.7628,0.7628,0.7887,0.8109,0.8012,0.843,0.8662,0.8552,0.8528,0.8444,0.7929,0.8021,0.7848,0.7228,0.7092,0.7121,0.7063,0.6991,0.7,0.7087,0.6263,0.5972,0.6763,0.6763,0.6742,0.6739,0.6746,0.6783,0.6953,0.8049,0.9803,1.2441,1.2865,1.3623,1.4776,1.4776,1.5178,1.5917,1.7086,1.8393,1.9737,2.1128,2.3016,1.5392,0.0,0.0,1.609,1.669,1.7296,1.7178,1.7653,1.8248,1.8605,1.9223,1.9803,2.0053,2.0563,2.0589,1.9383,1.9946,1.961,1.677,1.6567,1.5887,1.3653,1.3108,1.3388,1.4691,1.5087,1.5545,1.6249,1.6304,1.6016,1.5296,1.551,1.5496,1.504,1.5244,1.5538,1.5825,1.5832,1.5635,1.5261,1.5261,1.3902,1.138,1.1453,0.9853,0.6799,0.6326,0.5744,0.5151,0.5151,0.6274,0.8019,0.7962,0.8038,0.8038,0.8038,0.8038,0.8038,0.8038,0.8038,0.8038,0.8038,0.8038,0.8038,0.8038,0.8038,0.8038,0.8038,0.7929,0.7811,0.7811,0.7706,0.757,0.7461,0.74,0.7343,0.7227,0.717,0.7139,0.7139,0.7139,0.7139,0.7139,0.7139,0.7139,0.7139,0.7142,0.7128,0.7112,0.7104,0.7102,0.6997,0.6888,0.6868,0.689,0.6897,0.696,0.7104,0.8418,1.0225,1.258,1.3789,1.4624,1.5084,1.5084,1.5224,1.5518,1.6769,1.8055,1.9488,2.0766,2.2416,0.0,0.0,1.6995,1.557,1.6176,1.7067,1.6863,1.7393,1.7906,1.7918,1.8522,1.8869,1.8377,1.8729,1.8821,1.8068,1.8531,1.8337,1.6635,1.5477,1.4535,1.3757,1.2677,1.1807,0.0,1.2286,1.3162,1.3689,1.3736,1.3864,1.4153,1.4362,1.4656,1.495,1.5244,1.5538,1.5825,1.5832,1.5166,1.3931,1.3931,1.2603,1.0095,1.0498,1.0604,1.0511,1.1336,1.019,0.7839,0.7839,0.7942,0.8041,0.8041,0.8038,0.8038,0.8038,0.8038,0.8038,0.8038,0.8038,0.8038,0.8038,0.8038,0.8038,0.8038,0.8038,0.8038,0.8038,0.7929,0.7811,0.7811,0.7706,0.7597,0.7594,0.7478,0.737,0.7366,0.7248,0.7139,0.7139,0.7139,0.7139,0.7139,0.7139,0.7139,0.7139,0.7136,0.7132,0.7129,0.7136,0.7139,0.7136,0.7129,0.7129,0.7132,0.7132,0.7108,0.7073,0.7125,0.9777,1.5409,1.3963,1.3689,1.5378,1.5384,1.5524,1.5812,1.7023,1.8311,1.9497,2.0747,2.1943,0.0,0.0,1.6454,1.6322,1.6575,1.699,1.7274,1.73,1.7324,1.7324,1.7287,1.7208,1.7032,1.7149,1.7109,1.6627,1.7251,1.7042,1.5047,1.4128,1.3152,1.167,1.0515,0.0,0.0,0.0,0.0,1.2593,1.3225,1.3854,1.4349,1.4656,1.495,1.5244,1.5531,1.5341,1.4561,1.4555,1.3884,1.2543,1.1765,1.0867,0.9964,1.0164,1.0219,1.0237,1.1366,1.1356,1.0527,0.971,0.9279,0.9275,0.835,0.8038,0.8038,0.8038,0.8038,0.8038,0.8038,0.8038,0.8038,0.8038,0.8038,0.8038,0.8038,0.8038,0.8038,0.8038,0.8004,0.7963,0.7963,0.7926,0.7865,0.7763,0.7699,0.7607,0.7414,0.7329,0.7261,0.716,0.7139,0.7139,0.7139,0.7139,0.7139,0.7139,0.7139,0.7139,0.7139,0.7139,0.7139,0.7139,0.7139,0.718,0.7285,0.7292,0.7356,0.7419,0.9749,1.1745,1.3117,1.4241,1.5097,1.5678,1.5685,1.5732,1.5832,1.6204,1.7124,1.8319,1.9588,2.0755,1.3959,1.5018,1.5837,1.5875,1.6286,1.671,1.6791,1.6536,1.6256,1.6326,1.599,1.5731,1.5793,1.5954,1.5864,1.5266,1.6022,1.595,1.3769,1.3059,1.2205,1.0801,0.9633,0.0,0.0,0.0,0.0,1.1968,1.2996,1.3901,1.4489,1.4346,1.4443,1.4718,1.452,1.398,1.3199,1.3522,1.3066,1.1918,1.0126,0.9316,0.9292,0.9797,1.0245,1.0748,1.1569,1.1616,1.113,1.0329,0.9731,0.9176,0.8347,0.8038,0.8038,0.8038,0.8038,0.8038,0.8038,0.8038,0.8038,0.8038,0.8038,0.8038,0.8038,0.8038,0.8038,0.8038,0.8038,0.8038,0.8038,0.8038,0.8014,0.7916,0.7851,0.776,0.757,0.7489,0.7315,0.7158,0.7128,0.7115,0.7061,0.7139,0.7139,0.7139,0.7187,0.7204,0.7146,0.7139,0.7163,0.7217,0.7221,0.7285,0.7441,0.7451,0.7795,0.8513,1.0801,1.2536,1.3305,1.488,1.5832,1.5832,1.5832,1.5832,1.5832,1.5832,1.648,1.7692,1.8503,1.9761,1.2323,1.3913,1.523,1.439,1.5255,1.613,1.5439,1.5,1.475,1.4882,1.456,1.4339,0.0,0.0,1.4909,1.3863,1.4783,1.4969,1.2914,1.2144,1.1544,0.0,0.0,0.0,0.0,0.0,0.0,1.1353,0.0,1.3651,1.4328,1.344,1.3146,1.3409,1.2411,1.1853,1.1858,1.2407,1.2268,1.1434,0.8984,0.7842,0.7994,0.9296,1.0583,1.1745,1.1848,1.1191,1.0105,1.0009,0.9209,0.8137,0.8038,0.8038,0.8038,0.8038,0.8038,0.8038,0.8038,0.8038,0.8038,0.8038,0.8038,0.8038,0.8038,0.8038,0.8038,0.8038,0.8038,0.8038,0.8038,0.8038,0.8038,0.8038,0.7929,0.7821,0.7814,0.7607,0.7373,0.7132,0.7103,0.7148,0.7101,0.7163,0.7163,0.7163,0.7288,0.7326,0.7173,0.716,0.7221,0.7366,0.7383,0.7444,0.7597,0.7611,0.8332,1.0123,1.0355,1.1978,1.5466,1.5688,1.5832,1.5832,1.5832,1.5832,1.5832,1.5832,1.6386,1.7598,1.7692,1.8964,1.2175,1.2999,1.3637,1.3399,1.3597,1.3767,1.3377,1.2985,1.2552,1.2153,1.1729,1.1372,0.0,0.0,0.0,1.2061,1.2984,0.0,1.1701,1.1329,0.0,0.0,0.0,0.7267,0.704,0.8413,0.0,0.0,0.9903,1.1412,1.2073,1.2415,1.2769,1.3193,1.237,1.1933,1.19,0.8219,0.6213,0.6027,0.5325,0.6034,0.7965,0.8315,0.8685,0.9076,1.1053,1.1731,1.1308,1.0414,0.9841,0.9383,0.8425,0.8038,0.8038,0.8038,0.8038,0.8038,0.8038,0.8038,0.8038,0.8038,0.8038,0.8038,0.8038,0.8038,0.8038,0.8038,0.8038,0.8038,0.8038,0.8038,0.8038,0.8038,0.8011,0.795,0.7834,0.7684,0.7617,0.757,0.7543,0.7529,0.7489,0.7482,0.7482,0.7482,0.7516,0.7485,0.7333,0.7414,0.7499,0.7536,0.7543,0.76,0.7743,0.7756,0.8397,1.0019,1.0979,1.194,1.2833,1.4727,1.5832,1.5832,1.5832,1.5832,1.5832,1.5832,1.6015,1.6298,1.7225,1.8186,1.1428,1.2004,1.2451,1.2451,1.2643,1.2738,1.2439,1.1701,1.1007,1.0695,1.0186,0.0,0.0,0.0,0.0,0.0,0.0,0.0,1.0013,0.9752,0.9279,0.0,0.7316,0.0,0.4903,0.5918,0.6213,0.0,0.8271,1.0574,1.0945,1.1513,1.1556,1.0868,0.9265,0.9042,1.0133,0.7269,0.4533,0.2213,0.2211,0.3015,0.4529,0.5712,0.691,0.8035,0.0,1.022,1.0122,0.9418,0.9122,0.9023,0.8247,0.8048,0.8038,0.8038,0.8038,0.8038,0.8038,0.8038,0.8038,0.8038,0.8038,0.8038,0.8038,0.8038,0.8038,0.8038,0.8038,0.8038,0.8038,0.8038,0.8038,0.8038,0.8038,0.8018,0.7929,0.7811,0.7865,0.7822,0.7739,0.76,0.76,0.76,0.76,0.76,0.7651,0.7662,0.7577,0.7587,0.7624,0.7685,0.7692,0.775,0.7899,0.8394,0.9401,1.0769,1.2042,1.2984,1.3599,1.5013,1.5832,1.5832,1.5832,1.5832,1.5832,1.5832,1.5832,1.5832,1.6714,1.7435,1.0481,1.1108,1.1648,1.1648,1.1889,1.2009,1.172,1.0593,0.9645,0.9665,0.0,0.8639,0.8757,0.8884,0.8837,0.828,0.0,0.8606,0.8297,0.817,0.791,0.7434,0.6466,0.4794,0.2303,0.2492,0.2493,0.1689,0.6022,0.8861,0.9131,0.9456,0.8589,0.6475,0.4137,0.4091,0.6429,0.6429,0.4112,-0.0503,-0.0201,-0.0,0.0101,0.2409,0.4726,0.6965,0.0,0.0,0.7475,0.7475,0.7575,0.7679,0.7666,0.7756,0.8038,0.8038,0.8038,0.8038,0.8038,0.8038,0.8038,0.8038,0.8038,0.8038,0.8038,0.8038,0.8038,0.8038,0.8038,0.8038,0.8038,0.8038,0.8038,0.8038,0.8038,0.8038,0.8038,0.8038,0.8001,0.7969,0.7839,0.7658,0.7658,0.7658,0.7658,0.7658,0.7763,0.7841,0.7841,0.7733,0.7706,0.7828,0.7841,0.7896,0.8028,0.9217,1.0583,1.1848,1.3199,1.4459,1.573,1.5832,1.5832,1.5832,1.5832,1.5832,1.5832,1.5832,1.5832,1.5838,1.6132,1.6863,1.0481,1.0681,1.0807,1.0807,1.019,0.9522,0.9123,0.8353,0.0,0.0,0.0,0.7024,0.7032,0.7224,0.0,0.7598,0.0,0.0,0.0,0.0,0.6511,0.0,0.0,0.0,0.0,0.0,0.0,0.0,0.0,-0.0269,0.1734,0.1928,0.0836,-0.1519,-0.2005,-0.2106,-0.1628,-0.1628,-0.2125,-0.3244,-0.1082,-0.0,-0.0,0.0503,0.0905,0.1508,0.3717,0.0,0.4722,0.4722,0.5125,0.5829,0.5827,0.6731,0.8038,0.8038,0.8038,0.8038,0.8038,0.8038,0.8038,0.8038,0.8038,0.8038,0.8038,0.8038,0.8038,0.8038,0.8038,0.8038,0.8038,0.8038,0.8038,0.8038,0.8038,0.8038,0.8038,0.8038,0.8031,0.8004,0.798,0.7963,0.7963,0.7963,0.7963,0.7963,0.7984,0.7997,0.7997,0.7977,0.7974,0.7997,0.7997,0.8011,0.8038,0.9217,1.0583,1.1848,1.3199,1.4459,1.573,1.5832,1.5832,1.5832,1.5832,1.5832,1.5832,1.5832,1.5832,1.5838,1.6132,1.6498,0.9964,0.9913,0.9786,0.939,0.8708,0.7995,0.7572,0.0,0.0,0.0,0.0,0.6341,0.6178,0.0,0.0,0.0,0.0,0.0,0.0,0.0,0.0,0.0,0.0,0.0,0.0,0.0,0.0,0.0,0.0,-0.4793,-0.3707,-0.3658,-0.4183,-0.5422,-0.5424,-0.5424,-0.5424,-0.5424,-0.5451,-0.5603,-0.4584,-0.2656,-0.0,-0.0,-0.0,0.0101,0.1409,0.0,0.2114,0.4939,0.6361,0.6765,0.6748,0.7247,0.7955,0.8045,0.8038,0.8038,0.8038,0.8038,0.8038,0.8038,0.8038,0.8038,0.8038,0.8038,0.8038,0.8038,0.8038,0.8038,0.8038,0.8038,0.8038,0.8038,0.8038,0.8038,0.8038,0.8038,0.8038,0.8038,0.8038,0.8038,0.8038,0.8038,0.8038,0.8038,0.8038,0.8038,0.8038,0.8038,0.8038,0.8038,0.8038,0.8038,0.8038,0.9801,1.1263,1.1848,1.3788,1.5146,1.5737,1.5832,1.5832,1.5832,1.5832,1.5832,1.5832,1.5832,1.5912,1.6066,1.6359,1.666,0.9316,0.9093,0.8877,0.8156,0.7499,0.6944,0.6519,0.6177,0.0,0.0,0.5464,0.5789,0.5518,0.0,0.0,0.0,0.0,0.0,0.0,0.0,0.0,0.0,0.0,0.0,0.0,0.0,0.0,0.0,0.0,0.0,-0.7084,-0.7111,-0.7132,-0.706,-0.7063,-0.7063,-0.7063,-0.7063,-0.7079,-0.7208,-0.762,-0.5632,-0.1653,-0.0496,-0.0,-0.0,-0.0,0.0,0.0,0.6279,0.8019,0.8012,0.7982,0.7972,0.7972,0.7952,0.8048,0.8048,0.8041,0.8041,0.8045,0.8041,0.8038,0.8038,0.8038,0.8038,0.8038,0.8038,0.8038,0.8038,0.8038,0.8038,0.8038,0.8038,0.8038,0.8038,0.8038,0.8038,0.8038,0.8038,0.8038,0.8038,0.8038,0.8038,0.8038,0.8038,0.8038,0.8038,0.8038,0.8038,0.8038,0.8038,0.8237,0.8432,0.8432,1.0872,1.2334,1.2334,1.4465,1.5832,1.5832,1.5832,1.5832,1.5832,1.5832,1.5832,1.5832,1.5832,1.5979,1.6279,1.6573,1.6867,0.8886,0.8502,0.8091,0.8027,0.7125,0.6243,0.5916,0.0,0.0,0.4012,0.4352,0.4724,0.4713,0.0,0.0,0.0,0.0,0.0,0.0,0.0,0.0,0.0,0.0,0.0,0.0,0.0,0.0,0.0,0.0,0.0,-0.7143,-0.7068,-0.7081,-0.7094,-0.7098,-0.7098,-0.7098,-0.7098,-0.7165,-0.7397,-0.7244,-0.7134,-0.6871,-0.2137,-0.0,-0.0,-0.0,0.0,0.0,0.7818,0.8006,0.7979,0.7975,0.7972,0.7972,0.7972,0.7975,0.7982,0.8048,0.7952,0.7965,0.8045,0.8038,0.8038,0.8038,0.8038,0.8038,0.8038,0.8038,0.8038,0.8038,0.8038,0.8038,0.8038,0.8038,0.8038,0.8038,0.8038,0.8038,0.8038,0.8038,0.8038,0.8038,0.8038,0.8038,0.8038,0.8038,0.8038,0.8038,0.8038,0.8038,0.8038,0.9118,0.9805,0.9805,1.2231,1.3686,1.3686,1.5051,1.5832,1.5832,1.5832,1.5832,1.5832,1.5832,1.5832,1.5832,1.5832,1.5979,1.6279,1.6573,1.6867,0.7464,0.7428,0.7279,0.6613,0.6101,0.5611,0.5104,0.0,0.3859,0.3927,0.4162,0.4449,0.4744,0.4649,0.0,0.0,0.0,0.0,0.0,0.0,0.0,0.0,0.0,0.0,0.0,0.0,0.0,0.0,0.0,0.0,-0.9262,-0.924,-0.8877,-0.8189,-0.8189,-0.8189,-0.8189,-0.7489,-0.717,-0.7234,-0.7242,-0.7326,-0.7303,-0.5441,-0.2906,-0.0,-0.0,0.0,0.0,0.6687,0.8016,0.8002,0.7989,0.7982,0.7779,0.6139,0.5632,0.5634,0.6229,0.7144,0.7969,0.8045,0.8038,0.8038,0.8038,0.8038,0.8038,0.8038,0.8038,0.8038,0.8038,0.8038,0.8038,0.8038,0.8038,0.8038,0.8038,0.8038,0.8038,0.8038,0.8038,0.8038,0.8038,0.8038,0.8038,0.8038,0.8038,0.8038,0.8038,0.8038,0.8038,0.8038,0.8432,0.9118,0.9899,1.1653,1.3006,1.3878,1.5146,1.5832,1.5832,1.5832,1.5832,1.5832,1.5832,1.5832,1.5832,1.6012,1.6253,1.654,1.6834,1.7128,0.6684,0.6589,0.6294,0.4912,0.4615,0.4486,0.0,0.3856,0.3735,0.3731,0.3826,0.399,0.4322,0.4253,0.3649,0.0,0.0,0.0,0.0,0.0,0.0,0.0,0.0,0.0,0.0,0.0,0.0,0.0,0.0,0.0,0.0,-1.1091,-1.0862,-0.947,-0.9048,-0.8882,-0.889,-0.7665,-0.7139,-0.7143,-0.7251,-0.7218,-0.7144,-0.7313,-0.5151,-0.1068,0.0,0.0,0.0,0.4038,0.6067,0.6776,0.6865,0.7275,0.7795,0.5847,0.4225,0.2914,0.3613,0.5632,0.7975,0.7955,0.8045,0.8038,0.8038,0.8038,0.8038,0.8038,0.8038,0.8038,0.8038,0.8038,0.8038,0.8038,0.8038,0.8038,0.8038,0.8038,0.8038,0.8038,0.8038,0.8038,0.8038,0.8038,0.8038,0.8038,0.8038,0.8038,0.8038,0.8038,0.8137,0.8528,0.8627,0.9118,1.0485,1.2042,1.3494,1.4364,1.5337,1.5832,1.5832,1.5832,1.5832,1.5832,1.5832,1.5832,1.5832,1.6242,1.6531,1.6714,1.7014,1.7301,0.6984,0.6245,0.4958,0.3204,0.2705,0.2737,0.0,0.3387,0.3834,0.3221,0.3117,0.3117,0.312,0.3806,0.3445,0.0488,0.0,0.0,0.0,0.0,0.0,0.0,0.0,0.0,0.0,0.0,0.0,0.0,0.0,0.0,0.0,-1.2319,-1.2649,-1.0615,-0.9525,-0.8865,-0.889,-0.7665,-0.7139,-0.7139,-0.7143,-0.7143,-0.7061,-0.7141,-0.5789,0.0,0.0,0.0,0.0,0.0101,0.1607,0.4016,0.4016,0.5646,0.8026,0.7922,0.4549,-0.0,0.0101,0.3521,0.7989,0.7975,0.7959,0.8038,0.8038,0.8038,0.8038,0.8038,0.8038,0.8038,0.8038,0.8038,0.8038,0.8038,0.8038,0.8038,0.8038,0.8038,0.8038,0.8038,0.8038,0.8038,0.8038,0.8038,0.8038,0.8038,0.8038,0.8038,0.8038,0.8038,0.8528,0.9801,0.9998,1.0485,1.175,1.4274,1.5737,1.5737,1.5825,1.5832,1.5832,1.5832,1.5832,1.5832,1.5832,1.5832,1.5832,1.6353,1.6749,1.6714,1.7014,1.7301,0.3739,0.4542,0.4782,0.2142,-0.0057,-0.1321,-0.0237,0.0512,0.1152,0.1707,0.1839,0.193,0.2156,0.1749,0.1028,-0.0044,-0.0951,0.0,0.0,0.0,0.0,0.0,0.0,0.0,0.0,0.0,0.0,0.0,0.0,0.0,0.0,-1.2902,-1.2864,-1.1775,-1.1401,-1.0807,-1.0091,-0.8952,-0.791,-0.7139,-0.7139,-0.7139,-0.7143,-0.7121,0.0,0.0,0.0,0.0,0.0,-0.0,0.0498,0.131,0.131,0.1815,0.2524,0.2524,0.1414,-0.0,-0.0,0.3525,0.8009,0.7982,0.7972,0.7969,0.8045,0.8038,0.8038,0.8038,0.8038,0.8038,0.8038,0.8038,0.8038,0.8038,0.8038,0.8038,0.8038,0.8038,0.8038,0.8038,0.8038,0.8038,0.8038,0.8038,0.8038,0.8038,0.8038,0.8038,0.8038,0.8038,0.8531,0.9903,1.0779,1.1843,1.3102,1.4076,1.4848,1.573,1.5832,1.5832,1.5832,1.5832,1.5832,1.5832,1.5832,1.5925,1.6132,1.6538,1.6935,1.7308,1.7402,1.7495,0.0,0.1329,0.2213,0.0377,-0.1897,-0.3324,-0.2169,-0.1646,-0.1079,0.0046,0.027,0.036,0.0405,-0.0539,-0.139,-0.1511,-0.2528,0.0,0.0,0.0,0.0,0.0,0.0,0.0,0.0,0.0,0.0,0.0,0.0,0.0,0.0,-1.304,-1.2739,-1.2111,-1.1746,-1.124,-1.0611,-0.9039,-0.7826,-0.7139,-0.7139,-0.7139,-0.7139,-0.7068,0.0,0.0,0.0,0.0,0.0,-0.0,-0.0,-0.0,-0.0,-0.0,-0.0,-0.0,-0.0,-0.0,-0.0,0.2822,0.6475,0.645,0.7153,0.7965,0.8045,0.8038,0.8038,0.8038,0.8038,0.8038,0.8038,0.8038,0.8038,0.8038,0.8038,0.8038,0.8038,0.8038,0.8038,0.8038,0.8038,0.8038,0.8038,0.8038,0.8038,0.8038,0.8038,0.8038,0.8038,0.8038,0.8726,1.0485,1.1477,1.2646,1.4465,1.4657,1.4949,1.573,1.5832,1.5832,1.5832,1.5832,1.5832,1.5832,1.5832,1.5876,1.6155,1.656,1.7108,1.7582,1.7582,1.7582,0.0,-0.2757,-0.1887,-0.1883,-0.2739,-0.3459,-0.3174,-0.3096,0.0,-0.1643,-0.1414,-0.1513,-0.187,-0.2821,-0.3615,-0.3739,-0.448,0.0,0.0,0.0,0.0,0.0,0.0,0.0,0.0,0.0,0.0,0.0,0.0,0.0,0.0,-1.2709,-1.2365,-1.17,-1.0624,-1.0179,-1.0499,-0.8348,-0.7224,-0.7139,-0.7139,-0.7139,-0.7139,-0.7139,0.0,0.0,0.0,0.0,0.0,-0.0,-0.0,-0.0,-0.0,-0.0,-0.0,-0.0,-0.0,-0.0,-0.0,0.1614,0.3729,0.4123,0.5927,0.8041,0.8041,0.8041,0.8038,0.8038,0.8038,0.8038,0.8038,0.8038,0.8038,0.8038,0.8038,0.8038,0.8038,0.8038,0.8038,0.8038,0.8038,0.8038,0.8038,0.8038,0.8038,0.8038,0.8038,0.8038,0.8038,0.8038,0.9118,1.1658,1.1996,1.3072,1.5547,1.5832,1.5832,1.5832,1.5832,1.5832,1.5832,1.5832,1.5832,1.5832,1.5865,1.582,1.5862,1.6658,1.7198,1.7582,1.7582,1.7582,-0.303,0.0,-0.28,-0.2741,-0.292,-0.3118,0.0,-0.3091,-0.2997,-0.267,0.0,0.0,-0.3059,-0.3713,-0.4454,0.0,0.0,0.0,0.0,0.0,0.0,0.0,0.0,0.0,0.0,0.0,0.0,0.0,0.0,0.0,0.0,-1.1664,-1.125,-1.1354,-0.959,-0.8809,-0.9177,-0.8706,-0.7998,-0.7139,-0.7139,-0.7139,-0.7139,-0.7139,0.0,0.0,0.0,0.0,-0.0,-0.0,-0.0,-0.0,-0.0,-0.0,-0.0,-0.0,-0.0,-0.0,-0.0,0.0404,0.1614,0.5761,0.7478,0.7965,0.7965,0.7952,0.8038,0.8038,0.8038,0.8038,0.8038,0.8038,0.8038,0.8038,0.8038,0.8038,0.8038,0.8038,0.8038,0.8038,0.8038,0.8038,0.8038,0.8038,0.8038,0.8038,0.8038,0.8038,0.8038,0.8924,1.0109,1.1707,1.278,1.4027,1.5642,1.5832,1.5832,1.5832,1.5832,1.5832,1.5832,1.5832,1.5832,1.5832,1.6058,1.6421,1.672,1.7194,1.7515,1.7582,1.7582,1.7582,-0.3144,-0.3243,-0.3321,-0.3278,-0.3275,-0.3249,-0.3243,0.0,0.0,0.0,0.0,0.0,0.0,0.0,0.0,0.0,0.0,0.0,0.0,0.0,0.0,0.0,0.0,0.0,0.0,0.0,0.0,0.0,0.0,0.0,0.0,-1.1768,-1.116,-1.0319,-0.937,-0.8737,-0.8687,-0.8261,-0.7738,-0.7139,-0.7139,-0.7139,-0.7139,-0.7139,-0.7139,0.0,0.0,0.0,-0.3096,-0.0922,-0.0,-0.0,-0.0,-0.0,-0.0,-0.0,-0.0,-0.0,-0.0,-0.0,0.0705,0.4841,0.6965,0.7972,0.7962,0.8048,0.8038,0.8038,0.8038,0.8038,0.8038,0.8038,0.8038,0.8038,0.8038,0.8038,0.8038,0.8038,0.8038,0.8038,0.8038,0.8038,0.8038,0.8038,0.8038,0.8038,0.8038,0.8038,0.8038,0.9217,1.0493,1.179,1.3088,1.4449,1.5737,1.5832,1.5832,1.5832,1.5832,1.5832,1.5832,1.5832,1.5832,1.5832,1.5967,1.648,1.7275,1.7529,1.7582,1.7582,1.7582,1.7582,-0.3528,-0.3706,-0.3829,-0.3677,-0.3786,-0.388,-0.3721,0.0,0.0,0.0,0.0,0.0,0.0,0.0,0.0,0.0,0.0,0.0,0.0,0.0,0.0,0.0,0.0,0.0,0.0,0.0,0.0,0.0,0.0,0.0,0.0,-1.215,-1.1248,-0.9372,-0.9271,-0.8997,-0.835,-0.7537,-0.7109,-0.7109,-0.7129,-0.7139,-0.7139,-0.7139,-0.7139,0.0,0.0,0.0,-0.6745,-0.237,-0.0368,-0.0,-0.0,-0.0,-0.0,-0.0,-0.0,-0.0,-0.0,-0.0,0.0402,0.3112,0.5834,0.7972,0.8045,0.8038,0.8038,0.8038,0.8038,0.8038,0.8038,0.8038,0.8038,0.8038,0.8038,0.8038,0.8038,0.8038,0.8038,0.8038,0.8038,0.8038,0.8038,0.8038,0.8038,0.8038,0.8038,0.8038,0.8233,0.9509,1.0779,1.2047,1.3385,1.4672,1.5737,1.5832,1.5832,1.5832,1.5832,1.5832,1.5832,1.5832,1.5832,1.5832,1.5849,1.6367,1.7496,1.7536,1.7582,1.7582,1.7582,1.7582,-0.4521,-0.4844,-0.4828,-0.398,-0.4562,-0.5326,-0.5064,0.0,0.0,0.0,0.0,0.0,0.0,0.0,0.0,0.0,0.0,0.0,0.0,0.0,0.0,0.0,0.0,0.0,0.0,0.0,0.0,0.0,0.0,0.0,0.0,-1.1465,-1.049,-0.9372,-0.8572,-0.7756,-0.6862,-0.6905,-0.6959,-0.6963,-0.7082,-0.7139,-0.7139,-0.7139,-0.7139,0.0,0.0,-0.7068,-0.6907,-0.4129,-0.1821,-0.0,-0.0,-0.0,-0.0,-0.0,-0.0,-0.0,-0.0,-0.0,0.0403,0.3115,0.5837,0.7982,0.8048,0.8038,0.8038,0.8038,0.8038,0.8038,0.8038,0.8038,0.8038,0.8038,0.8038,0.8038,0.8038,0.8038,0.8038,0.8038,0.8038,0.8038,0.8038,0.8038,0.8038,0.8038,0.8038,0.8432,0.9509,1.0779,1.215,1.3437,1.4694,1.556,1.5737,1.5832,1.5832,1.5832,1.5832,1.5832,1.5832,1.5832,1.5832,1.5832,1.5849,1.614,1.682,1.7301,1.7582,1.7582,1.7582,1.7582,-0.4649,-0.5343,-0.5832,-0.5114,-0.5449,-0.5927,-0.5826,0.0,0.0,0.0,0.0,0.0,0.0,0.0,0.0,0.0,0.0,0.0,0.0,0.0,0.0,0.0,0.0,0.0,0.0,0.0,0.0,0.0,0.0,0.0,0.0,0.0,-1.087,-0.9372,-0.8933,-0.7979,-0.6438,-0.6573,-0.6766,-0.6929,-0.7505,-0.7581,-0.7139,-0.7139,-0.7139,-0.7139,0.0,-0.7064,-0.6996,-0.5916,-0.3332,-0.0,-0.0,-0.0,-0.0,-0.0,-0.0,-0.0,-0.0,-0.0,0.0398,0.3104,0.5839,0.7982,0.8048,0.8038,0.8038,0.8038,0.8038,0.8038,0.8038,0.8038,0.8038,0.8038,0.8038,0.8038,0.8038,0.8038,0.8038,0.8038,0.8038,0.8038,0.8038,0.8038,0.8038,0.8038,0.8038,0.8531,0.9801,1.1072,1.2436,1.3806,1.5057,1.5832,1.5832,1.5832,1.5832,1.5832,1.5832,1.5832,1.5832,1.5832,1.5905,1.6072,1.5927,1.6218,1.7177,1.7486,1.7582,1.7582,1.7582,1.7582,-0.4928,-0.5719,-0.6467,-0.6318,0.0,-0.664,-0.6688,0.0,0.0,0.0,0.0,0.0,0.0,0.0,0.0,0.0,0.0,0.0,0.0,0.0,0.0,0.0,0.0,0.0,0.0,0.0,0.0,0.0,0.0,0.0,0.0,0.0,-1.1403,-0.9372,-0.9296,-0.8313,-0.6338,-0.6602,-0.6796,-0.682,-0.7609,-0.7629,-0.7092,-0.7092,-0.7109,-0.7139,-0.7139,-0.7061,-0.7078,-0.7088,-0.4643,-0.0802,-0.0179,-0.0,-0.0,-0.0,-0.0,-0.0,-0.0,0.0682,0.1955,0.3474,0.58,0.7935,0.7939,0.8038,0.8038,0.8038,0.8038,0.8038,0.8038,0.8038,0.8038,0.8038,0.8038,0.8038,0.8038,0.8038,0.8038,0.8038,0.8038,0.8038,0.8038,0.8038,0.8137,0.8432,0.8432,0.9019,1.0676,1.175,1.2915,1.4166,1.5242,1.5832,1.5832,1.5832,1.5832,1.5832,1.5832,1.5832,1.5832,1.5832,1.5939,1.6269,1.619,1.67,1.7619,1.7637,1.7582,1.7582,1.7582,1.7582,-0.583,-0.6147,-0.6419,-0.7201,0.0,0.0,-0.8182,-0.9003,0.0,0.0,0.0,0.0,0.0,0.0,0.0,0.0,0.0,0.0,0.0,0.0,0.0,0.0,0.0,0.0,0.0,0.0,0.0,0.0,0.0,0.0,0.0,0.0,0.0,-0.9372,-0.9296,-0.8313,-0.6338,-0.7261,-0.7282,-0.6508,-0.673,-0.6881,-0.6946,-0.6946,-0.7014,-0.7139,-0.7139,-0.7143,-0.7143,-0.7143,-0.5604,-0.3103,-0.0895,-0.0,-0.0,-0.0,-0.0,-0.0,-0.0,0.2868,0.6258,0.4584,0.5686,0.7784,0.7905,0.8038,0.8038,0.8038,0.8038,0.8038,0.8038,0.8038,0.8038,0.8038,0.8038,0.8038,0.8038,0.8038,0.8038,0.8038,0.8038,0.8038,0.8038,0.8038,0.8432,0.9706,0.9903,1.0774,1.3295,1.368,1.4268,1.5534,1.573,1.5832,1.5832,1.5832,1.5832,1.5832,1.5832,1.5832,1.5832,1.5832,1.5838,1.5865,1.6874,1.7517,1.7645,1.7646,1.7582,1.7582,1.7582,1.7582,-0.5504,-0.5902,-0.6365,-0.7041,0.0,0.0,0.0,0.0,0.0,0.0,0.0,0.0,0.0,0.0,0.0,0.0,0.0,0.0,0.0,0.0,0.0,0.0,0.0,0.0,0.0,0.0,0.0,0.0,0.0,0.0,0.0,0.0,0.0,-0.9372,-0.9895,-0.8983,-0.6338,-0.7326,-0.7358,-0.6421,-0.7122,-0.7286,-0.679,-0.6885,-0.6939,-0.6963,-0.7085,-0.7139,-0.7143,-0.7068,-0.5716,-0.3388,-0.0986,-0.0,-0.0,-0.0,-0.0,-0.0,-0.0,0.3091,0.6989,0.6135,0.6702,0.7751,0.7885,0.7963,0.8038,0.8038,0.8038,0.8038,0.8038,0.8038,0.8038,0.8038,0.8038,0.8038,0.8038,0.8038,0.8038,0.8038,0.8038,0.8038,0.8038,0.8038,0.8432,0.9801,0.9998,1.097,1.3584,1.3878,1.4364,1.5635,1.5832,1.5832,1.5832,1.5832,1.5832,1.5832,1.5832,1.5832,1.5832,1.5832,1.5919,1.6106,1.6388,1.68,1.7564,1.7617,1.7582,1.7582,1.7582,1.7582,-0.5224,-0.5739,-0.6375,0.0,0.0,0.0,0.0,0.0,0.0,0.0,0.0,0.0,0.0,0.0,0.0,0.0,0.0,0.0,0.0,0.0,0.0,0.0,0.0,0.0,0.0,0.0,0.0,0.0,0.0,0.0,0.0,0.0,0.0,0.0,-1.0077,-0.921,-0.6795,-0.7176,-0.6945,-0.6338,-0.7055,-0.7194,-0.663,-0.6736,-0.6807,-0.6939,-0.6967,-0.7051,-0.7143,-0.7068,-0.5272,-0.2323,-0.0628,-0.0,-0.0,-0.0,-0.0,0.018,0.1733,0.3851,0.6084,0.6954,0.7338,0.7614,0.7787,0.7885,0.7967,0.7967,0.7967,0.7957,0.7913,0.797,0.8038,0.8038,0.8038,0.8038,0.8038,0.8038,0.8038,0.8038,0.8038,0.8038,0.8038,0.8038,0.8627,1.0391,1.0583,1.1556,1.4172,1.4459,1.4848,1.573,1.5832,1.5832,1.5832,1.5832,1.5832,1.5832,1.5832,1.5832,1.5832,1.5832,1.5925,1.6126,1.6111,1.6627,1.7585,1.7624,1.7582,1.7582,1.7582,1.7582,-0.5309,-0.5746,0.0,0.0,0.0,0.0,0.0,0.0,0.0,0.0,0.0,0.0,0.0,0.0,0.0,0.0,0.0,0.0,0.0,0.0,0.0,0.0,0.0,0.0,0.0,0.0,0.0,0.0,0.0,0.0,0.0,0.0,0.0,0.0,-0.9697,-0.8841,-0.7778,-0.6795,-0.6338,-0.6338,-0.6338,-0.6335,-0.6471,-0.6471,-0.6607,-0.6932,-0.687,-0.6959,-0.7139,-0.7139,-0.4273,-0.0,-0.0,-0.0,-0.0,-0.0,-0.0,0.0719,0.5405,0.5568,0.4032,0.6609,0.7387,0.7428,0.7719,0.7807,0.7811,0.7811,0.7811,0.7777,0.7638,0.7818,0.8035,0.8035,0.8035,0.8035,0.8038,0.8038,0.8038,0.8038,0.8038,0.8038,0.8038,0.8038,0.892,1.1556,1.1848,1.2818,1.5445,1.5832,1.5832,1.5832,1.5832,1.5832,1.5832,1.5832,1.5832,1.5832,1.5832,1.5832,1.5832,1.5832,1.5832,1.5832,1.6427,1.6963,1.7617,1.7646,1.7582,1.7582,1.7582,1.7582,-0.5309,0.0,0.0,0.0,0.0,0.0,0.0,0.0,0.0,0.0,0.0,0.0,0.0,0.0,0.0,0.0,0.0,0.0,0.0,0.0,0.0,0.0,0.0,0.0,0.0,0.0,0.0,0.0,0.0,0.0,0.0,0.0,0.0,0.0,-1.0096,-0.9196,-0.7497,-0.7411,-0.7022,-0.6338,-0.6338,-0.6359,-0.6329,-0.6427,-0.6541,-0.661,-0.6715,-0.686,-0.6962,-0.7074,-0.5275,-0.232,-0.0628,-0.0,-0.0,-0.0,-0.0,0.0719,0.5405,0.6662,0.6192,0.6956,0.7302,0.7387,0.7475,0.7577,0.7662,0.7662,0.7662,0.7651,0.7611,0.7665,0.7729,0.7729,0.7729,0.7756,0.7858,0.7879,0.7913,0.8018,0.8038,0.8038,0.8038,0.8038,0.892,1.1556,1.1361,1.2129,1.5343,1.5832,1.5832,1.5832,1.5832,1.5832,1.5832,1.5832,1.5832,1.5832,1.5832,1.5832,1.5832,1.5832,1.5832,1.5832,1.6427,1.6851,1.7161,1.7418,1.7582,1.7582,1.7582,1.7582,-0.6081,0.0,0.0,0.0,0.0,0.0,0.0,0.0,0.0,0.0,0.0,0.0,0.0,0.0,0.0,0.0,0.0,0.0,0.0,0.0,0.0,0.0,0.0,0.0,0.0,0.0,0.0,0.0,0.0,0.0,0.0,0.0,0.0,0.0,-1.0259,-0.946,-0.7812,-0.7641,-0.7143,-0.6169,-0.623,-0.6338,-0.6264,-0.6349,-0.6424,-0.6511,-0.6614,-0.6778,-0.6791,-0.7004,-0.5711,-0.3353,-0.0974,-0.0,-0.0,-0.0,-0.0,0.0539,0.4399,0.629,0.7098,0.7078,0.7214,0.7292,0.7353,0.7438,0.7509,0.7509,0.7509,0.7495,0.7434,0.7417,0.7448,0.757,0.76,0.7624,0.7709,0.777,0.7838,0.7929,0.7997,0.8038,0.8038,0.8432,0.941,1.1165,1.2129,1.3392,1.5534,1.5832,1.5832,1.5832,1.5832,1.5832,1.5832,1.5832,1.5832,1.5832,1.5832,1.5832,1.5832,1.5832,1.5832,1.5832,1.6169,1.6511,1.7042,1.7331,1.7468,1.7582,1.7582,1.7582,0.0,0.0,0.0,0.0,0.0,0.0,0.0,0.0,0.0,0.0,0.0,0.0,0.0,0.0,0.0,0.0,0.0,0.0,0.0,0.0,0.0,0.0,0.0,0.0,0.0,0.0,0.0,0.0,0.0,0.0,0.0,0.0,0.0,-1.0955,-1.0263,-0.95,-0.8664,-0.773,-0.6881,0.0,-0.6228,-0.6227,-0.624,-0.6254,-0.6342,-0.65,-0.6602,-0.6683,-0.6685,-0.6989,-0.5707,-0.3369,-0.0955,-0.0,-0.0,-0.0,-0.0,0.0359,0.2769,0.5099,0.7098,0.7064,0.7139,0.7166,0.7309,0.735,0.735,0.735,0.735,0.7319,0.7177,0.7139,0.721,0.7492,0.7556,0.7567,0.7594,0.7699,0.7801,0.7828,0.7943,0.8038,0.8038,0.9019,0.9899,1.0284,1.3488,1.5832,1.5832,1.5832,1.5832,1.5832,1.5832,1.5832,1.5832,1.5832,1.5832,1.5832,1.5832,1.5832,1.5832,1.5832,1.5832,1.5832,1.5832,1.6179,1.6894,1.7061,1.7288,1.7542,1.7569,1.7582,0.0,-0.8366,0.0,0.0,0.0,0.0,0.0,0.0,0.0,0.0,0.0,0.0,0.0,0.0,0.0,0.0,0.0,0.0,0.0,0.0,0.0,0.0,0.0,0.0,0.0,0.0,0.0,0.0,0.0,0.0,0.0,0.0,0.0,-1.0719,-0.9988,-0.9518,-0.931,-0.7883,-0.7064,0.0,-0.6244,-0.5962,-0.6084,-0.6207,-0.6338,-0.6349,-0.651,-0.6505,-0.6532,-0.6688,-0.5569,-0.3382,-0.095,-0.0,-0.0,-0.0,-0.0,0.0359,0.2769,0.5099,0.7098,0.7064,0.7139,0.7146,0.718,0.719,0.719,0.719,0.719,0.7183,0.7149,0.7139,0.7156,0.7224,0.7238,0.7305,0.7546,0.7624,0.7712,0.7946,0.8018,0.8038,0.8038,0.8233,0.8432,0.8528,1.2711,1.5832,1.5832,1.5832,1.5832,1.5832,1.5832,1.5832,1.5832,1.5832,1.5832,1.5832,1.5832,1.5832,1.5832,1.5832,1.5832,1.5832,1.5832,1.5912,1.6079,1.68,1.7181,1.7248,1.7475,1.7582,0.0,0.0,0.0,0.0,0.0,0.0,0.0,0.0,0.0,0.0,0.0,0.0,0.0,0.0,0.0,0.0,0.0,0.0,0.0,0.0,0.0,0.0,0.0,0.0,0.0,0.0,0.0,0.0,0.0,0.0,0.0,-1.0481,-1.0624,-1.0624,-1.0245,-0.9652,-0.8794,-0.8015,-0.7229,-0.6401,-0.5983,-0.5845,-0.5987,-0.6224,-0.6338,-0.6268,-0.6369,-0.64,-0.638,-0.6488,-0.5243,-0.3139,-0.0848,-0.0,-0.0,-0.0,0.1438,0.3414,0.3575,0.5097,0.7088,0.7061,0.7139,0.7143,0.7064,0.7061,0.7143,0.7064,0.7061,0.7139,0.7139,0.7139,0.7139,0.7139,0.7139,0.7183,0.7346,0.7455,0.757,0.7723,0.7906,0.8038,0.8038,0.8038,0.8821,1.1351,1.407,1.5832,1.5832,1.5832,1.5832,1.5832,1.5832,1.5832,1.5832,1.5832,1.5832,1.5832,1.5832,1.5832,1.5832,1.5832,1.5832,1.5832,1.5832,1.5965,1.6246,1.6714,1.7081,1.7361,1.7508,1.7582,0.0,0.0,0.0,0.0,0.0,0.0,0.0,0.0,0.0,0.0,0.0,0.0,0.0,0.0,0.0,0.0,0.0,0.0,0.0,0.0,0.0,0.0,0.0,0.0,0.0,0.0,0.0,0.0,0.0,0.0,-1.004,-1.0327,-1.0481,-1.0481,-1.0401,-0.9652,-0.8221,-0.8011,-0.7234,-0.5823,-0.5765,-0.5822,-0.5911,-0.612,-0.6237,-0.6338,-0.6338,-0.6338,-0.6264,-0.6285,-0.5075,-0.2902,-0.0828,-0.0,-0.0,-0.0,0.3045,0.6857,0.4835,0.5458,0.7084,0.7064,0.7058,0.7064,0.7081,0.6802,0.6605,0.6989,0.7071,0.7058,0.7143,0.7139,0.7139,0.7139,0.7139,0.7153,0.7207,0.7336,0.7461,0.7529,0.7811,0.8038,0.8038,0.8038,0.9797,1.5045,1.5832,1.5832,1.5832,1.5832,1.5832,1.5832,1.5832,1.5832,1.5832,1.5832,1.5832,1.5832,1.5832,1.5832,1.5832,1.5832,1.5832,1.5832,1.5832,1.6106,1.6653,1.6687,1.6981,1.7508,1.7562,1.7582,0.0,0.0,0.0,0.0,0.0,0.0,0.0,0.0,0.0,0.0,0.0,0.0,0.0,0.0,0.0,0.0,0.0,0.0,0.0,0.0,0.0,0.0,0.0,0.0,0.0,0.0,0.0,0.0,0.0,0.0,-0.9726,-1.002,-1.0174,-1.0174,-0.9725,-0.9338,-0.9139,-0.7661,-0.6758,-0.6564,-0.5949,-0.564,-0.5688,-0.5942,-0.6135,-0.6338,-0.6338,-0.6338,-0.6264,-0.6274,-0.5021,-0.291,-0.0807,-0.0,-0.0,-0.0,0.3008,0.7042,0.6745,0.6828,0.7098,0.7084,0.7088,0.7094,0.7098,0.5641,0.4463,0.6539,0.7084,0.7078,0.7058,0.7139,0.7139,0.7139,0.7139,0.7214,0.7482,0.7485,0.7543,0.7892,0.8001,0.8038,0.8038,0.8038,0.9797,1.5045,1.5832,1.5832,1.5832,1.5832,1.5832,1.5832,1.5832,1.5832,1.5832,1.5832,1.5832,1.5832,1.5832,1.5832,1.5832,1.5832,1.5832,1.5832,1.5832,1.6032,1.6453,1.662,1.6881,1.7215,1.7468,1.7582,0.0,0.0,0.0,0.0,0.0,0.0,0.0,0.0,0.0,0.0,0.0,0.0,0.0,0.0,0.0,0.0,0.0,0.0,0.0,0.0,0.0,0.0,0.0,0.0,0.0,0.0,0.0,0.0,0.0,-0.9236,-0.9426,-0.9713,-0.9873,-0.9873,-0.9788,-0.9301,-0.8285,-0.7703,-0.692,-0.5947,-0.5628,-0.5508,-0.5593,-0.5725,-0.5911,-0.6135,-0.6224,-0.6338,-0.6264,-0.6274,-0.5724,-0.4555,-0.1286,-0.0,-0.0,-0.0,0.1311,0.3529,0.6183,0.7111,0.6917,0.5549,0.5097,0.5374,0.6659,0.5471,0.357,0.3215,0.5008,0.7084,0.7074,0.7061,0.7139,0.7139,0.7139,0.7177,0.7312,0.7441,0.7631,0.7974,0.8038,0.8038,0.8038,1.048,1.3199,1.5439,1.5832,1.5832,1.5832,1.5832,1.5832,1.5832,1.5832,1.5832,1.5832,1.5832,1.5832,1.5832,1.5832,1.5832,1.5832,1.5832,1.5832,1.5832,1.5832,1.5916,1.6078,1.65,1.6854,1.7257,1.7448,1.7582,0.0,0.0,0.0,0.0,0.0,0.0,0.0,0.0,0.0,0.0,0.0,0.0,0.0,0.0,0.0,0.0,0.0,0.0,0.0,0.0,0.0,0.0,0.0,0.0,0.0,0.0,0.0,0.0,0.0,-0.9077,-0.9077,-0.9412,-0.9573,-0.9573,-0.961,-0.9047,-0.7871,-0.7973,-0.712,-0.5428,-0.5818,-0.5885,-0.5532,-0.5844,-0.5937,-0.5979,-0.6135,-0.6224,-0.6338,-0.6271,-0.6281,-0.5902,-0.2233,-0.0484,-0.0,-0.0,-0.0,0.0521,0.4072,0.6091,0.6834,0.5015,0.3666,0.3041,0.4764,0.4037,0.2323,0.0536,0.3037,0.6358,0.6903,0.7068,0.7139,0.7139,0.7139,0.7153,0.7204,0.7478,0.7777,0.7997,0.8038,0.8432,0.9797,1.3199,1.5832,1.5832,1.5832,1.5832,1.5832,1.5832,1.5832,1.5832,1.5832,1.5832,1.5832,1.5832,1.5832,1.5832,1.5832,1.5832,1.5832,1.5832,1.5832,1.5832,1.5832,1.5863,1.594,1.6454,1.6854,1.7257,1.7448,1.7582,0.0,0.0,0.0,0.0,0.0,0.0,0.0,0.0,0.0,0.0,0.0,0.0,0.0,0.0,0.0,0.0,0.0,0.0,0.0,0.0,0.0,0.0,0.0,0.0,0.0,0.0,0.0,0.0,0.0,-0.8831,-0.8831,-0.905,-0.921,-0.921,-0.8716,-0.855,-0.8728,-0.8228,-0.712,-0.5428,-0.7055,-0.6994,-0.5446,-0.6391,-0.6491,-0.5823,-0.5976,-0.6125,-0.6338,-0.6338,-0.6268,-0.6041,-0.3834,-0.1747,-0.0,-0.0,-0.0,-0.0,0.026,0.3348,0.7045,0.6952,0.3866,0.018,0.0359,0.0269,0.018,-0.0,0.1786,0.4285,0.6539,0.7068,0.7139,0.7139,0.7139,0.7193,0.7383,0.7736,0.8021,0.8035,0.8038,0.9604,1.4561,1.5635,1.5832,1.5832,1.5832,1.5832,1.5832,1.5832,1.5832,1.5832,1.5832,1.5832,1.5832,1.5832,1.5832,1.5832,1.5832,1.5832,1.5832,1.5832,1.5832,1.5832,1.5832,1.5953,1.6293,1.6545,1.6854,1.7257,1.7448,1.7582,0.0,0.0,0.0,0.0,0.0,0.0,0.0,0.0,0.0,0.0,0.0,0.0,0.0,0.0,0.0,0.0,0.0,0.0,0.0,0.0,0.0,0.0,0.0,0.0,0.0,0.0,0.0,0.0,0.0,0.0,-0.8804,-0.8905,-0.8965,-0.8965,-0.8899,-0.8847,-0.879,-0.8292,-0.7702,-0.7055,-0.7111,-0.685,-0.6207,-0.6007,-0.5859,-0.5674,-0.582,-0.6027,-0.6338,-0.6338,-0.6268,-0.6197,-0.5485,-0.3064,-0.0,-0.0,-0.0,-0.0,-0.0,0.1135,0.2559,0.2505,0.1348,-0.0,-0.0,-0.0,-0.0,-0.0,0.17,0.4113,0.6459,0.7074,0.7139,0.7139,0.7139,0.7187,0.736,0.7631,0.7885,0.8014,0.8038,0.9698,1.4854,1.5832,1.5832,1.5832,1.5832,1.5832,1.5832,1.5832,1.5832,1.5832,1.5832,1.5832,1.5832,1.5832,1.5832,1.5832,1.5832,1.5832,1.5832,1.5832,1.5832,1.5832,1.5832,1.5838,1.5947,1.6337,1.658,1.6874,1.7168,1.7915,-0.373,0.0,0.0,0.0,0.0,0.0,0.0,0.0,0.0,0.0,0.0,0.0,0.0,0.0,0.0,0.0,0.0,0.0,0.0,0.0,0.0,0.0,0.0,0.0,0.0,0.0,0.0,0.0,0.0,0.0,-0.8804,-0.8804,-0.8804,-0.8804,-0.903,-0.9004,-0.8661,-0.8675,-0.8468,-0.8027,-0.7702,-0.7242,-0.6654,-0.6071,-0.5776,-0.5596,-0.5691,-0.5901,-0.6186,-0.624,-0.6268,-0.6274,-0.6278,-0.4618,-0.1959,-0.0558,-0.0,-0.0,-0.0,-0.0,-0.0,-0.0,-0.0,-0.0,-0.0,-0.0,0.018,0.0989,0.2331,0.4115,0.6465,0.7078,0.7139,0.7139,0.7139,0.7183,0.7336,0.7539,0.776,0.7994,0.8038,0.9698,1.4854,1.5832,1.5832,1.5832,1.5832,1.5832,1.5832,1.5832,1.5832,1.5832,1.5832,1.5832,1.5832,1.5832,1.5832,1.5832,1.5832,1.5832,1.5832,1.5832,1.5832,1.5832,1.5832,1.5832,1.5832,1.6126,1.6373,1.6567,1.6967,1.8313,0.0,0.0,0.0,0.0,0.0,0.0,0.0,0.0,0.0,0.0,0.0,0.0,0.0,0.0,0.0,0.0,0.0,0.0,0.0,0.0,0.0,0.0,0.0,0.0,0.0,0.0,0.0,0.0,0.0,-0.8804,-0.8804,-0.8804,-0.8804,-0.8804,-0.903,-0.8971,-0.8405,-0.9528,-0.9377,-0.8016,-0.8877,-0.8355,-0.6719,-0.6654,-0.6297,-0.5583,-0.5589,-0.5752,-0.603,-0.6186,-0.6257,-0.6264,-0.6274,-0.6278,-0.5802,-0.172,-0.0079,-0.0,-0.0,-0.0,-0.0,-0.0,-0.0,-0.0,-0.0,-0.0,0.0539,0.2882,0.3588,0.4109,0.6462,0.7078,0.7139,0.7139,0.7139,0.718,0.7333,0.7482,0.7675,0.798,0.8038,0.9698,1.4854,1.5832,1.5832,1.5832,1.5832,1.5832,1.5832,1.5832,1.5832,1.5832,1.5832,1.5832,1.5832,1.5832,1.5832,1.5832,1.5832,1.5832,1.5832,1.5832,1.5832,1.5832,1.5832,1.5832,1.5832,1.6119,1.6266,1.6384,1.6975,1.8906,-0.3011,0.0,0.0,0.0,0.0,0.0,0.0,0.0,0.0,0.0,0.0,0.0,0.0,0.0,0.0,0.0,0.0,0.0,0.0,0.0,0.0,0.0,0.0,0.0,0.0,0.0,0.0,0.0,-0.8804,-0.8804,-0.8804,-0.8804,-0.8804,-0.8804,-0.903,-0.9105,-0.8952,-0.9741,-0.9591,-0.859,-0.8462,-0.7762,-0.6654,-0.6075,-0.5645,-0.543,-0.5542,-0.5637,-0.5732,-0.5989,-0.6159,-0.6338,-0.6264,-0.6271,-0.6119,-0.5012,-0.2592,-0.0,-0.0,-0.0,-0.0,-0.0,-0.0,-0.0,-0.0,-0.0,0.0539,0.2882,0.3585,0.4099,0.6523,0.7058,0.7139,0.7139,0.7139,0.7153,0.7193,0.7238,0.7421,0.794,0.8038,0.9698,1.4854,1.5832,1.5832,1.5832,1.5832,1.5832,1.5832,1.5832,1.5832,1.5832,1.5832,1.5832,1.5832,1.5832,1.5832,1.5832,1.5832,1.5832,1.5832,1.5832,1.5832,1.5832,1.5832,1.5832,1.5832,1.5912,1.6532,1.7616,1.9216,2.1105,0.0,0.0,0.0,0.0,0.0,0.0,0.0,0.0,0.0,0.0,0.0,0.0,0.0,0.0,0.0,0.0,0.0,0.0,0.0,0.0,0.0,0.0,0.0,0.0,0.0,0.0,0.0,-0.8804,-0.8804,-0.8804,-0.8804,-0.8804,-0.8804,-0.8804,-0.8971,-0.9064,-0.9183,-0.9285,-0.9141,-0.8795,-0.7818,-0.7099,-0.6654,-0.5815,-0.5428,-0.5432,-0.5457,-0.5532,-0.5606,-0.584,-0.6023,-0.6169,-0.6237,-0.6264,-0.6271,-0.6278,-0.4774,-0.235,-0.0636,-0.0,-0.0,-0.0,-0.0,-0.0,-0.0,-0.0,0.027,0.1709,0.3496,0.5361,0.6707,0.7058,0.7139,0.7139,0.7139,0.7139,0.7139,0.7139,0.7244,0.7597,0.7865,0.9698,1.4854,1.5832,1.5832,1.5832,1.5832,1.5832,1.5832,1.5832,1.5832,1.5832,1.5832,1.5832,1.5832,1.5832,1.5832,1.5832,1.5832,1.5832,1.5832,1.6298,1.6386,1.5832,1.6835,1.7296,1.7296,1.6285,1.6633,1.8185,2.0523,2.2266,0.0,0.0,0.0,0.0,0.0,0.0,-0.4329,-0.4148,0.0,0.0,0.0,0.0,0.0,0.0,0.0,0.0,0.0,0.0,0.0,0.0,0.0,0.0,0.0,0.0,0.0,-0.8791,-0.8804,-0.8804,-0.8804,-0.8804,-0.8804,-0.8804,-0.8804,-0.8804,-0.8804,-0.8931,-0.9137,-0.8546,-0.8334,-0.8586,-0.7106,-0.6472,-0.6494,-0.5741,-0.5428,-0.5428,-0.5428,-0.544,-0.5576,-0.5718,-0.5878,-0.6044,-0.62,-0.6338,-0.6264,-0.6274,-0.6278,-0.5802,-0.2033,-0.0397,-0.0,-0.0,-0.0,-0.0,-0.0,-0.0,-0.0,-0.0,0.3227,0.6735,0.6999,0.7068,0.7139,0.7139,0.7139,0.7139,0.7139,0.7139,0.716,0.7227,0.7672,0.9505,1.4172,1.5439,1.5832,1.5832,1.5832,1.5832,1.5832,1.5832,1.5832,1.5832,1.5832,1.5832,1.5832,1.5832,1.5832,1.5832,1.5832,1.5832,1.5832,1.7037,1.7131,1.5825,1.8126,1.9405,1.9497,1.739,1.7094,1.8552,2.1234,2.2777,0.0,0.0,0.0,0.0,0.0,0.0,0.0,-0.3854,0.0,0.0,0.0,0.0,0.0,0.0,0.0,0.0,0.0,0.0,0.0,0.0,0.0,0.0,0.0,0.0,0.0,-0.8671,-0.8804,-0.8804,-0.8804,-0.8804,-0.8804,-0.8804,-0.8804,-0.8804,-0.8804,-0.8838,-0.8891,-0.8398,-0.7869,-0.7265,-0.6664,-0.6026,-0.5431,-0.5436,-0.5428,-0.5428,-0.5428,-0.5446,-0.5416,-0.5569,-0.5789,-0.6044,-0.62,-0.6338,-0.6338,-0.6264,-0.6271,-0.62,-0.5338,-0.2827,-0.0,-0.0,-0.0,-0.0,-0.0,-0.0,-0.0,-0.0,0.2055,0.4736,0.6631,0.7068,0.7139,0.7139,0.7139,0.7139,0.7139,0.7139,0.7282,0.777,0.7957,0.8333,0.9308,1.3,1.5832,1.5832,1.5832,1.5832,1.5832,1.5832,1.5832,1.5832,1.5832,1.5832,1.5832,1.5832,1.5832,1.5832,1.5832,1.5832,1.5832,1.7037,1.7131,1.5825,1.7311,1.8503,1.9497,2.0025,2.0594,2.1278,2.1728,2.2907,0.0,0.0,0.0,-0.504,0.0,0.0,0.0,0.0,0.0,0.0,0.0,0.0,0.0,0.0,0.0,0.0,0.0,0.0,0.0,0.0,0.0,0.0,0.0,0.0,0.0,-0.8417,-0.8651,-0.8798,-0.8804,-0.8804,-0.8804,-0.8804,-0.8804,-0.8804,-0.8804,-0.8646,-0.8262,-0.7689,-0.7027,-0.634,-0.5787,-0.5417,-0.5131,-0.5209,-0.5287,-0.5428,-0.5428,-0.5428,-0.5439,-0.5528,-0.5677,-0.5833,-0.6057,-0.6193,-0.6338,-0.6338,-0.6264,-0.6271,-0.6291,-0.4231,-0.141,-0.0318,-0.0,-0.0,-0.0,-0.0,-0.0,-0.0,0.0895,0.259,0.6186,0.7081,0.7064,0.7143,0.7139,0.7139,0.7139,0.7139,0.7275,0.7733,0.7858,0.7923,0.8021,1.0186,1.2807,1.5439,1.5832,1.5832,1.5832,1.5832,1.5832,1.5832,1.5832,1.5832,1.5832,1.5832,1.5832,1.5832,1.5832,1.5832,1.5832,1.7584,1.8856,1.9397,1.9488,2.0133,2.1311,2.1943,2.2054,2.1708,2.2481,2.3366,0.0,0.0,0.0,0.0,0.0,-0.5018,0.0,0.0,0.0,0.0,0.0,0.0,0.0,0.0,0.0,0.0,0.0,0.0,0.0,0.0,0.0,0.0,0.0,0.0,0.0,-0.7778,-0.8134,-0.8528,-0.8404,-0.841,-0.858,-0.848,-0.8374,-0.8374,-0.8374,-0.8103,-0.7509,-0.6745,-0.6179,-0.5718,-0.5016,-0.4816,-0.5047,-0.5104,-0.5199,-0.5318,-0.5415,-0.5428,-0.5435,-0.5494,-0.5562,-0.562,-0.5915,-0.6105,-0.622,-0.6251,-0.6338,-0.6264,-0.6285,-0.4857,-0.2734,-0.0705,-0.0,-0.0,-0.0,-0.0,-0.0,-0.0,-0.0,0.0983,0.5285,0.6729,0.7081,0.7058,0.7139,0.7139,0.7139,0.7139,0.7224,0.7512,0.7648,0.7784,0.8001,0.8233,1.0186,1.5051,1.5832,1.5832,1.5832,1.5832,1.5832,1.5832,1.5832,1.5832,1.5832,1.5832,1.5832,1.5832,1.5832,1.5832,1.5832,1.794,2.0404,2.3047,2.1933,2.1845,2.3135,2.3135,2.2589,2.1667,2.3032,2.3711,0.0,0.0,0.0,0.0,-0.5786,0.0,0.0,0.0,0.0,0.0,0.0,0.0,0.0,0.0,0.0,0.0,0.0,0.0,0.0,0.0,0.0,0.0,0.0,0.0,0.0,0.0,-0.6796,-0.7577,-0.7038,-0.6989,-0.7794,-0.7182,-0.6858,-0.6858,-0.6858,-0.6804,-0.675,-0.5982,-0.5605,-0.5521,-0.4962,-0.4707,-0.4748,-0.5009,-0.5138,-0.5165,-0.5301,-0.5428,-0.5428,-0.5449,-0.5467,-0.562,-0.5915,-0.604,-0.6071,-0.621,-0.6338,-0.6264,-0.6278,-0.4929,-0.2733,-0.0704,-0.0,-0.0,-0.0,-0.0,-0.0,-0.0,-0.0,0.0626,0.3303,0.5547,0.7081,0.7058,0.7139,0.7139,0.7139,0.7139,0.7204,0.7417,0.7543,0.7706,0.7991,0.9308,1.1546,1.5242,1.5832,1.5832,1.5832,1.5832,1.5832,1.5832,1.5832,1.5832,1.5832,1.5832,1.5832,1.5832,1.5832,1.5832,1.5832,1.7124,1.9505,2.3047,2.1933,2.1845,2.3135,2.3135,2.3047,2.2862,2.3096,2.3418,0.0,0.0,0.0,0.0,0.0,0.0,0.0,0.0,-0.5013,0.0,0.0,0.0,0.0,0.0,0.0,0.0,0.0,0.0,0.0,0.0,0.0,0.0,0.0,0.0,0.0,0.0,0.0,0.0,0.0,-0.625,-0.693,-0.6655,-0.6506,-0.6583,-0.6588,-0.6367,-0.5982,-0.5651,-0.5328,-0.4897,-0.4692,-0.4606,-0.4697,-0.4911,-0.5053,-0.5138,-0.5294,-0.5428,-0.5428,-0.5428,-0.5399,-0.5481,-0.5691,-0.5878,-0.6037,-0.6101,-0.6183,-0.6264,-0.6274,-0.5721,-0.438,-0.1095,-0.0,-0.0,-0.0,-0.0,-0.0,-0.0,-0.0,0.0538,0.2948,0.5369,0.7088,0.7058,0.7139,0.7139,0.7139,0.7139,0.72,0.74,0.8069,0.8777,0.9022,0.9922,1.1448,1.3878,1.5146,1.5832,1.5832,1.5832,1.5832,1.5832,1.5832,1.5832,1.5832,1.5832,1.5832,1.5832,1.5832,1.6109,1.685,1.8133,1.977,2.2031,2.2217,2.258,2.3135,2.3135,2.3135,2.3135,2.3135,2.3242,-0.5101,0.0,0.0,0.0,0.0,0.0,0.0,0.0,0.0,0.0,0.0,0.0,0.0,0.0,0.0,0.0,0.0,0.0,0.0,0.0,0.0,0.0,0.0,0.0,0.0,0.0,0.0,0.0,0.0,0.0,-0.6054,-0.5892,-0.5886,-0.6036,-0.6046,-0.5769,-0.5218,-0.5218,-0.5003,-0.4519,-0.4519,-0.4577,-0.4633,-0.4785,-0.4935,-0.5081,-0.5233,-0.5321,-0.5428,-0.5428,-0.5428,-0.5439,-0.5484,-0.5708,-0.5973,-0.6013,-0.6129,-0.6264,-0.6271,-0.6278,-0.5569,-0.1408,-0.0,-0.0,-0.0,-0.0,-0.0,-0.0,-0.0,0.0539,0.2948,0.5371,0.7094,0.7061,0.7139,0.7139,0.7139,0.7139,0.7183,0.7329,0.8444,0.9322,0.9234,1.0504,1.1935,1.3006,1.4657,1.5832,1.5832,1.5832,1.5832,1.5832,1.5832,1.5832,1.5832,1.5832,1.5832,1.5832,1.5832,1.648,1.8141,1.9039,2.0215,2.1756,2.2677,2.3135,2.3135,2.3135,2.3135,2.3135,2.3135,2.3135,0.0,0.0,0.0,-0.4256,0.0,0.0,0.0,0.0,-0.5132,0.0,0.0,0.0,0.0,0.0,0.0,0.0,0.0,0.0,0.0,0.0,0.0,0.0,0.0,0.0,0.0,0.0,0.0,0.0,0.0,0.0,-0.5272,-0.4658,-0.4367,-0.4567,-0.457,-0.4574,-0.4515,-0.4515,-0.4515,-0.4519,-0.4519,-0.4519,-0.4529,-0.4626,-0.4782,-0.4935,-0.5077,-0.5223,-0.5428,-0.5428,-0.5428,-0.5428,-0.5432,-0.5549,-0.5827,-0.5976,-0.6129,-0.6338,-0.6338,-0.6278,-0.5578,-0.1409,-0.0,-0.0,-0.0,-0.0,-0.0,-0.0,-0.0,0.0539,0.2948,0.5371,0.7094,0.7061,0.7139,0.7139,0.7139,0.7139,0.7143,0.7149,0.8154,0.8774,0.7858,1.1082,1.368,1.3295,1.4657,1.5832,1.5832,1.5832,1.5832,1.5832,1.5832,1.5832,1.5832,1.5832,1.5832,1.5832,1.5832,1.6936,1.9314,1.9497,2.0584,2.296,2.3047,2.3135,2.3135,2.3135,2.3135,2.3135,2.3135,2.3135,0.0,0.0,-0.4123,-0.3816,0.0,0.0,0.0,0.0,0.0,0.0,0.0,0.0,0.0,0.0,0.0,0.0,0.0,0.0,0.0,0.0,0.0,0.0,0.0,0.0,0.0,0.0,0.0,0.0,0.0,0.0,0.0,-0.4195,-0.4209,-0.4512,-0.4519,-0.4519,-0.4519,-0.4519,-0.4519,-0.4519,-0.4519,-0.4519,-0.4522,-0.4619,-0.4775,-0.4925,-0.5067,-0.5216,-0.5428,-0.5428,-0.5428,-0.5428,-0.5428,-0.5484,-0.5681,-0.5823,-0.604,-0.6338,-0.6338,-0.6278,-0.5817,-0.2971,-0.1096,-0.0,-0.0,-0.0,-0.0,-0.0,-0.0,0.0539,0.2948,0.5371,0.7094,0.7061,0.7139,0.7139,0.7139,0.7139,0.7139,0.7139,0.8941,1.0386,1.0228,1.2834,1.4264,1.2598,1.4274,1.5832,1.5832,1.5832,1.5832,1.5832,1.5832,1.5832,1.5832,1.5832,1.6204,1.7037,1.6292,1.6567,1.8234,1.9039,1.9861,2.0674,2.2315,2.3135,2.3135,2.3135,2.3135,2.3135,2.3135,2.3135,-0.2272,-0.3118,0.0,-0.3636,-0.3652,0.0,-0.3355,0.0,0.0,0.0,0.0,0.0,0.0,0.0,0.0,0.0,0.0,0.0,0.0,0.0,0.0,0.0,0.0,0.0,0.0,0.0,-0.2639,-0.2943,0.0,0.0,0.0,0.0,-0.4134,-0.4379,-0.4491,-0.4519,-0.4519,-0.4519,-0.4519,-0.4519,-0.4519,-0.4519,-0.4522,-0.4565,-0.4721,-0.489,-0.4992,-0.5202,-0.5428,-0.5428,-0.5428,-0.5428,-0.5428,-0.5454,-0.5606,-0.5749,-0.5996,-0.6338,-0.6338,-0.6278,-0.5973,-0.383,-0.1721,-0.0,-0.0,-0.0,-0.0,-0.0,-0.0,0.0539,0.2948,0.5371,0.7094,0.7061,0.7139,0.7139,0.7139,0.7139,0.7139,0.7139,0.9151,1.0894,1.0658,1.3185,1.4804,1.3448,1.4758,1.5832,1.5832,1.5832,1.5832,1.5832,1.5832,1.5832,1.5832,1.5832,1.6109,1.6943,1.6669,1.685,1.7692,1.9314,2.0124,2.0124,2.2129,2.3135,2.3135,2.3135,2.3135,2.3135,2.3135,2.3135]},{"header":{"parameterUnit":"m.s-1","parameterCategory":1,"la1":30.6,"la2":29.2853,"lo1":-89.7004,"lo2":-87.6739,"dy":0.0162,"dx":0.0183,"nx":112,"ny":82,"refTime":"2025-07-03T00:00:00:Z","depth":0,"parameterNumber":3,"parameterNumberName":"V-component_of_WINDS"},"data":[0.0,0.0,0.0,0.0,0.0,0.0,0.0,0.0,0.0,0.0,0.0,0.0,0.0,0.0,0.0,0.0,0.0,0.0,0.0,0.0,0.0,0.0,0.0,0.0,0.0,0.0,0.0,0.0,0.0,0.0,0.0,0.0,0.0,0.0,0.0,0.0,0.0,0.0,0.0,0.0,0.0,0.0,0.0,0.0,0.0,0.0,0.0,0.0,0.0,0.0,0.0,0.0,0.0,0.0,0.0,0.0,0.0,0.0,0.0,0.0,0.0,0.0,0.0,0.0,0.0,0.0,0.0,0.0,0.0,0.0,0.0,0.0,0.0,0.0,0.0,0.0,0.0,0.0,0.0,0.0,0.0,0.0,0.0,0.0,0.0,0.0,0.0,0.0,0.0,0.0,0.0,-0.4933,-0.5337,-0.5883,-0.6526,-0.7345,-0.7575,-0.7127,0.0,0.0,0.0,0.0,0.0,0.0,0.0,0.0,0.0,0.0,0.0,0.0,0.0,0.0,0.0,0.0,0.0,0.0,0.0,0.0,0.0,0.0,0.0,0.0,0.0,0.0,0.0,0.0,0.0,0.0,0.0,0.0,0.0,0.0,0.0,0.0,0.0,0.0,0.0,0.0,0.0,0.0,0.0,0.0,0.0,0.0,0.0,0.0,0.0,0.0,0.0,0.0,0.0,0.0,0.0,0.0,0.0,0.0,0.0,0.0,0.0,0.0,0.0,0.0,0.0,0.0,0.0,0.0,0.0,0.0,0.0,0.0,0.0,0.0,0.0,0.0,0.0,0.0,0.0,0.0,0.0,0.0,0.0,0.0,0.0,0.0,0.0,0.0,0.0,0.0,0.0,0.0,0.0,0.0,0.0,0.0,0.0,0.0,0.0,0.0,0.0,0.0,0.0,0.0,-0.5895,-0.662,-0.6589,-0.6711,-0.7274,-0.8406,-0.8608,-0.752,0.0,0.0,0.0,0.0,0.0,0.0,0.0,0.0,0.0,0.0,0.0,0.0,0.0,0.0,0.0,0.0,0.0,0.0,0.0,0.0,0.0,0.0,0.0,0.0,0.0,0.0,0.0,0.0,0.0,0.0,0.0,0.0,0.0,0.0,0.0,0.0,0.0,0.0,0.0,0.0,0.0,0.0,0.0,0.0,0.0,0.0,0.0,0.0,0.0,0.0,0.0,0.0,0.0,0.0,0.0,0.0,0.0,0.0,0.0,0.0,0.0,0.0,0.0,0.0,0.0,0.0,0.0,0.0,0.0,0.0,0.0,0.0,0.0,0.0,0.0,0.0,0.0,0.0,0.0,0.0,0.0,0.0,0.0,0.0,0.0,0.0,0.0,0.0,0.0,0.0,0.0,0.0,0.0,0.0,0.0,0.0,0.0,0.0,0.0,0.0,0.0,0.0,0.0,-0.6163,-0.675,-0.7703,-0.7568,-0.7609,-0.8135,-0.8961,-0.902,-0.8212,-0.7273,0.0,0.0,0.0,0.0,0.0,0.0,0.0,0.0,0.0,0.0,0.0,0.0,0.0,0.0,0.0,0.0,0.0,0.0,0.0,0.0,0.0,0.0,0.0,0.0,0.0,0.0,0.0,0.0,0.0,0.0,0.0,0.0,0.0,0.0,0.0,0.0,0.0,0.0,0.0,0.0,0.0,0.0,0.0,0.0,0.0,0.0,0.0,0.0,0.0,0.0,0.0,0.0,0.0,0.0,0.0,0.0,0.0,0.0,0.0,0.0,0.0,0.0,0.0,0.0,0.0,0.0,0.0,0.0,0.0,0.0,0.0,0.0,0.0,0.0,0.0,0.0,0.0,0.0,0.0,0.0,0.0,0.0,0.0,0.0,0.0,0.0,0.0,0.0,0.0,0.0,0.0,0.0,0.0,0.0,0.0,0.0,0.0,0.0,0.0,0.0,0.0,0.0,-0.7885,-0.8074,-0.8798,-0.8668,-0.8598,-0.867,-0.9163,-0.9166,-0.8472,-0.7594,0.0,0.0,0.0,0.0,0.0,0.0,0.0,0.0,0.0,0.0,0.0,0.0,0.0,0.0,0.0,0.0,0.0,0.0,0.0,0.0,0.0,0.0,0.0,0.0,0.0,0.0,0.0,0.0,0.0,0.0,0.0,0.0,0.0,0.0,0.0,0.0,0.0,0.0,0.0,0.0,0.0,0.0,0.0,0.0,0.0,0.0,0.0,0.0,0.0,0.0,0.0,0.0,0.0,0.0,0.0,0.0,0.0,0.0,0.0,0.0,0.0,0.0,0.0,0.0,0.0,0.0,0.0,0.0,0.0,0.0,0.0,0.0,0.0,0.0,0.0,0.0,0.0,0.0,0.0,0.0,0.0,0.0,0.0,0.0,0.0,0.0,0.0,0.0,0.0,0.0,0.0,0.0,0.0,0.0,0.0,0.0,0.0,0.0,0.0,0.0,0.0,0.0,-0.9475,-1.0183,-1.0179,-1.0275,-0.9829,-0.854,-0.9255,-0.9148,-0.7684,-0.7054,0.0,0.0,0.0,0.0,0.0,0.0,0.0,0.0,0.0,0.0,0.0,0.0,0.0,0.0,0.0,0.0,0.0,0.0,0.0,0.0,0.0,0.0,0.0,0.0,0.0,0.0,0.0,0.0,0.0,0.0,0.0,0.0,0.0,0.0,0.0,0.0,0.0,0.0,0.0,0.0,0.0,0.0,0.0,0.0,0.0,0.0,0.0,0.0,0.0,0.0,0.0,0.0,0.0,0.0,0.0,0.0,0.0,0.0,0.0,0.0,0.0,0.0,0.0,0.0,0.0,0.0,0.0,0.0,0.0,0.0,0.0,0.0,0.0,0.0,0.0,0.0,0.0,0.0,0.0,0.0,0.0,0.0,0.0,0.0,0.0,0.0,0.0,0.0,0.0,0.0,0.0,0.0,0.0,0.0,0.0,0.0,0.0,0.0,0.0,0.0,0.0,0.0,-1.1606,-1.2824,0.0,-1.2387,-1.1916,-1.0672,-1.1399,-1.0865,-0.8423,0.0,0.0,0.0,0.0,0.0,0.0,0.0,0.0,0.0,0.0,0.0,0.0,0.0,0.0,0.0,0.0,0.0,0.0,0.0,0.0,0.0,0.0,0.0,0.0,0.0,0.0,0.0,0.0,0.0,0.0,0.0,0.0,0.0,0.0,0.0,0.0,0.0,0.0,0.0,0.0,0.0,0.0,0.0,0.0,0.0,0.0,0.0,0.0,0.0,0.0,0.0,0.0,0.0,0.0,0.0,0.0,0.0,0.0,0.0,0.0,0.0,0.0,0.0,0.0,0.0,0.0,0.0,0.0,0.0,0.0,0.0,0.0,0.0,0.0,0.0,0.0,0.0,0.0,0.0,0.0,0.0,0.0,0.0,0.0,0.0,0.0,0.0,0.0,0.0,0.0,0.0,0.0,0.0,0.0,0.0,0.0,0.0,0.0,0.0,0.0,0.0,0.0,-1.1249,-1.4361,-1.602,0.0,-1.4722,-1.4128,-1.2633,-1.2749,-1.1798,-0.9301,0.0,0.0,0.0,0.0,0.0,0.0,0.0,0.0,0.0,0.0,0.0,0.0,0.0,0.0,0.0,0.0,0.0,0.0,0.0,0.0,0.0,0.0,0.0,0.0,0.0,0.0,0.0,0.0,0.0,0.0,0.0,0.0,0.0,0.0,0.0,0.0,0.0,0.0,0.0,0.0,0.0,0.0,0.0,0.0,0.0,0.0,0.0,0.0,0.0,0.0,0.0,0.0,0.0,0.0,0.0,0.0,0.0,0.0,0.0,0.0,0.0,0.0,0.0,0.0,0.0,0.0,0.0,0.0,0.0,0.0,0.0,0.0,0.0,0.0,0.0,0.0,0.0,0.0,0.0,0.0,0.0,0.0,0.0,0.0,0.0,0.0,0.0,0.0,0.0,0.0,0.0,0.0,0.0,0.0,0.0,0.0,0.0,0.0,0.0,0.0,0.0,0.0,-1.344,-1.7756,-1.9857,-1.7568,-1.734,-1.6373,-1.4136,-1.2888,-1.1657,0.0,0.0,0.0,0.0,0.0,0.0,0.0,0.0,0.0,0.0,0.0,0.0,0.0,0.0,0.0,0.0,0.0,0.0,0.0,0.0,0.0,0.0,0.0,0.0,0.0,0.0,0.0,0.0,0.0,0.0,0.0,0.0,0.0,0.0,0.0,0.0,0.0,0.0,0.0,0.0,0.0,0.0,0.0,0.0,0.0,0.0,0.0,0.0,0.0,0.0,0.0,0.0,0.0,0.0,0.0,0.0,0.0,0.0,0.0,0.0,0.0,0.0,0.0,0.0,0.0,0.0,0.0,0.0,0.0,0.0,0.0,0.0,0.0,0.0,0.0,0.0,0.0,0.0,0.0,0.0,0.0,0.0,0.0,0.0,0.0,0.0,0.0,0.0,0.0,0.0,0.0,0.0,0.0,0.0,0.0,0.0,0.0,0.0,0.0,0.0,0.0,0.0,0.0,-1.4985,-1.919,-2.1432,-1.989,-1.899,-1.7847,-1.6272,-1.5533,-1.4134,-1.1726,0.0,0.0,0.0,0.0,0.0,0.0,0.0,0.0,0.0,0.0,0.0,0.0,0.0,0.0,0.0,0.0,0.0,0.0,0.0,0.0,0.0,0.0,0.0,0.0,0.0,0.0,0.0,0.0,0.0,0.0,0.0,0.0,0.0,0.0,0.0,0.0,0.0,0.0,0.0,0.0,0.0,0.0,0.0,0.0,0.0,0.0,0.0,0.0,0.0,0.0,0.0,0.0,0.0,0.0,0.0,0.0,0.0,0.0,0.0,0.0,0.0,0.0,0.0,0.0,0.0,0.0,0.0,0.0,0.0,0.0,0.0,0.0,0.0,0.0,0.0,0.0,0.0,0.0,0.0,0.0,0.0,0.0,0.0,0.0,0.0,0.0,0.0,0.0,0.0,0.0,0.0,0.0,0.0,0.0,0.0,0.0,0.0,0.0,0.0,0.0,0.0,0.0,-1.6114,-2.0792,-2.339,-2.1906,-2.1048,-2.002,-1.8668,-1.7652,-1.6178,-1.4062,0.0,0.0,0.0,0.0,0.0,0.0,0.0,0.0,0.0,0.0,0.0,0.0,0.0,0.0,0.0,0.0,0.0,0.0,0.0,0.0,0.0,0.0,0.0,0.0,0.0,0.0,0.0,0.0,0.0,0.0,0.0,0.0,0.0,0.0,0.0,0.0,0.0,0.0,0.0,0.0,0.0,0.0,0.0,0.0,0.0,0.0,0.0,0.0,0.0,0.0,0.0,0.0,0.0,0.0,0.0,0.0,0.0,0.0,0.0,0.0,0.0,0.0,0.0,0.0,0.0,0.0,0.0,0.0,0.0,0.0,0.0,0.0,0.0,0.0,0.0,0.0,0.0,0.0,0.0,0.0,0.0,0.0,0.0,0.0,0.0,0.0,0.0,0.0,0.0,0.0,0.0,0.0,0.0,0.0,0.0,0.0,0.0,0.0,0.0,0.0,0.0,0.0,-1.714,-2.2406,-2.5367,-2.3782,-2.3275,-2.2469,-2.1024,-1.929,-1.7796,-1.6739,0.0,0.0,0.0,0.0,0.0,0.0,0.0,0.0,0.0,0.0,0.0,0.0,0.0,0.0,0.0,0.0,0.0,0.0,0.0,0.0,0.0,0.0,0.0,0.0,0.0,0.0,0.0,0.0,0.0,0.0,0.0,0.0,0.0,0.0,0.0,0.0,0.0,0.0,0.0,0.0,0.0,0.0,0.0,0.0,0.0,0.0,0.0,0.0,0.0,0.0,0.0,0.0,0.0,0.0,0.0,0.0,0.0,0.0,0.0,0.0,-0.3698,0.0,0.0,0.0,0.0,0.0,0.0,0.0,0.0,0.0,0.0,0.0,0.0,0.0,0.0,0.0,0.0,0.0,0.0,0.0,0.0,0.0,0.0,0.0,0.0,0.0,0.0,0.0,0.0,0.0,0.0,0.0,0.0,0.0,0.0,0.0,0.0,0.0,0.0,0.0,0.0,0.0,-1.9486,-2.3471,-2.5958,-2.5817,-2.4408,-2.3194,-2.2489,-2.0491,-1.8882,-1.7882,-1.644,0.0,0.0,0.0,0.0,0.0,0.0,0.0,0.0,0.0,0.0,0.0,0.0,0.0,0.0,0.0,0.0,0.0,0.0,0.0,0.0,0.0,0.0,0.0,0.0,0.0,0.0,0.0,0.0,0.0,0.0,0.0,0.0,0.0,0.0,0.0,0.0,0.0,0.0,0.0,0.0,0.0,0.0,0.0,0.0,0.0,0.0,0.0,0.0,0.0,0.0,0.0,0.0,0.0,0.0,0.0,0.0,0.0,0.0,0.0,0.0,-0.6772,0.0,0.0,0.0,0.0,0.0,0.0,0.0,0.0,0.0,0.0,0.0,0.0,0.0,0.0,0.0,0.0,0.0,0.0,0.0,0.0,0.0,0.0,0.0,0.0,0.0,0.0,0.0,0.0,0.0,0.0,0.0,0.0,0.0,0.0,0.0,0.0,0.0,0.0,0.0,0.0,-2.0301,-2.4064,-2.6593,-2.7001,-2.5941,-2.4901,-2.4105,-2.2247,-2.0718,-1.9837,-1.8426,0.0,0.0,0.0,0.0,0.0,0.0,0.0,0.0,0.0,0.0,0.0,0.0,0.0,0.0,0.0,0.0,0.0,0.0,0.0,0.0,0.0,0.0,0.0,0.0,0.0,0.0,0.0,0.0,0.0,0.0,0.0,0.0,0.0,0.0,0.0,0.0,0.0,0.0,0.0,0.0,0.0,0.0,0.0,0.0,0.0,0.0,0.0,0.0,0.0,0.0,0.0,0.0,0.0,-1.8091,-1.9427,-2.1105,-2.292,-2.3642,-2.3138,-1.7637,-1.4856,-1.4092,0.0,0.0,0.0,0.0,0.0,0.0,0.0,0.0,0.0,0.0,0.0,0.0,0.0,0.0,0.0,0.0,0.0,0.0,0.0,0.0,0.0,0.0,0.0,0.0,0.0,-2.2039,-2.1259,0.0,0.0,0.0,0.0,0.0,0.0,0.0,0.0,0.0,0.0,0.0,0.0,-2.117,-2.4797,-2.7344,-2.7906,-2.749,-2.6781,-2.5799,-2.4009,-2.2647,-2.1982,-2.0522,-1.9328,0.0,0.0,0.0,0.0,0.0,0.0,0.0,0.0,0.0,0.0,0.0,0.0,0.0,0.0,0.0,0.0,0.0,0.0,0.0,0.0,0.0,0.0,0.0,0.0,0.0,0.0,0.0,0.0,0.0,0.0,0.0,0.0,-0.6781,-0.795,0.0,0.0,0.0,0.0,0.0,0.0,0.0,0.0,0.0,0.0,0.0,0.0,0.0,0.0,-2.2658,-2.2334,-2.2096,-2.2034,-2.371,-2.4675,-2.4955,-2.6903,-2.7488,-2.6929,-2.6672,0.0,-1.9194,-1.996,0.0,0.0,0.0,0.0,0.0,0.0,0.0,0.0,0.0,0.0,0.0,0.0,0.0,0.0,0.0,0.0,0.0,0.0,0.0,0.0,0.0,0.0,-2.4668,-2.5731,-2.647,-2.6766,0.0,-2.2218,-1.8567,-1.7371,-1.6537,0.0,0.0,0.0,0.0,0.0,0.0,0.0,-2.4296,-2.658,-2.8334,-2.9325,-2.8503,-2.773,-2.7402,-2.5231,-2.3857,-2.368,-2.1854,-2.0776,-2.0793,-1.9478,0.0,0.0,0.0,0.0,0.0,0.0,0.0,0.0,0.0,0.0,0.0,0.0,0.0,0.0,0.0,0.0,0.0,0.0,0.0,0.0,0.0,0.0,0.0,0.0,0.0,0.0,0.0,0.0,0.0,-0.6776,-0.8347,-0.9651,-0.9831,-0.9907,0.0,0.0,0.0,0.0,0.0,0.0,0.0,0.0,0.0,-2.0927,-2.3006,-2.434,-2.483,-2.6263,-2.6484,-2.5553,-2.6864,-2.8384,-3.0101,-3.0704,-3.0844,-3.0648,-3.0781,-2.9202,-2.6437,-2.4712,-2.3997,-2.3887,0.0,0.0,0.0,0.0,-2.2645,-2.3332,-2.436,-2.4967,0.0,0.0,0.0,0.0,0.0,0.0,0.0,0.0,0.0,0.0,0.0,0.0,0.0,-2.9554,-2.953,-2.9502,-3.0399,-2.8895,-2.6418,0.0,-2.2256,-2.104,-1.8505,0.0,0.0,0.0,0.0,0.0,-2.5837,-2.7539,-2.8871,-2.9869,-2.9474,-2.8947,-2.8458,-2.7002,-2.5919,-2.5433,-2.4068,-2.3158,-2.2796,-2.1513,-1.9992,0.0,0.0,0.0,0.0,0.0,0.0,0.0,0.0,0.0,0.0,0.0,0.0,0.0,0.0,0.0,0.0,0.0,0.0,0.0,0.0,0.0,0.0,0.0,0.0,0.0,0.0,0.0,0.0,-0.8266,-0.9939,-1.1637,-1.234,-1.2755,0.0,0.0,0.0,0.0,0.0,0.0,-1.5997,-1.8511,-2.0502,-2.1808,-2.4615,-2.6248,-2.6632,-2.8888,-2.9388,-2.8113,-2.8946,-3.0643,-3.3063,-3.3016,-3.3156,-3.3373,-3.3328,-3.2941,-3.2087,-2.8523,-2.7084,-2.7054,-2.5997,-2.5709,-2.5965,-2.6201,-2.6903,-2.7764,-2.811,-2.8688,-2.9468,-3.0532,0.0,-3.2939,-3.0935,0.0,0.0,0.0,0.0,-2.9645,-3.0501,-3.0776,-3.1151,-3.2416,-3.208,-3.1846,-3.3119,-3.3417,-3.2279,0.0,-2.7285,-2.6105,-2.3363,0.0,0.0,0.0,0.0,-2.5211,-2.7137,-2.8415,-2.9456,-3.02,-3.0188,-2.9921,-2.9344,-2.8454,-2.7596,-2.6843,-2.59,-2.4962,-2.4041,-2.3189,-2.1881,-2.0114,0.0,0.0,0.0,0.0,0.0,0.0,0.0,0.0,0.0,0.0,0.0,0.0,0.0,0.0,0.0,0.0,0.0,0.0,0.0,0.0,0.0,0.0,0.0,0.0,0.0,0.0,0.0,0.0,0.0,-1.432,-1.5337,0.0,0.0,0.0,0.0,-1.6589,-1.7523,-1.8861,-2.0603,-2.2442,-2.432,-2.6231,-2.7661,-2.8757,-2.937,-2.9574,-2.9604,-2.952,-3.0133,-3.0845,-3.163,-3.2976,-3.3892,-3.4445,-3.5155,-3.5053,-3.4172,-3.1446,-2.9583,-2.8367,-2.7855,-2.9336,-3.17,-3.1073,-3.1977,-3.3478,-3.3443,-3.3996,-3.4835,-3.5677,-3.5362,-3.4453,-3.3053,-3.1184,0.0,0.0,-2.9735,-3.0226,-3.2157,-3.2887,-3.3294,-3.3948,-3.4292,-3.4564,-3.4905,-3.4352,-3.3178,0.0,-3.0127,-2.9212,-2.7959,0.0,-2.6522,-2.6522,-2.7232,-2.799,-2.8613,-2.9531,-3.0219,-3.047,-3.0482,-3.0375,-3.016,-2.9102,-2.8239,-2.7677,-2.6645,-2.5433,-2.4068,-2.3944,-2.303,-2.116,-2.0255,0.0,0.0,0.0,0.0,0.0,0.0,0.0,0.0,0.0,0.0,0.0,0.0,0.0,0.0,0.0,0.0,0.0,0.0,0.0,0.0,0.0,0.0,0.0,0.0,0.0,0.0,0.0,0.0,-1.6279,-1.7837,0.0,0.0,-1.9846,-2.0106,-2.0264,-2.078,-2.1497,-2.2472,-2.4382,-2.5925,-2.6975,-2.8829,-2.9939,-3.0178,-3.0612,-3.0836,-3.0851,-3.1061,-3.175,-3.2846,-3.3358,-3.4202,-3.5233,-3.5865,-3.5942,-3.5675,-3.5063,-3.3802,-3.2252,-3.293,-3.4015,-3.5214,-3.5623,-3.6102,-3.6697,-3.7759,-3.8324,-3.8501,-3.8047,-3.7674,-3.7223,-3.6405,-3.5618,-3.5021,-3.5066,-3.5085,-3.519,-3.5704,-3.5894,-3.6008,-3.6076,-3.5639,-3.5341,-3.5783,-3.5354,-3.4691,-3.4036,-3.2661,-3.1307,-3.038,-2.9918,-2.9709,-2.9744,-3.0102,-3.0638,-3.1341,-3.1801,-3.1903,-3.1443,-3.1352,-3.1099,-3.0498,-2.986,-2.9096,-2.8276,-2.7495,-2.6304,-2.4659,-2.4317,-2.3554,-2.2194,-2.1412,-2.0277,0.0,0.0,0.0,0.0,0.0,0.0,0.0,0.0,0.0,0.0,0.0,0.0,0.0,0.0,0.0,0.0,0.0,0.0,0.0,0.0,0.0,0.0,0.0,0.0,0.0,0.0,-1.5918,-1.7801,-1.9842,-2.1349,-2.1869,-2.2732,-2.3374,-2.3546,-2.3505,-2.3822,-2.4614,-2.5887,-2.6978,-2.7914,-2.9289,-3.0396,-3.118,-3.1308,-3.1633,-3.2155,-3.2155,-3.2772,-3.3953,-3.4196,-3.4855,-3.5915,-3.6525,-3.6724,-3.6724,-3.7325,-3.6809,-3.5687,-3.6422,-3.7168,-3.7888,-3.815,-3.8497,-3.9001,-4.0104,-4.0496,-4.038,-3.9634,-3.9369,-3.9311,-3.895,-3.8849,-3.8849,-3.8849,-3.883,-3.8635,-3.7775,-3.7643,-3.7624,-3.7073,-3.6486,-3.6065,-3.6146,-3.5959,-3.5685,-3.5422,-3.4093,-3.2862,-3.2422,-3.2,-3.1741,-3.1886,-3.2071,-3.2365,-3.2904,-3.307,-3.2971,-3.2419,-3.2331,-3.1967,-3.111,-3.0708,-3.0052,-2.8974,-2.8481,-2.7328,-2.5375,-2.5052,-2.4201,-2.2738,-2.2143,-2.1549,-2.1009,0.0,0.0,0.0,0.0,0.0,0.0,0.0,0.0,0.0,0.0,0.0,0.0,0.0,0.0,0.0,0.0,0.0,0.0,0.0,0.0,0.0,0.0,0.0,-1.3579,-1.556,-1.7534,-1.8975,-2.1427,-2.3186,-2.3656,-2.4911,-2.5923,-2.6491,-2.5825,-2.5907,-2.7225,-2.7077,-2.7699,-2.9229,-2.9147,-3.0202,-3.2437,-3.1714,-3.2094,-3.3522,-3.3578,-3.3969,-3.4675,-3.5432,-3.6017,-3.652,-3.729,-3.7481,-3.734,-3.8081,-3.8407,-3.8395,-3.7932,-3.863,-3.9754,-3.8675,-3.9204,-4.0489,-4.0489,-4.0489,-4.0489,-4.0489,-4.0489,-4.0489,-4.0489,-4.0485,-4.0466,-4.0466,-4.0462,-4.0038,-3.8207,-3.7962,-3.7984,-3.7007,-3.6943,-3.6911,-3.6123,-3.6153,-3.6099,-3.5288,-3.4463,-3.3963,-3.4194,-3.3325,-3.2688,-3.2942,-3.3096,0.0,-3.3179,-3.3299,-3.3369,-3.333,-3.3341,-3.2954,-3.2034,-3.1677,-3.0975,-2.9786,-2.9495,-2.8408,-2.624,-2.6162,-2.5124,-2.2885,-2.26,-2.268,-2.3112,0.0,0.0,0.0,0.0,0.0,0.0,0.0,0.0,0.0,0.0,0.0,0.0,0.0,0.0,0.0,0.0,0.0,0.0,0.0,0.0,0.0,0.0,-1.6881,-1.6886,-1.8476,-2.0328,-2.21,-2.3837,-2.5101,-2.5719,-2.6991,-2.7816,-2.8017,-2.8148,-2.8324,-2.868,-2.911,-2.9251,-2.9066,-3.069,-3.1538,-3.1562,-3.2991,-3.3974,-3.4395,-3.4912,-3.5545,-3.6207,-3.6865,-3.7478,-3.8156,-3.9424,-3.9581,-3.9021,-3.9835,-3.9827,-3.9277,-3.9287,-3.9604,-4.002,-3.9677,-3.9966,-4.0489,-4.0489,-4.0489,-4.0489,-4.0489,-4.0372,-4.0213,-4.0213,-4.0043,-3.9844,-3.9844,-3.9844,-3.9665,-3.8914,-3.879,-3.874,-3.8256,-3.7914,-3.7611,-3.7412,-3.7253,-3.6922,-3.6132,-3.5777,-3.5518,-3.5201,-3.4913,-3.4779,-3.4839,-3.493,0.0,-3.4988,-3.5102,-3.4943,-3.4314,-3.4209,-3.3802,-3.292,-3.2113,-3.1162,-3.006,-2.9357,-2.8546,-2.7598,-2.7539,-2.7086,-2.6068,-2.6002,-2.5868,0.0,0.0,0.0,0.0,0.0,0.0,0.0,0.0,0.0,0.0,0.0,0.0,0.0,0.0,0.0,0.0,0.0,0.0,0.0,0.0,0.0,0.0,-1.7291,-1.8921,-1.9929,-2.092,-2.2054,-2.343,-2.4792,-2.5869,-2.6527,-2.7814,-2.8712,-2.8996,-2.9185,-2.9448,-2.9707,-2.9995,-3.0115,-2.9932,-3.1527,-3.2587,-3.3048,-3.4373,-3.5363,-3.5991,-3.671,-3.7202,-3.7655,-3.8545,-3.9196,0.0,-4.0862,-4.1119,-4.0754,-4.1041,-4.0886,0.0,0.0,0.0,0.0,0.0,-4.0372,-4.0489,-4.0489,-4.0489,-4.0489,-4.0489,-4.0389,-4.0308,-4.052,-4.0228,-3.9873,-4.0214,-4.0063,-3.9731,-3.9389,-3.9314,-3.9223,-3.8792,-3.8453,-3.8146,-3.7813,-3.7692,-3.7463,-3.6781,-3.6463,0.0,-3.6037,-3.5676,-3.5473,-3.5589,-3.5699,-3.5779,-3.5776,-3.587,-3.5749,-3.5244,-3.5126,-3.472,-3.381,-3.3161,0.0,0.0,0.0,-2.9937,-2.9811,-2.8371,0.0,0.0,0.0,0.0,0.0,0.0,0.0,0.0,-2.4547,-2.3769,0.0,0.0,0.0,0.0,0.0,0.0,0.0,0.0,0.0,0.0,0.0,0.0,0.0,0.0,0.0,0.0,-1.903,-2.0367,-2.2491,-2.299,-2.3333,-2.3874,-2.5017,-2.6131,-2.6965,-2.8188,-2.9214,-2.9879,-2.9817,-3.0046,-3.063,0.0,0.0,0.0,0.0,-3.371,-3.5763,-3.6006,-3.6789,-3.8129,-3.8738,-3.9037,-3.9086,-4.0371,-4.105,-4.1209,-4.2009,-4.2419,-4.246,-4.2034,-4.1852,-4.1724,-4.0287,-3.9901,-4.0196,-4.0521,-4.0642,-4.0642,-4.0642,0.0,0.0,-4.0681,-4.0684,-4.0828,-4.1304,-4.0861,-4.0347,-4.1051,-4.067,-3.9982,-3.9668,-3.9576,-3.9408,-3.8873,-3.8719,-3.8505,-3.7771,-3.7859,-3.7891,-3.7325,-3.6896,-3.6647,-3.682,-3.5965,-3.5348,-3.558,-3.5785,-3.5912,-3.5912,-3.5958,-3.5996,-3.5991,0.0,0.0,-3.4691,-3.4416,-3.3857,-3.2837,-3.2203,-3.2026,-3.2456,-2.9447,-2.8134,-2.8945,-2.7496,-2.8256,-3.1389,-3.145,-3.1574,-3.1702,-2.7332,-2.6548,0.0,0.0,0.0,0.0,0.0,0.0,0.0,0.0,0.0,0.0,0.0,0.0,0.0,0.0,0.0,-1.8738,-2.1064,-2.2897,-2.337,-2.4795,-2.5821,-2.5944,-2.6641,-2.7829,-2.9579,-3.0449,-3.1241,-3.1953,-3.2499,-3.2835,-3.2977,-3.2945,0.0,-3.3666,-3.4957,-3.6075,-3.6905,-3.8706,-3.9768,-4.0092,0.0,0.0,-4.1223,-4.2264,-4.2736,-4.2812,-4.412,-4.4283,-4.3684,-4.397,-4.3613,-4.2742,-4.1127,-4.0449,-4.0518,-4.1261,-4.1546,-4.1546,-4.1546,-4.2008,-4.247,-4.1777,-4.1833,-4.2202,-4.2334,-4.1616,0.0,-4.0923,-4.0375,-3.9668,-3.9622,-3.9389,-3.9178,-3.9063,-3.8855,-3.867,-3.8505,-3.8672,-3.8719,-3.8169,-3.8211,-3.8204,-3.782,-3.6575,-3.5624,-3.5666,-3.5857,-3.5974,-3.5974,-3.5993,-3.5971,-3.592,-3.5805,-3.5641,-3.5405,-3.468,-3.4128,-3.3909,-3.3559,-3.3599,-3.4091,-3.3942,-3.3788,-3.3689,-3.3665,-3.3333,-3.2669,-3.3043,-3.3408,-3.3614,-3.1261,-3.0053,0.0,0.0,0.0,0.0,0.0,0.0,0.0,0.0,0.0,0.0,0.0,-1.4843,-1.5399,0.0,-1.8914,-2.0189,-2.193,-2.3481,-2.4405,-2.5962,-2.6991,-2.6991,-2.7556,-2.8627,-3.0332,-3.1117,-3.1823,-3.2528,-3.3249,-3.3703,-3.3957,-3.4316,-3.4904,-3.5762,-3.7242,-3.8299,-3.8914,-4.0429,-4.1112,-4.0911,-4.1813,-4.2311,-4.2497,-4.3256,-4.3819,-4.4299,-4.5003,-4.5211,-4.5074,-4.5378,-4.4694,-4.3354,-4.242,-4.1953,-4.1854,-4.2297,-4.245,-4.245,-4.245,-4.2739,-4.3028,-4.2585,-4.2633,-4.2891,-4.3116,-4.2514,-4.1838,-4.2234,-4.1437,-4.0469,-4.0469,-4.0015,-3.9552,-3.9389,-3.9249,-3.9154,-3.9154,-3.9249,-3.9325,-3.9226,-3.8973,-3.8764,-3.8674,-3.768,-3.6757,-3.6367,-3.6415,-3.6364,-3.5995,-3.6645,-3.6833,-3.5997,-3.6141,-3.6107,-3.5636,-3.5507,-3.5526,-3.5699,-3.5541,-3.5646,-3.6147,-3.6255,-3.6214,-3.6038,-3.6772,-3.684,-3.6163,-3.598,-3.6082,-3.6422,-3.4539,-3.3219,0.0,0.0,0.0,0.0,0.0,0.0,0.0,0.0,-1.4768,-1.5326,-1.6248,-1.7164,-1.7882,-1.8851,-2.0063,-2.1643,-2.2746,-2.3985,-2.5493,-2.7114,-2.817,-2.817,-2.8581,-2.9534,-3.1199,-3.1794,-3.2515,-3.343,-3.3973,-3.4444,-3.4843,-3.5423,-3.6395,-3.783,-3.903,-4.0129,-4.1148,-4.1831,-4.1961,-4.1652,-4.2472,-4.2978,-4.321,-4.3844,-4.4503,-4.5175,-4.5338,-4.5688,-4.6156,-4.6266,-4.546,-4.419,-4.3964,-4.3744,-4.3566,-4.3335,-4.3258,-4.3258,-4.3316,-4.3431,-4.3566,-4.3393,-4.3451,-4.3667,-4.4039,-4.3577,-4.3062,-4.3711,-4.2698,-4.1399,-4.1399,-4.075,-4.0022,-3.9775,-3.9645,-3.9599,-3.9599,-3.9599,-3.969,-4.0022,-3.9528,-3.9146,-3.9484,-3.8877,-3.805,-3.7252,-3.7194,-3.7037,-3.6438,-3.75,-3.7783,-3.6471,-3.6801,-3.6839,-3.6142,-3.6603,-3.7065,-3.7353,-3.7317,-3.7425,-3.7816,-3.7511,-3.7433,-3.764,-3.8497,-3.914,-3.9494,-3.8915,-3.8696,-3.8877,-3.7314,-3.6081,-1.3429,-1.4126,-1.5081,-1.6114,-1.6338,-1.6821,0.0,0.0,-1.9068,-1.9391,-2.0292,-2.0946,-2.0577,-2.1474,-2.2322,-2.2554,-2.4541,-2.6145,-2.6355,-2.8762,-3.0526,-3.0526,-3.0566,-3.1572,-3.4106,-3.4407,-3.5074,-3.6584,-3.6759,-3.6812,-3.689,-3.6946,-3.7922,-3.991,-4.0111,-4.118,-4.3177,-4.3249,-4.3303,-4.3248,-4.3356,-4.3413,-4.3497,-4.4186,-4.4607,-4.4715,-4.5496,-4.6007,-4.628,-4.6286,-4.6195,-4.5978,-4.5727,-4.549,-4.5201,-4.4182,-4.3799,-4.3855,-4.4085,-4.4662,-4.5182,-4.4412,-4.4682,-4.5336,-4.5395,-4.4801,-4.4128,-4.4224,-4.3052,-4.1745,-4.1745,-4.0937,-4.0101,-4.0042,-3.9819,-3.9599,-3.9599,-3.9599,-3.969,-4.0022,-4.0022,-4.0043,-4.0326,-3.9704,-3.89,-3.8097,-3.8074,-3.8118,-3.8045,-3.819,-3.8181,-3.7882,-3.7916,-3.7896,-3.7738,-3.781,-3.7868,-3.7911,-3.7905,-3.8003,-3.8224,-3.8196,-3.86,-3.9564,-3.9711,-3.9908,-4.0167,-4.0384,-4.017,-3.9582,-3.9624,-3.8619,-1.6074,-1.6786,0.0,0.0,-1.9189,-1.9435,-2.0948,-2.106,-2.0798,-2.0624,-2.1152,-2.1554,-2.101,-2.1595,-2.2366,0.0,-2.4729,-2.6445,-2.7711,-2.9237,-3.054,-3.1424,-3.1542,-3.2401,-3.4588,-3.4783,-3.5456,-3.7104,-3.719,-3.7323,-3.7578,-3.8044,-3.9067,-4.07,-4.1227,-4.2134,-4.3479,-4.3497,-4.3497,-4.3497,-4.3497,-4.3772,-4.4327,-4.4508,-4.4855,-4.5324,-4.5886,-4.6192,-4.6309,-4.6309,-4.6297,-4.6259,-4.5883,-4.568,-4.5528,-4.5066,-4.4893,-4.4913,-4.5009,-4.5297,-4.5528,-4.5182,-4.5297,-4.5586,-4.5586,-4.5336,-4.5047,-4.5047,-4.4182,-4.3258,-4.3258,-4.2556,-4.1719,-4.1221,-4.0978,-4.075,-4.0234,-4.0119,-4.0157,-4.0321,-4.0323,-4.0377,-4.0473,-4.0219,-3.9877,-3.955,-3.9146,-3.8708,-3.8235,-3.8992,-3.9374,-3.8849,-3.8354,-3.8238,-3.8715,-3.8753,-3.8965,-3.9431,-3.9561,-3.9686,-3.9759,-3.9891,-4.0133,-4.0598,-4.0598,-4.0866,-4.1464,-4.125,-4.1069,-4.0918,-4.0372,-3.9665,-1.8343,0.0,0.0,-2.1159,-2.1362,-2.1455,-2.259,-2.2494,-2.2039,-2.1687,-2.1823,-2.1802,-2.1224,-2.1575,-2.2273,-2.3305,-2.4963,-2.6745,-2.8612,-2.9583,-3.0682,-3.2164,-3.2242,-3.2929,-3.4821,-3.4906,-3.5538,-3.7148,-3.7274,-3.7504,-3.8099,-3.8876,-3.9847,-4.1042,-4.1882,-4.269,-4.3479,-4.3497,-4.3548,-4.3701,-4.3701,-4.4091,-4.4808,-4.4688,-4.4908,-4.5491,-4.5736,-4.5951,-4.61,-4.61,-4.6098,-4.6065,-4.5738,-4.5586,-4.5586,-4.5586,-4.5586,-4.5586,-4.5586,-4.5586,-4.5586,-4.5586,-4.5586,-4.5586,-4.5586,-4.5586,-4.5586,-4.5586,-4.497,-4.4297,-4.4297,-4.3701,-4.2931,-4.2316,-4.197,-4.1643,-4.0989,-4.0662,-4.0489,-4.0489,-4.0489,-4.0489,-4.0489,-4.0489,-4.0489,-4.0489,-3.9992,-3.9419,-3.8846,-3.9781,-4.0277,-3.9681,-3.9065,-3.895,-3.958,-3.9619,-3.9985,-4.0812,-4.092,-4.101,-4.1147,-4.1211,-4.1296,-4.1442,-4.1442,-4.1827,-4.2635,-4.2032,-4.1773,-4.1793,-4.0756,-4.0231,0.0,0.0,-2.0894,-2.1929,-2.2264,-2.2649,-2.3861,-2.3721,-2.3336,-2.3351,-2.2975,-2.2488,-2.1804,-2.2222,-2.2832,-2.3335,-2.5622,-2.7704,-2.8668,-3.0212,-3.171,-3.301,-3.2812,-3.3342,0.0,-3.5182,-3.5677,-3.7356,-3.7484,-3.7833,-3.8621,-3.946,-4.0267,-4.1075,-4.1882,-4.269,-4.3479,-4.3497,-4.3734,-4.4184,-4.4184,-4.4317,-4.4614,-4.4581,-4.4596,-4.4638,-4.4638,-4.5033,-4.562,-4.562,-4.5622,-4.5605,-4.5605,-4.5586,-4.5586,-4.5586,-4.5586,-4.5586,-4.5586,-4.5586,-4.5586,-4.5586,-4.5586,-4.5586,-4.5586,-4.5586,-4.5586,-4.5586,-4.497,-4.4297,-4.4297,-4.3701,-4.3085,-4.3066,-4.2412,-4.1797,-4.1777,-4.1104,-4.0489,-4.0489,-4.0489,-4.0489,-4.0489,-4.0489,-4.0489,-4.0489,-4.0469,-4.045,-4.0431,-4.0469,-4.0489,-4.0469,-4.0431,-4.0431,-4.045,-4.045,-4.0831,-4.1709,-4.1463,-4.1521,-4.2051,-4.173,-4.182,-4.2249,-4.2268,-4.2653,-4.3442,-4.294,-4.2364,-4.181,-4.1161,-4.0625,0.0,0.0,-2.2544,-2.3311,-2.3562,-2.3819,-2.467,-2.4366,-2.3844,-2.3844,-2.3362,-2.2836,-2.2602,-2.2758,-2.3227,-2.4193,-2.594,-2.7811,-2.9532,-3.0823,-3.1949,-3.2956,-3.3096,0.0,0.0,0.0,0.0,-3.7637,-3.7606,-3.8065,-3.9423,-4.0267,-4.1075,-4.1882,-4.2671,-4.3321,-4.3836,-4.3818,-4.4035,-4.4476,-4.4688,-4.4834,-4.4944,-4.4919,-4.4706,-4.4341,-4.4348,-4.431,-4.4273,-4.5199,-4.5609,-4.5589,-4.5609,-4.5586,-4.5586,-4.5586,-4.5586,-4.5586,-4.5586,-4.5586,-4.5586,-4.5586,-4.5586,-4.5586,-4.5586,-4.5586,-4.5586,-4.5586,-4.5393,-4.5163,-4.5163,-4.4951,-4.4605,-4.4028,-4.3662,-4.3143,-4.2047,-4.1566,-4.1181,-4.0604,-4.0489,-4.0489,-4.0489,-4.0489,-4.0489,-4.0489,-4.0489,-4.0489,-4.0489,-4.0489,-4.0489,-4.0489,-4.0489,-4.0719,-4.1316,-4.1354,-4.172,-4.2621,-4.265,-4.2711,-4.2903,-4.2872,-4.293,-4.3075,-4.3094,-4.3222,-4.3497,-4.3339,-4.2921,-4.2382,-4.1768,-4.1178,-2.358,-2.3803,-2.4041,-2.504,-2.5078,-2.5009,-2.5611,-2.5102,-2.4444,-2.4091,-2.3374,-2.2675,-2.2346,-2.2471,-2.3082,-2.4431,-2.6145,-2.8048,-3.0213,-3.1333,-3.2428,-3.3743,-3.3872,0.0,0.0,0.0,0.0,-3.7389,-3.7478,-3.8193,-3.9808,-4.0793,-4.1649,-4.2442,-4.3397,-4.4004,-4.4204,-4.4229,-4.4468,-4.487,-4.5208,-4.5282,-4.5167,-4.512,-4.4821,-4.4341,-4.4336,-4.4121,-4.3824,-4.4741,-4.5295,-4.5609,-4.559,-4.5586,-4.5586,-4.5586,-4.5586,-4.5586,-4.5586,-4.5586,-4.5586,-4.5586,-4.5586,-4.5586,-4.5586,-4.5586,-4.5586,-4.5586,-4.5586,-4.5586,-4.5586,-4.5586,-4.5451,-4.4893,-4.4528,-4.4008,-4.2931,-4.247,-4.2024,-4.112,-4.0947,-4.087,-4.0562,-4.0489,-4.0489,-4.0489,-4.0758,-4.0854,-4.0527,-4.0489,-4.0623,-4.0931,-4.095,-4.1316,-4.22,-4.2258,-4.2574,-4.3292,-4.3322,-4.3361,-4.3519,-4.3523,-4.3497,-4.3497,-4.3497,-4.3497,-4.3497,-4.3497,-4.3214,-4.2711,-4.2302,-4.1664,-2.6277,-2.5893,-2.5347,-2.6923,-2.669,-2.6193,-2.6607,-2.5981,-2.5041,-2.4049,-2.3076,-2.2081,0.0,0.0,-2.2525,-2.4133,-2.6262,-2.8451,-3.061,-3.1845,-3.329,0.0,0.0,0.0,0.0,0.0,0.0,-3.6845,0.0,-3.8283,-3.9908,-4.1059,-4.2015,-4.2853,-4.4006,-4.4624,-4.4643,-4.4737,-4.4998,-4.5439,-4.5687,-4.564,-4.5336,-4.5186,-4.4943,-4.4612,-4.4606,-4.4473,-4.4211,-4.4233,-4.4766,-4.5568,-4.5586,-4.5586,-4.5586,-4.5586,-4.5586,-4.5586,-4.5586,-4.5586,-4.5586,-4.5586,-4.5586,-4.5586,-4.5586,-4.5586,-4.5586,-4.5586,-4.5586,-4.5586,-4.5586,-4.5586,-4.5586,-4.5586,-4.497,-4.4355,-4.4316,-4.3698,-4.2906,-4.2056,-4.1882,-4.1597,-4.0793,-4.0623,-4.0623,-4.0623,-4.1335,-4.1546,-4.0681,-4.0604,-4.095,-4.1777,-4.1873,-4.222,-4.3085,-4.3162,-4.3367,-4.3847,-4.3551,-4.3559,-4.3981,-4.3695,-4.3497,-4.3497,-4.3497,-4.3497,-4.3497,-4.3497,-4.325,-4.275,-4.2711,-4.2098,-2.6561,-2.6951,-2.7203,-2.7625,-2.7572,-2.7313,-2.683,-2.6044,-2.5038,-2.3597,-2.2651,-2.1846,0.0,0.0,0.0,-2.406,-2.6328,0.0,-3.0885,-3.3136,0.0,0.0,0.0,-3.7386,-3.7986,-3.8346,0.0,0.0,-3.8291,-3.9152,-4.1421,-4.1911,-4.2763,-4.4186,-4.4605,-4.4926,-4.5198,-4.5454,-4.5653,-4.5777,-4.5844,-4.5835,-4.5757,-4.5417,-4.5208,-4.5112,-4.4749,-4.4556,-4.4524,-4.4661,-4.4851,-4.5109,-4.5456,-4.5586,-4.5586,-4.5586,-4.5586,-4.5586,-4.5586,-4.5586,-4.5586,-4.5586,-4.5586,-4.5586,-4.5586,-4.5586,-4.5586,-4.5586,-4.5586,-4.5586,-4.5586,-4.5586,-4.5586,-4.5586,-4.5432,-4.5086,-4.4432,-4.4141,-4.3756,-4.2931,-4.2777,-4.2701,-4.247,-4.2431,-4.2431,-4.2431,-4.2624,-4.245,-4.1585,-4.2047,-4.2527,-4.2739,-4.2777,-4.3104,-4.3912,-4.3989,-4.4229,-4.4731,-4.4445,-4.4176,-4.4027,-4.3698,-4.3497,-4.3497,-4.3497,-4.3497,-4.3497,-4.3497,-4.341,-4.3304,-4.2902,-4.2843,-2.759,-2.7941,-2.8129,-2.8129,-2.7743,-2.7161,-2.6374,-2.5382,-2.4153,-2.2424,-2.1843,0.0,0.0,0.0,0.0,0.0,0.0,0.0,-3.0816,-3.3187,-3.5244,0.0,-3.7635,0.0,-3.9226,-3.9599,-3.9791,0.0,-3.9335,-3.9811,-4.1572,-4.2228,-4.3127,-4.4412,-4.5033,-4.5457,-4.5707,-4.5893,-4.6027,-4.608,-4.6021,-4.5995,-4.5988,-4.5699,-4.5553,-4.5566,0.0,-4.5167,-4.5189,-4.5281,-4.5341,-4.5361,-4.5608,-4.5643,-4.5586,-4.5586,-4.5586,-4.5586,-4.5586,-4.5586,-4.5586,-4.5586,-4.5586,-4.5586,-4.5586,-4.5586,-4.5586,-4.5586,-4.5586,-4.5586,-4.5586,-4.5586,-4.5586,-4.5586,-4.5586,-4.547,-4.497,-4.4872,-4.4605,-4.3799,-4.3338,-4.3104,-4.3104,-4.3104,-4.3104,-4.3104,-4.3393,-4.3451,-4.297,-4.3028,-4.3239,-4.3585,-4.3624,-4.3951,-4.4797,-4.4747,-4.4706,-4.4858,-4.4553,-4.4186,-4.3797,-4.3601,-4.3497,-4.3497,-4.3497,-4.3497,-4.3497,-4.3497,-4.3497,-4.3497,-4.3543,-4.3701,-2.8796,-2.8749,-2.8471,-2.8471,-2.7671,-2.6658,-2.5717,-2.4508,-2.3001,-2.0965,0.0,-2.0352,-1.8673,-2.031,-2.215,-2.2905,0.0,-2.8596,-3.0695,-3.2766,-3.4956,-3.7373,-3.8127,-3.9043,-4.056,-4.0744,-4.0764,-4.0727,-4.0295,-4.0387,-4.1187,-4.2216,-4.3177,-4.3979,-4.5025,-4.5618,-4.5742,-4.5742,-4.5851,-4.6091,-4.5996,-4.5996,-4.6094,-4.5972,-4.5929,-4.592,0.0,0.0,-4.5899,-4.5899,-4.5883,-4.5885,-4.5808,-4.5734,-4.5586,-4.5586,-4.5586,-4.5586,-4.5586,-4.5586,-4.5586,-4.5586,-4.5586,-4.5586,-4.5586,-4.5586,-4.5586,-4.5586,-4.5586,-4.5586,-4.5586,-4.5586,-4.5586,-4.5586,-4.5586,-4.5586,-4.5586,-4.5586,-4.5374,-4.4626,-4.3895,-4.3431,-4.3431,-4.3431,-4.3431,-4.3431,-4.4028,-4.447,-4.447,-4.3855,-4.3701,-4.4393,-4.447,-4.4778,-4.5528,-4.5302,-4.4943,-4.4606,-4.4204,-4.3849,-4.3513,-4.3497,-4.3497,-4.3497,-4.3497,-4.3497,-4.3497,-4.3497,-4.3497,-4.3516,-4.4323,-4.451,-2.8796,-2.8952,-2.8905,-2.8905,-2.8382,-2.7458,-2.5943,-2.4432,0.0,0.0,0.0,-1.8538,-1.82,-1.9068,0.0,-2.3735,0.0,0.0,0.0,0.0,-3.5561,0.0,0.0,0.0,0.0,0.0,0.0,0.0,0.0,-4.1054,-4.18,-4.2046,-4.2589,-4.3489,-4.3723,-4.3836,-4.3876,-4.3876,-4.4246,-4.4981,-4.5065,-4.5469,-4.6094,-4.6071,-4.6065,-4.6069,-4.5944,0.0,-4.589,-4.589,-4.5867,-4.5822,-4.5803,-4.5718,-4.5586,-4.5586,-4.5586,-4.5586,-4.5586,-4.5586,-4.5586,-4.5586,-4.5586,-4.5586,-4.5586,-4.5586,-4.5586,-4.5586,-4.5586,-4.5586,-4.5586,-4.5586,-4.5586,-4.5586,-4.5586,-4.5586,-4.5586,-4.5586,-4.5547,-4.5393,-4.5259,-4.5163,-4.5163,-4.5163,-4.5163,-4.5163,-4.5278,-4.5355,-4.5355,-4.524,-4.522,-4.5355,-4.5355,-4.5432,-4.5586,-4.5302,-4.4943,-4.4606,-4.4204,-4.3849,-4.3513,-4.3497,-4.3497,-4.3497,-4.3497,-4.3497,-4.3497,-4.3497,-4.3497,-4.3516,-4.4323,-4.5022,-2.8938,-2.9203,-2.9246,-2.9334,-2.8484,-2.7209,-2.5562,0.0,0.0,0.0,0.0,-1.7541,-1.6415,0.0,0.0,0.0,0.0,0.0,0.0,0.0,0.0,0.0,0.0,0.0,0.0,0.0,0.0,0.0,0.0,-4.0498,-4.1338,-4.1813,-4.247,-4.3373,-4.3393,-4.3393,-4.3393,-4.3393,-4.3606,-4.4039,-4.455,-4.5039,-4.5488,-4.5918,-4.6133,-4.6191,-4.6131,0.0,-4.6104,-4.6025,-4.5988,-4.595,-4.5834,-4.5758,-4.5699,-4.5624,-4.5586,-4.5586,-4.5586,-4.5586,-4.5586,-4.5586,-4.5586,-4.5586,-4.5586,-4.5586,-4.5586,-4.5586,-4.5586,-4.5586,-4.5586,-4.5586,-4.5586,-4.5586,-4.5586,-4.5586,-4.5586,-4.5586,-4.5586,-4.5586,-4.5586,-4.5586,-4.5586,-4.5586,-4.5586,-4.5586,-4.5586,-4.5586,-4.5586,-4.5586,-4.5586,-4.5586,-4.5586,-4.5586,-4.5586,-4.514,-4.4757,-4.4606,-4.4065,-4.3679,-4.3532,-4.3497,-4.3497,-4.3497,-4.3497,-4.3497,-4.3497,-4.3497,-4.3718,-4.414,-4.4947,-4.5773,-2.8886,-2.9285,-2.9494,-2.9661,-2.8482,-2.6851,-2.5206,-2.2852,0.0,0.0,-1.72,-1.6577,-1.516,0.0,0.0,0.0,0.0,0.0,0.0,0.0,0.0,0.0,0.0,0.0,0.0,0.0,0.0,0.0,0.0,0.0,-4.0696,-4.1386,-4.2056,-4.2761,-4.278,-4.278,-4.278,-4.278,-4.2876,-4.3073,-4.3775,-4.4272,-4.4559,-4.5446,-4.5898,-4.6016,-4.6211,0.0,0.0,-4.6137,-4.6065,-4.6026,-4.5853,-4.5796,-4.5796,-4.568,-4.5643,-4.5643,-4.5605,-4.5605,-4.5624,-4.5605,-4.5586,-4.5586,-4.5586,-4.5586,-4.5586,-4.5586,-4.5586,-4.5586,-4.5586,-4.5586,-4.5586,-4.5586,-4.5586,-4.5586,-4.5586,-4.5586,-4.5586,-4.5586,-4.5586,-4.5586,-4.5586,-4.5586,-4.5586,-4.5586,-4.5586,-4.5586,-4.5586,-4.5586,-4.5586,-4.5586,-4.555,-4.5495,-4.5495,-4.4853,-4.4474,-4.4474,-4.3868,-4.3497,-4.3497,-4.3497,-4.3497,-4.3497,-4.3497,-4.3497,-4.3497,-4.3497,-4.3901,-4.4727,-4.5535,-4.6342,-2.8183,-2.8933,-2.9678,-2.9696,-2.8578,-2.7043,-2.5374,0.0,0.0,-1.8675,-1.6385,-1.5098,-1.6041,0.0,0.0,0.0,0.0,0.0,0.0,0.0,0.0,0.0,0.0,0.0,0.0,0.0,0.0,0.0,0.0,0.0,-4.0508,-4.06,-4.0677,-4.0754,-4.0773,-4.0773,-4.0773,-4.0773,-4.1158,-4.195,-4.2156,-4.263,-4.3385,-4.4499,-4.5019,-4.5078,-4.5937,0.0,0.0,-4.61,-4.5988,-4.5834,-4.5815,-4.5796,-4.5796,-4.5796,-4.5815,-4.5853,-4.5643,-4.568,-4.5757,-4.5624,-4.5586,-4.5586,-4.5586,-4.5586,-4.5586,-4.5586,-4.5586,-4.5586,-4.5586,-4.5586,-4.5586,-4.5586,-4.5586,-4.5586,-4.5586,-4.5586,-4.5586,-4.5586,-4.5586,-4.5586,-4.5586,-4.5586,-4.5586,-4.5586,-4.5586,-4.5586,-4.5586,-4.5586,-4.5586,-4.5586,-4.5322,-4.5159,-4.5159,-4.4482,-4.4076,-4.4076,-4.3712,-4.3497,-4.3497,-4.3497,-4.3497,-4.3497,-4.3497,-4.3497,-4.3497,-4.3497,-4.3901,-4.4727,-4.5535,-4.6342,-2.835,-2.9247,-3.0029,-3.0142,-2.9014,-2.7579,-2.6565,0.0,-2.1075,-1.8474,-1.6092,-1.5019,-1.6682,-1.8306,0.0,0.0,0.0,0.0,0.0,0.0,0.0,0.0,0.0,0.0,0.0,0.0,0.0,0.0,0.0,0.0,-4.0117,-4.0021,-4.0043,-4.025,-4.025,-4.025,-4.025,-4.0406,-4.0662,-4.1027,-4.1601,-4.2082,-4.2502,-4.3528,-4.4338,-4.4922,-4.5332,0.0,0.0,-4.6119,-4.6046,-4.5969,-4.5892,-4.5853,-4.5868,-4.586,-4.5866,-4.5886,-4.5769,-4.5754,-4.5776,-4.5624,-4.5586,-4.5586,-4.5586,-4.5586,-4.5586,-4.5586,-4.5586,-4.5586,-4.5586,-4.5586,-4.5586,-4.5586,-4.5586,-4.5586,-4.5586,-4.5586,-4.5586,-4.5586,-4.5586,-4.5586,-4.5586,-4.5586,-4.5586,-4.5586,-4.5586,-4.5586,-4.5586,-4.5586,-4.5586,-4.5586,-4.5495,-4.5322,-4.5118,-4.4657,-4.4261,-4.4016,-4.3679,-4.3497,-4.3497,-4.3497,-4.3497,-4.3497,-4.3497,-4.3497,-4.3497,-4.3993,-4.4654,-4.5443,-4.625,-4.7058,-2.7842,-2.8827,-2.9612,-2.9753,-2.8733,-2.7547,0.0,-2.4345,-2.1455,-1.8973,-1.7257,-1.6618,-1.8004,-1.9383,-2.0696,0.0,0.0,0.0,0.0,0.0,0.0,0.0,0.0,0.0,0.0,0.0,0.0,0.0,0.0,0.0,0.0,-3.9,-3.9166,-3.9827,-3.9985,-4.0062,-4.0101,-4.0372,-4.0489,-4.0508,-4.1123,-4.1466,-4.1578,-4.256,-4.3524,-4.4479,0.0,0.0,0.0,-4.6152,-4.6087,-4.6027,-4.5935,-4.5931,-4.5965,-4.5958,-4.5978,-4.6001,-4.5913,-4.5866,-4.5815,-4.5699,-4.5624,-4.5586,-4.5586,-4.5586,-4.5586,-4.5586,-4.5586,-4.5586,-4.5586,-4.5586,-4.5586,-4.5586,-4.5586,-4.5586,-4.5586,-4.5586,-4.5586,-4.5586,-4.5586,-4.5586,-4.5586,-4.5586,-4.5586,-4.5586,-4.5586,-4.5586,-4.5586,-4.5586,-4.5568,-4.5457,-4.5438,-4.5322,-4.4966,-4.4553,-4.4136,-4.3881,-4.3612,-4.3497,-4.3497,-4.3497,-4.3497,-4.3497,-4.3497,-4.3497,-4.3497,-4.4325,-4.5113,-4.592,-4.6746,-4.7535,-2.6295,-2.7323,-2.8121,-2.8119,-2.7465,-2.6598,0.0,-2.4099,-2.231,-2.0629,-2.025,-2.025,-2.0269,-2.0291,-2.0315,-2.0326,0.0,0.0,0.0,0.0,0.0,0.0,0.0,0.0,0.0,0.0,0.0,0.0,0.0,0.0,0.0,-3.7357,-3.7803,-3.9274,-3.9673,-3.9986,-4.0101,-4.0372,-4.0489,-4.0489,-4.0508,-4.0508,-4.0562,-4.1559,-4.2537,0.0,0.0,0.0,0.0,-4.6094,-4.6027,-4.5899,-4.5899,-4.5983,-4.6103,-4.6102,-4.6183,-4.6289,-4.6133,-4.6018,-4.5892,-4.5815,-4.5719,-4.5586,-4.5586,-4.5586,-4.5586,-4.5586,-4.5586,-4.5586,-4.5586,-4.5586,-4.5586,-4.5586,-4.5586,-4.5586,-4.5586,-4.5586,-4.5586,-4.5586,-4.5586,-4.5586,-4.5586,-4.5586,-4.5586,-4.5586,-4.5586,-4.5586,-4.5586,-4.5586,-4.5457,-4.514,-4.5096,-4.4966,-4.4631,-4.3931,-4.3532,-4.3532,-4.3479,-4.3497,-4.3497,-4.3497,-4.3497,-4.3497,-4.3497,-4.3497,-4.3497,-4.4326,-4.5096,-4.592,-4.6746,-4.7535,-2.5015,-2.6092,-2.7121,-2.6476,-2.6172,-2.6295,-2.7206,-2.605,-2.3976,-2.1103,-2.0504,-2.0515,-2.0512,-2.0511,-2.0462,-2.0312,-2.074,0.0,0.0,0.0,0.0,0.0,0.0,0.0,0.0,0.0,0.0,0.0,0.0,0.0,0.0,-3.6435,-3.7359,-3.9126,-3.9114,-3.9303,-3.9735,-3.9967,-4.0226,-4.0489,-4.0489,-4.0489,-4.0508,-4.0908,0.0,0.0,0.0,0.0,0.0,-4.5351,-4.5661,-4.6173,-4.6173,-4.6195,-4.624,-4.624,-4.6267,-4.6289,-4.6152,-4.6076,-4.6007,-4.5853,-4.5796,-4.5776,-4.5624,-4.5586,-4.5586,-4.5586,-4.5586,-4.5586,-4.5586,-4.5586,-4.5586,-4.5586,-4.5586,-4.5586,-4.5586,-4.5586,-4.5586,-4.5586,-4.5586,-4.5586,-4.5586,-4.5586,-4.5586,-4.5586,-4.5586,-4.5586,-4.5586,-4.5586,-4.5476,-4.5137,-4.4896,-4.4587,-4.4233,-4.3974,-4.374,-4.3513,-4.3497,-4.3497,-4.3497,-4.3497,-4.3497,-4.3497,-4.3497,-4.3754,-4.4323,-4.5132,-4.6214,-4.7553,-4.781,-4.8067,0.0,-2.4339,-2.5294,-2.4704,-2.4791,-2.5251,-2.6101,-2.5983,-2.4722,-2.1308,-2.0604,-2.0602,-2.0601,-2.0598,-2.0519,-2.0335,-2.1355,0.0,0.0,0.0,0.0,0.0,0.0,0.0,0.0,0.0,0.0,0.0,0.0,0.0,0.0,-3.5347,-3.6224,-3.8122,-3.842,-3.8877,-3.9599,-3.9947,-4.0262,-4.0489,-4.0489,-4.0489,-4.0489,-4.06,0.0,0.0,0.0,0.0,0.0,-4.4844,-4.5312,-4.584,-4.6172,-4.6308,-4.6308,-4.6308,-4.6308,-4.6289,-4.6191,-4.6144,-4.6071,-4.5896,-4.5812,-4.5757,-4.5624,-4.5586,-4.5586,-4.5586,-4.5586,-4.5586,-4.5586,-4.5586,-4.5586,-4.5586,-4.5586,-4.5586,-4.5586,-4.5586,-4.5586,-4.5586,-4.5586,-4.5586,-4.5586,-4.5586,-4.5586,-4.5586,-4.5586,-4.5586,-4.5586,-4.5586,-4.5419,-4.4966,-4.4783,-4.4467,-4.3868,-4.3804,-4.3726,-4.3513,-4.3497,-4.3497,-4.3497,-4.3497,-4.3497,-4.3497,-4.3497,-4.3918,-4.4689,-4.5809,-4.7003,-4.8306,-4.8306,-4.8306,0.0,-2.2055,-2.2715,-2.2656,-2.3139,-2.3497,-2.2946,-2.3921,0.0,-2.0873,-2.0224,-2.0354,-2.0854,-2.0727,-2.0504,-2.0422,-2.3045,0.0,0.0,0.0,0.0,0.0,0.0,0.0,0.0,0.0,0.0,0.0,0.0,0.0,0.0,-3.422,-3.4678,-3.6552,-3.7671,-3.8663,-3.9528,-4.0137,-4.0454,-4.0489,-4.0489,-4.0489,-4.0489,-4.0489,0.0,0.0,0.0,0.0,0.0,-4.4473,-4.4902,-4.5098,-4.5957,-4.6308,-4.6308,-4.6308,-4.6308,-4.6308,-4.6308,-4.6222,-4.6099,-4.5968,-4.579,-4.5605,-4.5605,-4.5605,-4.5586,-4.5586,-4.5586,-4.5586,-4.5586,-4.5586,-4.5586,-4.5586,-4.5586,-4.5586,-4.5586,-4.5586,-4.5586,-4.5586,-4.5586,-4.5586,-4.5586,-4.5586,-4.5586,-4.5586,-4.5586,-4.5586,-4.5586,-4.5586,-4.5322,-4.4676,-4.4768,-4.4486,-4.36,-4.3497,-4.3497,-4.3497,-4.3497,-4.3497,-4.3497,-4.3497,-4.3497,-4.3497,-4.3589,-4.4062,-4.4794,-4.6397,-4.7573,-4.8306,-4.8306,-4.8306,-1.7632,0.0,-1.9921,-1.92,-2.0141,-2.1178,0.0,-1.9245,-1.744,-1.6623,0.0,0.0,-2.3237,-2.1894,-2.0298,0.0,0.0,0.0,0.0,0.0,0.0,0.0,0.0,0.0,0.0,0.0,0.0,0.0,0.0,0.0,0.0,-3.4116,-3.4624,-3.574,-3.7081,-3.8156,-3.8973,-3.9681,-4.0208,-4.0489,-4.0489,-4.0489,-4.0489,-4.0489,0.0,0.0,0.0,0.0,-4.2637,-4.3066,-4.3945,-4.5098,-4.5957,-4.6308,-4.6308,-4.6308,-4.6308,-4.6308,-4.6308,-4.6287,-4.6222,-4.6087,-4.5918,-4.5757,-4.5757,-4.568,-4.5586,-4.5586,-4.5586,-4.5586,-4.5586,-4.5586,-4.5586,-4.5586,-4.5586,-4.5586,-4.5586,-4.5586,-4.5586,-4.5586,-4.5586,-4.5586,-4.5586,-4.5586,-4.5586,-4.5586,-4.5586,-4.5586,-4.5586,-4.5381,-4.5132,-4.4865,-4.4571,-4.4153,-4.3566,-4.3497,-4.3497,-4.3497,-4.3497,-4.3497,-4.3497,-4.3497,-4.3497,-4.3497,-4.4724,-4.5424,-4.5627,-4.7241,-4.8122,-4.8306,-4.8306,-4.8306,-1.5804,-1.7713,-1.9584,-1.9076,-1.9057,-1.916,-1.9121,0.0,0.0,0.0,0.0,0.0,0.0,0.0,0.0,0.0,0.0,0.0,0.0,0.0,0.0,0.0,0.0,0.0,0.0,0.0,0.0,0.0,0.0,0.0,0.0,-3.3935,-3.4346,-3.5117,-3.623,-3.7471,-3.8785,-3.9716,-4.0279,-4.0489,-4.0489,-4.0489,-4.0489,-4.0489,-4.0489,0.0,0.0,0.0,-4.1662,-4.2275,-4.3027,-4.3887,-4.4766,-4.5117,-4.5156,-4.5566,-4.5703,-4.5762,-4.6152,-4.6269,-4.6186,-4.6055,-4.592,-4.5796,-4.5738,-4.5643,-4.5586,-4.5586,-4.5586,-4.5586,-4.5586,-4.5586,-4.5586,-4.5586,-4.5586,-4.5586,-4.5586,-4.5586,-4.5586,-4.5586,-4.5586,-4.5586,-4.5586,-4.5586,-4.5586,-4.5586,-4.5586,-4.5586,-4.5586,-4.5302,-4.5004,-4.4782,-4.4543,-4.4141,-4.3532,-4.3497,-4.3497,-4.3497,-4.3497,-4.3497,-4.3497,-4.3497,-4.3497,-4.3497,-4.5088,-4.5901,-4.59,-4.7514,-4.8306,-4.8306,-4.8306,-4.8306,-1.5282,-1.7622,-1.9928,-1.9599,-1.8404,-1.7325,-1.732,0.0,0.0,0.0,0.0,0.0,0.0,0.0,0.0,0.0,0.0,0.0,0.0,0.0,0.0,0.0,0.0,0.0,0.0,0.0,0.0,0.0,0.0,0.0,0.0,-3.3842,-3.4111,-3.4674,-3.5529,-3.6767,-3.8459,-3.9701,-4.0315,-4.0315,-4.0431,-4.0489,-4.0489,-4.0489,-4.0489,0.0,0.0,0.0,-4.0853,-4.173,-4.2225,-4.2519,-4.3281,-4.3574,-4.3672,-4.4492,-4.4883,-4.5117,-4.5996,-4.623,-4.6111,-4.5949,-4.5861,-4.5796,-4.5624,-4.5586,-4.5586,-4.5586,-4.5586,-4.5586,-4.5586,-4.5586,-4.5586,-4.5586,-4.5586,-4.5586,-4.5586,-4.5586,-4.5586,-4.5586,-4.5586,-4.5586,-4.5586,-4.5586,-4.5586,-4.5586,-4.5586,-4.5586,-4.5531,-4.5222,-4.4896,-4.4572,-4.4475,-4.417,-4.3532,-4.3497,-4.3497,-4.3497,-4.3497,-4.3497,-4.3497,-4.3497,-4.3497,-4.3497,-4.5068,-4.59,-4.5878,-4.7532,-4.8306,-4.8306,-4.8306,-4.8306,-1.6582,-1.7769,-1.8178,-1.6419,-1.578,-1.5579,-1.5585,0.0,0.0,0.0,0.0,0.0,0.0,0.0,0.0,0.0,0.0,0.0,0.0,0.0,0.0,0.0,0.0,0.0,0.0,0.0,0.0,0.0,0.0,0.0,0.0,-3.4018,-3.4311,-3.4674,-3.5704,-3.6489,-3.7026,-3.8666,-3.9469,-3.9488,-4.0162,-4.0489,-4.0489,-4.0489,-4.0489,0.0,0.0,-4.06,-4.0727,-4.1003,-4.1718,-4.2676,-4.293,-4.3027,-4.3086,-4.3672,-4.4375,-4.5117,-4.5996,-4.6289,-4.6229,-4.5988,-4.588,-4.5853,-4.5643,-4.5586,-4.5586,-4.5586,-4.5586,-4.5586,-4.5586,-4.5586,-4.5586,-4.5586,-4.5586,-4.5586,-4.5586,-4.5586,-4.5586,-4.5586,-4.5586,-4.5586,-4.5586,-4.5586,-4.5586,-4.5586,-4.5586,-4.5495,-4.5222,-4.4896,-4.4565,-4.4296,-4.3915,-4.3637,-4.3532,-4.3497,-4.3497,-4.3497,-4.3497,-4.3497,-4.3497,-4.3497,-4.3497,-4.3497,-4.5068,-4.5897,-4.5902,-4.7535,-4.8306,-4.8306,-4.8306,-4.8306,-1.5693,-1.734,-1.864,-1.7836,-1.9162,-2.0671,-2.0659,0.0,0.0,0.0,0.0,0.0,0.0,0.0,0.0,0.0,0.0,0.0,0.0,0.0,0.0,0.0,0.0,0.0,0.0,0.0,0.0,0.0,0.0,0.0,0.0,0.0,-3.4213,-3.4674,-3.5172,-3.5621,-3.6051,-3.7276,-3.8373,-3.9296,-3.9528,-3.9931,-4.0489,-4.0489,-4.0489,-4.0489,0.0,-4.0581,-4.0712,-4.0804,-4.1193,-4.1738,-4.1914,-4.1973,-4.2051,-4.2754,-4.3555,-4.4414,-4.5293,-4.5605,-4.5623,-4.5832,-4.5899,-4.5853,-4.5643,-4.5586,-4.5586,-4.5586,-4.5586,-4.5586,-4.5586,-4.5586,-4.5586,-4.5586,-4.5586,-4.5586,-4.5586,-4.5586,-4.5586,-4.5586,-4.5586,-4.5586,-4.5586,-4.5586,-4.5586,-4.5586,-4.5586,-4.5476,-4.514,-4.4825,-4.4465,-4.4121,-4.373,-4.3497,-4.3497,-4.3497,-4.3497,-4.3497,-4.3497,-4.3497,-4.3497,-4.3497,-4.3699,-4.4158,-4.5289,-4.6118,-4.6561,-4.7717,-4.8306,-4.8306,-4.8306,-4.8306,-1.5054,-1.6849,-1.8781,-1.9736,0.0,-2.4568,-2.4959,0.0,0.0,0.0,0.0,0.0,0.0,0.0,0.0,0.0,0.0,0.0,0.0,0.0,0.0,0.0,0.0,0.0,0.0,0.0,0.0,0.0,0.0,0.0,0.0,0.0,-3.408,-3.4674,-3.4694,-3.4963,-3.5493,-3.6061,-3.7117,-3.8681,-3.8692,-3.9246,-4.0219,-4.0219,-4.0315,-4.0489,-4.0489,-4.0562,-4.0658,-4.0716,-4.0752,-4.0832,-4.1093,-4.1191,-4.1308,-4.2109,-4.2812,-4.3516,-4.4394,-4.4682,-4.4781,-4.5414,-4.5589,-4.5584,-4.5603,-4.5586,-4.5586,-4.5586,-4.5586,-4.5586,-4.5586,-4.5586,-4.5586,-4.5586,-4.5586,-4.5586,-4.5586,-4.5586,-4.5586,-4.5586,-4.5586,-4.5586,-4.5586,-4.5586,-4.5568,-4.5495,-4.5495,-4.5342,-4.49,-4.4631,-4.4308,-4.3924,-4.3646,-4.3497,-4.3497,-4.3497,-4.3497,-4.3497,-4.3497,-4.3497,-4.3497,-4.3497,-4.3791,-4.4398,-4.5403,-4.6195,-4.6813,-4.7807,-4.8306,-4.8306,-4.8306,-4.8306,-1.6127,-1.6552,-1.7055,-2.0055,0.0,0.0,-2.3933,-2.4241,0.0,0.0,0.0,0.0,0.0,0.0,0.0,0.0,0.0,0.0,0.0,0.0,0.0,0.0,0.0,0.0,0.0,0.0,0.0,0.0,0.0,0.0,0.0,0.0,0.0,-3.4674,-3.4694,-3.4963,-3.5493,-3.5296,-3.579,-3.6911,-3.7685,-3.8531,-3.9392,-3.9392,-3.9777,-4.0489,-4.0489,-4.0508,-4.0508,-4.0508,-4.0513,-4.0565,-4.1025,-4.1191,-4.1308,-4.2109,-4.2441,-4.2617,-4.3496,-4.3754,-4.3833,-4.455,-4.4698,-4.4718,-4.5411,-4.5586,-4.5586,-4.5586,-4.5586,-4.5586,-4.5586,-4.5586,-4.5586,-4.5586,-4.5586,-4.5586,-4.5586,-4.5586,-4.5586,-4.5586,-4.5586,-4.5586,-4.5586,-4.5586,-4.5495,-4.518,-4.5137,-4.4877,-4.4175,-4.4058,-4.3912,-4.3563,-4.3513,-4.3497,-4.3497,-4.3497,-4.3497,-4.3497,-4.3497,-4.3497,-4.3497,-4.3497,-4.3516,-4.3589,-4.5132,-4.5933,-4.5968,-4.7512,-4.8306,-4.8306,-4.8306,-4.8306,-1.5019,-1.5997,-1.7137,-1.9344,0.0,0.0,0.0,0.0,0.0,0.0,0.0,0.0,0.0,0.0,0.0,0.0,0.0,0.0,0.0,0.0,0.0,0.0,0.0,0.0,0.0,0.0,0.0,0.0,0.0,0.0,0.0,0.0,0.0,-3.4674,-3.4508,-3.4736,-3.5493,-3.5223,-3.5376,-3.5955,-3.6638,-3.7482,-3.8507,-3.9046,-3.9354,-3.9488,-4.0181,-4.0489,-4.0508,-4.06,-4.0674,-4.0777,-4.1082,-4.1191,-4.123,-4.1543,-4.1641,-4.1777,-4.2598,-4.2857,-4.2911,-4.3653,-4.4182,-4.4526,-4.472,-4.5163,-4.5586,-4.5586,-4.5586,-4.5586,-4.5586,-4.5586,-4.5586,-4.5586,-4.5586,-4.5586,-4.5586,-4.5586,-4.5586,-4.5586,-4.5586,-4.5586,-4.5586,-4.5586,-4.5495,-4.514,-4.5096,-4.483,-4.4087,-4.4016,-4.3881,-4.3548,-4.3497,-4.3497,-4.3497,-4.3497,-4.3497,-4.3497,-4.3497,-4.3497,-4.3497,-4.3497,-4.3736,-4.425,-4.5332,-4.6159,-4.6667,-4.7752,-4.8306,-4.8306,-4.8306,-4.8306,-1.4352,-1.5661,-1.728,0.0,0.0,0.0,0.0,0.0,0.0,0.0,0.0,0.0,0.0,0.0,0.0,0.0,0.0,0.0,0.0,0.0,0.0,0.0,0.0,0.0,0.0,0.0,0.0,0.0,0.0,0.0,0.0,0.0,0.0,0.0,-3.4292,-3.4676,-3.5369,-3.5273,-3.532,-3.5493,-3.5875,-3.6584,-3.7603,-3.82,-3.8604,-3.8858,-4.0023,-4.0504,-4.0508,-4.06,-4.0734,-4.0911,-4.1128,-4.1191,-4.1191,-4.1191,-4.1191,-4.1269,-4.178,-4.1913,-4.1963,-4.2699,-4.3269,-4.3737,-4.4162,-4.472,-4.5182,-4.5182,-4.5182,-4.5124,-4.4874,-4.5201,-4.5586,-4.5586,-4.5586,-4.5586,-4.5586,-4.5586,-4.5586,-4.5586,-4.5586,-4.5586,-4.5586,-4.5586,-4.5438,-4.5007,-4.4943,-4.4682,-4.3943,-4.3849,-4.374,-4.3513,-4.3497,-4.3497,-4.3497,-4.3497,-4.3497,-4.3497,-4.3497,-4.3497,-4.3497,-4.3497,-4.3754,-4.4305,-4.5182,-4.5993,-4.6722,-4.7771,-4.8306,-4.8306,-4.8306,-4.8306,-1.4488,-1.568,0.0,0.0,0.0,0.0,0.0,0.0,0.0,0.0,0.0,0.0,0.0,0.0,0.0,0.0,0.0,0.0,0.0,0.0,0.0,0.0,0.0,0.0,0.0,0.0,0.0,0.0,0.0,0.0,0.0,0.0,0.0,0.0,-3.4097,-3.4813,-3.5086,-3.5369,-3.5493,-3.5493,-3.5493,-3.593,-3.6699,-3.6699,-3.7469,-3.8819,-3.998,-4.05,-4.0489,-4.0489,-4.0655,-4.0918,-4.1113,-4.1191,-4.1191,-4.1191,-4.1191,-4.1185,-4.1052,-4.0912,-4.0935,-4.1726,-4.1893,-4.2124,-4.3778,-4.4278,-4.4297,-4.4297,-4.4297,-4.4105,-4.3316,-4.4335,-4.5566,-4.5566,-4.5566,-4.5566,-4.5586,-4.5586,-4.5586,-4.5586,-4.5586,-4.5586,-4.5586,-4.5586,-4.5362,-4.4682,-4.4606,-4.4337,-4.3615,-4.3497,-4.3497,-4.3497,-4.3497,-4.3497,-4.3497,-4.3497,-4.3497,-4.3497,-4.3497,-4.3497,-4.3497,-4.3497,-4.3497,-4.3497,-4.4527,-4.537,-4.5895,-4.7512,-4.8306,-4.8306,-4.8306,-4.8306,-1.4488,0.0,0.0,0.0,0.0,0.0,0.0,0.0,0.0,0.0,0.0,0.0,0.0,0.0,0.0,0.0,0.0,0.0,0.0,0.0,0.0,0.0,0.0,0.0,0.0,0.0,0.0,0.0,0.0,0.0,0.0,0.0,0.0,0.0,-3.3022,-3.373,-3.4168,-3.4866,-3.5304,-3.5493,-3.5493,-3.5608,-3.5892,-3.6449,-3.6628,-3.6555,-3.8084,-3.9407,-4.0519,-4.0639,-4.0754,-4.0852,-4.1108,-4.1191,-4.1191,-4.1191,-4.1191,-4.1185,-4.1052,-4.0906,-4.0822,-4.1016,-4.1412,-4.1893,-4.2393,-4.297,-4.3451,-4.3451,-4.3451,-4.3393,-4.3162,-4.347,-4.3835,-4.3835,-4.3835,-4.3989,-4.4566,-4.4682,-4.4874,-4.547,-4.5586,-4.5586,-4.5586,-4.5586,-4.5362,-4.4682,-4.4732,-4.4489,-4.3631,-4.3497,-4.3497,-4.3497,-4.3497,-4.3497,-4.3497,-4.3497,-4.3497,-4.3497,-4.3497,-4.3497,-4.3497,-4.3497,-4.3497,-4.3497,-4.4527,-4.537,-4.59,-4.7534,-4.8306,-4.8306,-4.8306,-4.8306,-1.5637,0.0,0.0,0.0,0.0,0.0,0.0,0.0,0.0,0.0,0.0,0.0,0.0,0.0,0.0,0.0,0.0,0.0,0.0,0.0,0.0,0.0,0.0,0.0,0.0,0.0,0.0,0.0,0.0,0.0,0.0,0.0,0.0,0.0,-3.205,-3.2722,-3.3175,-3.4116,-3.4722,-3.4988,-3.5334,-3.5493,-3.5526,-3.6007,-3.5974,-3.5561,-3.6575,-3.7954,-3.9518,-3.9719,-4.0004,-4.0349,-4.0594,-4.0898,-4.1191,-4.1191,-4.1191,-4.1168,-4.0995,-4.0866,-4.0773,-4.0658,-4.0912,-4.1354,-4.17,-4.2181,-4.2585,-4.2585,-4.2585,-4.2508,-4.2162,-4.2066,-4.2239,-4.2931,-4.3104,-4.3239,-4.372,-4.4066,-4.4451,-4.497,-4.5355,-4.5586,-4.5586,-4.5495,-4.5243,-4.4781,-4.4489,-4.4146,-4.3563,-4.3497,-4.3497,-4.3497,-4.3497,-4.3497,-4.3497,-4.3497,-4.3497,-4.3497,-4.3497,-4.3497,-4.3497,-4.3497,-4.3497,-4.3497,-4.4123,-4.5058,-4.6195,-4.7296,-4.7994,-4.8306,-4.8306,-4.8306,0.0,0.0,0.0,0.0,0.0,0.0,0.0,0.0,0.0,0.0,0.0,0.0,0.0,0.0,0.0,0.0,0.0,0.0,0.0,0.0,0.0,0.0,0.0,0.0,0.0,0.0,0.0,0.0,0.0,0.0,0.0,0.0,0.0,-3.0099,-3.1125,-3.1815,-3.2053,-3.3154,-3.3819,0.0,-3.4878,-3.5315,-3.5391,-3.5468,-3.5512,-3.5504,-3.5624,-3.6503,-3.7911,-3.8174,-3.8762,-3.9505,-3.9793,-4.0371,-4.1094,-4.1172,-4.1191,-4.1151,-4.0883,-4.0796,-4.0773,-4.0581,-4.0489,-4.0642,-4.145,-4.1681,-4.1681,-4.1681,-4.1681,-4.1508,-4.07,-4.0489,-4.0893,-4.2489,-4.2854,-4.2912,-4.3066,-4.3662,-4.4239,-4.4393,-4.5047,-4.5586,-4.5586,-4.5342,-4.5118,-4.4992,-4.4117,-4.3497,-4.3497,-4.3497,-4.3497,-4.3497,-4.3497,-4.3497,-4.3497,-4.3497,-4.3497,-4.3497,-4.3497,-4.3497,-4.3497,-4.3497,-4.3497,-4.3497,-4.3497,-4.4452,-4.6416,-4.6874,-4.7498,-4.8196,-4.8269,-4.8306,0.0,-1.754,0.0,0.0,0.0,0.0,0.0,0.0,0.0,0.0,0.0,0.0,0.0,0.0,0.0,0.0,0.0,0.0,0.0,0.0,0.0,0.0,0.0,0.0,0.0,0.0,0.0,0.0,0.0,0.0,0.0,0.0,0.0,-2.925,-3.029,-3.0891,-3.0934,-3.2214,-3.2882,0.0,-3.3286,-3.3814,-3.4507,-3.5199,-3.5493,-3.5551,-3.6454,-3.6892,-3.7046,-3.793,-3.8407,-3.8661,-3.9559,-4.0019,-4.0254,-4.0957,-4.1191,-4.1151,-4.0883,-4.0796,-4.0773,-4.0581,-4.0489,-4.0527,-4.0719,-4.0777,-4.0777,-4.0777,-4.0777,-4.0739,-4.0546,-4.0489,-4.0585,-4.0969,-4.1046,-4.1431,-4.2797,-4.3239,-4.3739,-4.5066,-4.547,-4.5586,-4.5586,-4.5531,-4.5495,-4.5457,-4.4327,-4.3497,-4.3497,-4.3497,-4.3497,-4.3497,-4.3497,-4.3497,-4.3497,-4.3497,-4.3497,-4.3497,-4.3497,-4.3497,-4.3497,-4.3497,-4.3497,-4.3497,-4.3497,-4.3718,-4.4176,-4.6159,-4.7205,-4.7388,-4.8012,-4.8306,0.0,0.0,0.0,0.0,0.0,0.0,0.0,0.0,0.0,0.0,0.0,0.0,0.0,0.0,0.0,0.0,0.0,0.0,0.0,0.0,0.0,0.0,0.0,0.0,0.0,0.0,0.0,0.0,0.0,0.0,0.0,-2.8796,-2.8994,-2.8994,-2.9544,-2.9927,-3.017,-3.1274,-3.1946,-3.2182,-3.2679,-3.3577,-3.4841,-3.5295,-3.5493,-3.5545,-3.6122,-3.6295,-3.618,-3.6796,-3.7309,-3.778,-3.8858,-3.9531,-4.0019,-4.0879,-4.1166,-4.1089,-4.0859,-4.0776,-4.0716,-4.0562,-4.0489,-4.0508,-4.0581,-4.0562,-4.0508,-4.0581,-4.0562,-4.0489,-4.0489,-4.0489,-4.0489,-4.0489,-4.0489,-4.0739,-4.1662,-4.2277,-4.2931,-4.3797,-4.4836,-4.5586,-4.5586,-4.5586,-4.5381,-4.4694,-4.3955,-4.3497,-4.3497,-4.3497,-4.3497,-4.3497,-4.3497,-4.3497,-4.3497,-4.3497,-4.3497,-4.3497,-4.3497,-4.3497,-4.3497,-4.3497,-4.3497,-4.3497,-4.3497,-4.3864,-4.4635,-4.592,-4.6929,-4.77,-4.8104,-4.8306,0.0,0.0,0.0,0.0,0.0,0.0,0.0,0.0,0.0,0.0,0.0,0.0,0.0,0.0,0.0,0.0,0.0,0.0,0.0,0.0,0.0,0.0,0.0,0.0,0.0,0.0,0.0,0.0,0.0,0.0,-2.7585,-2.8374,-2.8796,-2.8796,-2.8971,-2.927,-2.9643,-3.0428,-3.1023,-3.1418,-3.2282,-3.3442,-3.4854,-3.5155,-3.5372,-3.5493,-3.5493,-3.5493,-3.5526,-3.5641,-3.611,-3.6878,-3.794,-3.8906,-3.9785,-4.0644,-4.0981,-4.0973,-4.0848,-4.0769,-4.0696,-4.0581,-4.0543,-4.0581,-4.0677,-4.0646,-4.0559,-4.0673,-4.062,-4.0543,-4.0508,-4.0489,-4.0489,-4.0489,-4.0489,-4.0566,-4.0873,-4.1604,-4.2316,-4.2701,-4.4297,-4.5586,-4.5586,-4.5586,-4.512,-4.3693,-4.3497,-4.3497,-4.3497,-4.3497,-4.3497,-4.3497,-4.3497,-4.3497,-4.3497,-4.3497,-4.3497,-4.3497,-4.3497,-4.3497,-4.3497,-4.3497,-4.3497,-4.3497,-4.3497,-4.425,-4.5755,-4.5847,-4.6654,-4.8104,-4.8251,-4.8306,0.0,0.0,0.0,0.0,0.0,0.0,0.0,0.0,0.0,0.0,0.0,0.0,0.0,0.0,0.0,0.0,0.0,0.0,0.0,0.0,0.0,0.0,0.0,0.0,0.0,0.0,0.0,0.0,0.0,0.0,-2.6722,-2.753,-2.7952,-2.7952,-2.8855,-2.9392,-2.9434,-2.9893,-3.017,-3.0233,-3.1335,-3.1987,-3.2256,-3.3699,-3.4795,-3.5493,-3.5493,-3.5493,-3.5526,-3.5584,-3.5723,-3.5976,-3.6983,-3.7969,-3.8887,-3.9746,-4.0474,-4.0981,-4.0853,-4.08,-4.0773,-4.0696,-4.0716,-4.0754,-4.0773,-4.0784,-4.0752,-4.0709,-4.0696,-4.0658,-4.0543,-4.0489,-4.0489,-4.0489,-4.0489,-4.0912,-4.2431,-4.245,-4.2777,-4.4759,-4.5374,-4.5586,-4.5586,-4.5586,-4.512,-4.3693,-4.3497,-4.3497,-4.3497,-4.3497,-4.3497,-4.3497,-4.3497,-4.3497,-4.3497,-4.3497,-4.3497,-4.3497,-4.3497,-4.3497,-4.3497,-4.3497,-4.3497,-4.3497,-4.3497,-4.4048,-4.5204,-4.5663,-4.6379,-4.7297,-4.7994,-4.8306,0.0,0.0,0.0,0.0,0.0,0.0,0.0,0.0,0.0,0.0,0.0,0.0,0.0,0.0,0.0,0.0,0.0,0.0,0.0,0.0,0.0,0.0,0.0,0.0,0.0,0.0,0.0,0.0,0.0,-2.555,-2.5897,-2.6686,-2.7126,-2.7126,-2.8028,-2.8625,-2.8894,-2.9519,-2.9973,-3.0241,-3.0739,-3.1237,-3.1718,-3.2468,-3.3526,-3.4795,-3.5295,-3.5493,-3.5526,-3.5584,-3.5637,-3.5805,-3.6813,-3.748,-3.8047,-3.9394,-4.0057,-4.0334,-4.0764,-4.085,-4.0785,-4.0776,-4.0776,-4.082,-4.0887,-4.0866,-4.0801,-4.085,-4.0787,-4.0696,-4.0639,-4.0562,-4.0489,-4.0489,-4.0489,-4.07,-4.147,-4.22,-4.3278,-4.522,-4.5586,-4.5586,-4.5586,-4.4947,-4.4204,-4.3597,-4.3497,-4.3497,-4.3497,-4.3497,-4.3497,-4.3497,-4.3497,-4.3497,-4.3497,-4.3497,-4.3497,-4.3497,-4.3497,-4.3497,-4.3497,-4.3497,-4.3497,-4.3497,-4.3497,-4.4028,-4.509,-4.5644,-4.6305,-4.7094,-4.7939,-4.8306,0.0,0.0,0.0,0.0,0.0,0.0,0.0,0.0,0.0,0.0,0.0,0.0,0.0,0.0,0.0,0.0,0.0,0.0,0.0,0.0,0.0,0.0,0.0,0.0,0.0,0.0,0.0,0.0,0.0,-2.5109,-2.5109,-2.586,-2.63,-2.63,-2.7138,-2.7844,-2.8382,-2.9245,-2.9946,-3.0398,-3.0286,-3.0631,-3.1371,-3.1533,-3.243,-3.391,-3.4795,-3.5295,-3.5493,-3.5565,-3.5622,-3.5746,-3.6514,-3.7008,-3.7422,-3.875,-3.9434,-3.9782,-4.044,-4.0758,-4.0838,-4.0846,-4.0871,-4.0922,-4.1013,-4.0993,-4.0911,-4.0973,-4.0864,-4.0717,-4.0708,-4.06,-4.0489,-4.0489,-4.0489,-4.0566,-4.0854,-4.2412,-4.4105,-4.5355,-4.5586,-4.5495,-4.512,-4.4204,-4.3497,-4.3497,-4.3497,-4.3497,-4.3497,-4.3497,-4.3497,-4.3497,-4.3497,-4.3497,-4.3497,-4.3497,-4.3497,-4.3497,-4.3497,-4.3497,-4.3497,-4.3497,-4.3497,-4.3497,-4.3497,-4.3881,-4.4704,-4.5516,-4.6305,-4.7094,-4.7939,-4.8306,0.0,0.0,0.0,0.0,0.0,0.0,0.0,0.0,0.0,0.0,0.0,0.0,0.0,0.0,0.0,0.0,0.0,0.0,0.0,0.0,0.0,0.0,0.0,0.0,0.0,0.0,0.0,0.0,0.0,-2.4263,-2.4263,-2.5035,-2.5476,-2.5476,-2.6432,-2.7326,-2.811,-2.9174,-2.9946,-3.0398,-2.9962,-2.9996,-3.0494,-3.1068,-3.1905,-3.3026,-3.3891,-3.4737,-3.5493,-3.5493,-3.5545,-3.5624,-3.5732,-3.6364,-3.7226,-3.7383,-3.8398,-3.9707,-3.9745,-4.0291,-4.1001,-4.0997,-4.1088,-4.1171,-4.119,-4.1171,-4.1152,-4.1035,-4.0898,-4.0771,-4.0709,-4.06,-4.0489,-4.0489,-4.0489,-4.0796,-4.1873,-4.3874,-4.549,-4.5566,-4.5586,-4.5182,-4.3836,-4.3548,-4.3497,-4.3497,-4.3497,-4.3497,-4.3497,-4.3497,-4.3497,-4.3497,-4.3497,-4.3497,-4.3497,-4.3497,-4.3497,-4.3497,-4.3497,-4.3497,-4.3497,-4.3497,-4.3497,-4.3497,-4.3497,-4.3536,-4.3577,-4.515,-4.6305,-4.7094,-4.7939,-4.8306,0.0,0.0,0.0,0.0,0.0,0.0,0.0,0.0,0.0,0.0,0.0,0.0,0.0,0.0,0.0,0.0,0.0,0.0,0.0,0.0,0.0,0.0,0.0,0.0,0.0,0.0,0.0,0.0,0.0,0.0,-2.419,-2.4465,-2.463,-2.463,-2.5483,-2.6635,-2.809,-2.9156,-2.9782,-2.9962,-2.9908,-2.9969,-3.0169,-3.0548,-3.1232,-3.2179,-3.3006,-3.418,-3.5493,-3.5493,-3.5545,-3.5597,-3.5635,-3.5924,-3.6445,-3.7012,-3.7637,-3.832,-3.9434,-4.0023,-4.0388,-4.0959,-4.1169,-4.1191,-4.1191,-4.1191,-4.1191,-4.1133,-4.1,-4.0848,-4.0781,-4.0639,-4.0489,-4.0489,-4.0489,-4.0758,-4.1739,-4.3278,-4.472,-4.5451,-4.5586,-4.5142,-4.3758,-4.3497,-4.3497,-4.3497,-4.3497,-4.3497,-4.3497,-4.3497,-4.3497,-4.3497,-4.3497,-4.3497,-4.3497,-4.3497,-4.3497,-4.3497,-4.3497,-4.3497,-4.3497,-4.3497,-4.3497,-4.3497,-4.3497,-4.3516,-4.3518,-4.4581,-4.5553,-4.6361,-4.7168,-4.7599,-1.1068,0.0,0.0,0.0,0.0,0.0,0.0,0.0,0.0,0.0,0.0,0.0,0.0,0.0,0.0,0.0,0.0,0.0,0.0,0.0,0.0,0.0,0.0,0.0,0.0,0.0,0.0,0.0,0.0,0.0,-2.419,-2.419,-2.419,-2.419,-2.498,-2.6149,-2.768,-2.8596,-2.9289,-2.9696,-2.9782,-2.9877,-3.0013,-3.0177,-3.0791,-3.1737,-3.2275,-3.3468,-3.5084,-3.5391,-3.5545,-3.5584,-3.5603,-3.5679,-3.5884,-3.6539,-3.6973,-3.7441,-3.8613,-3.9414,-4.0,-4.0586,-4.0957,-4.1191,-4.1191,-4.1191,-4.1191,-4.1199,-4.1047,-4.0867,-4.0819,-4.0658,-4.0489,-4.0489,-4.0489,-4.0739,-4.1604,-4.2758,-4.4008,-4.5336,-4.5586,-4.5142,-4.3758,-4.3497,-4.3497,-4.3497,-4.3497,-4.3497,-4.3497,-4.3497,-4.3497,-4.3497,-4.3497,-4.3497,-4.3497,-4.3497,-4.3497,-4.3497,-4.3497,-4.3497,-4.3497,-4.3497,-4.3497,-4.3497,-4.3497,-4.3497,-4.3497,-4.4305,-4.4984,-4.5516,-4.6617,-4.7092,0.0,0.0,0.0,0.0,0.0,0.0,0.0,0.0,0.0,0.0,0.0,0.0,0.0,0.0,0.0,0.0,0.0,0.0,0.0,0.0,0.0,0.0,0.0,0.0,0.0,0.0,0.0,0.0,0.0,-2.419,-2.419,-2.419,-2.419,-2.419,-2.498,-2.5871,-2.686,-2.7477,-2.8435,-2.9658,-2.9494,-2.9626,-2.9999,-3.0013,-3.0609,-3.166,-3.1698,-3.2622,-3.4199,-3.5084,-3.5488,-3.5526,-3.5584,-3.5603,-3.5624,-3.5818,-3.6426,-3.7168,-3.7266,-3.8418,-3.9824,-3.9883,-4.0469,-4.1172,-4.1191,-4.1191,-4.1207,-4.1208,-4.1015,-4.0809,-4.08,-4.0658,-4.0489,-4.0489,-4.0489,-4.0719,-4.1585,-4.2431,-4.3528,-4.5259,-4.5586,-4.5142,-4.3758,-4.3497,-4.3497,-4.3497,-4.3497,-4.3497,-4.3497,-4.3497,-4.3497,-4.3497,-4.3497,-4.3497,-4.3497,-4.3497,-4.3497,-4.3497,-4.3497,-4.3497,-4.3497,-4.3497,-4.3497,-4.3497,-4.3497,-4.3497,-4.3497,-4.4287,-4.469,-4.471,-4.6324,-4.6794,-1.0006,0.0,0.0,0.0,0.0,0.0,0.0,0.0,0.0,0.0,0.0,0.0,0.0,0.0,0.0,0.0,0.0,0.0,0.0,0.0,0.0,0.0,0.0,0.0,0.0,0.0,0.0,0.0,-2.419,-2.419,-2.419,-2.419,-2.419,-2.419,-2.498,-2.5535,-2.5816,-2.7132,-2.8054,-2.854,-2.927,-2.9746,-3.0013,-3.0196,-3.0458,-3.0794,-3.1429,-3.1968,-3.2506,-3.3968,-3.493,-3.5493,-3.5526,-3.5565,-3.5611,-3.5665,-3.5942,-3.6348,-3.6992,-3.7578,-3.8223,-3.9492,-4.0059,-4.0371,-4.1016,-4.1191,-4.1207,-4.1208,-4.0976,-4.0712,-4.0612,-4.0543,-4.0489,-4.0489,-4.0489,-4.0566,-4.0796,-4.1046,-4.2085,-4.5028,-4.5586,-4.5142,-4.3758,-4.3497,-4.3497,-4.3497,-4.3497,-4.3497,-4.3497,-4.3497,-4.3497,-4.3497,-4.3497,-4.3497,-4.3497,-4.3497,-4.3497,-4.3497,-4.3497,-4.3497,-4.3497,-4.3497,-4.3497,-4.3497,-4.3497,-4.3497,-4.3497,-4.3718,-4.3925,-4.4155,-4.527,-4.578,0.0,0.0,0.0,0.0,0.0,0.0,0.0,0.0,0.0,0.0,0.0,0.0,0.0,0.0,0.0,0.0,0.0,0.0,0.0,0.0,0.0,0.0,0.0,0.0,0.0,0.0,0.0,-2.419,-2.419,-2.419,-2.419,-2.419,-2.419,-2.419,-2.4649,-2.5072,-2.5403,-2.6403,-2.732,-2.8109,-2.8923,-2.957,-3.0013,-3.0267,-3.0398,-3.0417,-3.0948,-3.1371,-3.1795,-3.3122,-3.416,-3.4988,-3.5372,-3.5526,-3.5565,-3.5603,-3.5658,-3.586,-3.6459,-3.6914,-3.7422,-3.8476,-3.9316,-3.998,-4.0508,-4.0918,-4.119,-4.1195,-4.0984,-4.0723,-4.0622,-4.0543,-4.0489,-4.0489,-4.0489,-4.0489,-4.0489,-4.0489,-4.1085,-4.3085,-4.4605,-4.5142,-4.3758,-4.3497,-4.3497,-4.3497,-4.3497,-4.3497,-4.3497,-4.3497,-4.3497,-4.3497,-4.3497,-4.3497,-4.3497,-4.3497,-4.3497,-4.3497,-4.3497,-4.3497,-4.3497,-4.3304,-4.325,-4.3497,-4.3014,-4.281,-4.281,-4.3267,-4.3616,-4.3902,-4.4263,-4.4659,0.0,0.0,0.0,0.0,0.0,0.0,-1.3728,-1.3784,0.0,0.0,0.0,0.0,0.0,0.0,0.0,0.0,0.0,0.0,0.0,0.0,0.0,0.0,0.0,0.0,0.0,-2.4153,-2.419,-2.419,-2.419,-2.419,-2.419,-2.419,-2.419,-2.419,-2.419,-2.4538,-2.5274,-2.5542,-2.6432,-2.7867,-2.8502,-2.9193,-2.9909,-3.0241,-3.0398,-3.0398,-3.0398,-3.0852,-3.1621,-3.2429,-3.3333,-3.4276,-3.5161,-3.5493,-3.5526,-3.5584,-3.5603,-3.5624,-3.5802,-3.6384,-3.707,-3.7246,-3.8359,-3.9648,-3.9844,-4.0449,-4.1074,-4.1152,-4.1006,-4.0795,-4.0731,-4.06,-4.0489,-4.0489,-4.0489,-4.0489,-4.0489,-4.0489,-4.0604,-4.0989,-4.3508,-4.5203,-4.3943,-4.3597,-4.3497,-4.3497,-4.3497,-4.3497,-4.3497,-4.3497,-4.3497,-4.3497,-4.3497,-4.3497,-4.3497,-4.3497,-4.3497,-4.3497,-4.3497,-4.3497,-4.3497,-4.2976,-4.2939,-4.3479,-4.2444,-4.1853,-4.181,-4.2772,-4.3395,-4.3706,-4.3296,-4.3521,0.0,0.0,0.0,0.0,0.0,0.0,0.0,-1.1603,0.0,0.0,0.0,0.0,0.0,0.0,0.0,0.0,0.0,0.0,0.0,0.0,0.0,0.0,0.0,0.0,0.0,-2.3823,-2.419,-2.419,-2.419,-2.419,-2.419,-2.419,-2.419,-2.419,-2.419,-2.4281,-2.4428,-2.5282,-2.5942,-2.6422,-2.8027,-2.897,-2.9306,-3.0059,-3.0398,-3.0398,-3.0398,-3.0494,-3.0717,-3.1583,-3.2833,-3.4276,-3.5161,-3.5493,-3.5493,-3.5526,-3.5565,-3.5617,-3.5717,-3.5924,-3.6289,-3.7051,-3.7539,-3.8066,-3.9473,-4.0019,-4.0273,-4.0879,-4.0925,-4.078,-4.0714,-4.06,-4.0489,-4.0489,-4.0489,-4.0489,-4.0489,-4.0489,-4.1296,-4.4066,-4.5124,-4.5513,-4.5244,-4.4243,-4.3497,-4.3497,-4.3497,-4.3497,-4.3497,-4.3497,-4.3497,-4.3497,-4.3497,-4.3497,-4.3497,-4.3497,-4.3497,-4.3497,-4.3497,-4.3497,-4.3497,-4.2976,-4.2939,-4.3479,-4.2846,-4.2302,-4.181,-4.1516,-4.1761,-4.2445,-4.2415,-4.2856,0.0,0.0,0.0,-1.4232,0.0,0.0,0.0,0.0,0.0,0.0,0.0,0.0,0.0,0.0,0.0,0.0,0.0,0.0,0.0,0.0,0.0,0.0,0.0,0.0,0.0,-2.3125,-2.3768,-2.4171,-2.419,-2.419,-2.419,-2.419,-2.419,-2.419,-2.419,-2.4247,-2.4339,-2.4955,-2.5555,-2.6157,-2.7224,-2.8195,-2.9102,-2.9544,-2.9987,-3.0398,-3.0398,-3.0398,-3.0456,-3.1352,-3.2199,-3.3083,-3.4353,-3.5122,-3.5493,-3.5493,-3.5526,-3.5565,-3.568,-3.5747,-3.589,-3.6463,-3.6953,-3.7461,-3.834,-3.9219,-4.0078,-4.0879,-4.1006,-4.0875,-4.0783,-4.0677,-4.0581,-4.0508,-4.0489,-4.0489,-4.0489,-4.0489,-4.1258,-4.3855,-4.4566,-4.4932,-4.549,-4.5014,-4.4299,-4.3597,-4.3497,-4.3497,-4.3497,-4.3497,-4.3497,-4.3497,-4.3497,-4.3497,-4.3497,-4.3497,-4.3497,-4.3497,-4.3497,-4.3497,-4.3497,-4.2714,-4.2103,-4.1835,-4.1793,-4.1508,-4.0938,-4.0625,-4.0831,-4.1479,-4.1621,-4.1938,0.0,0.0,0.0,0.0,0.0,-1.5106,0.0,0.0,0.0,0.0,0.0,0.0,0.0,0.0,0.0,0.0,0.0,0.0,0.0,0.0,0.0,0.0,0.0,0.0,0.0,-2.1964,-2.2812,-2.3916,-2.3732,-2.375,-2.4229,-2.4284,-2.4321,-2.4321,-2.4321,-2.4393,-2.4561,-2.4741,-2.5251,-2.606,-2.6422,-2.7313,-2.8621,-2.8948,-2.9486,-3.016,-3.0321,-3.0398,-3.0436,-3.116,-3.1545,-3.1872,-3.3545,-3.4622,-3.5276,-3.5449,-3.5493,-3.5526,-3.5641,-3.5687,-3.5735,-3.5911,-3.6582,-3.7324,-3.75,-3.8652,-4.0078,-4.0957,-4.1094,-4.0965,-4.0831,-4.0757,-4.0677,-4.0543,-4.0489,-4.0489,-4.0489,-4.0489,-4.0969,-4.2604,-4.3374,-4.4143,-4.5374,-4.5531,-4.5014,-4.3712,-4.3497,-4.3497,-4.3497,-4.3497,-4.3497,-4.3497,-4.3497,-4.3497,-4.3497,-4.3497,-4.3497,-4.3497,-4.3497,-4.3497,-4.3497,-4.2523,-4.1375,-4.0121,-4.0607,-4.0655,-4.007,-4.007,-4.0336,-4.075,-4.0916,-4.1068,0.0,0.0,0.0,0.0,-1.6805,0.0,0.0,0.0,0.0,0.0,0.0,0.0,0.0,0.0,0.0,0.0,0.0,0.0,0.0,0.0,0.0,0.0,0.0,0.0,0.0,0.0,-2.0916,-2.3147,-2.1987,-2.2166,-2.4349,-2.4639,-2.4731,-2.4731,-2.4731,-2.4746,-2.476,-2.4917,-2.5024,-2.5163,-2.6135,-2.6697,-2.6928,-2.8409,-2.914,-2.9294,-3.0063,-3.0398,-3.0398,-3.0513,-3.1006,-3.1872,-3.3545,-3.4257,-3.443,-3.5218,-3.5493,-3.5526,-3.5603,-3.5637,-3.5716,-3.5872,-3.6543,-3.7441,-3.8223,-3.9121,-4.0078,-4.0957,-4.1094,-4.0972,-4.0824,-4.0757,-4.0677,-4.0543,-4.0489,-4.0489,-4.0489,-4.0489,-4.0854,-4.2066,-4.2777,-4.3701,-4.5316,-4.5244,-4.4644,-4.3646,-4.3497,-4.3497,-4.3497,-4.3497,-4.3497,-4.3497,-4.3497,-4.3497,-4.3497,-4.3497,-4.3497,-4.3497,-4.3497,-4.3497,-4.3497,-4.2921,-4.1828,-4.0121,-4.0607,-4.0655,-4.007,-4.007,-4.0121,-4.0204,-4.0206,-4.0561,0.0,0.0,0.0,0.0,0.0,0.0,0.0,0.0,-1.3868,0.0,0.0,0.0,0.0,0.0,0.0,0.0,0.0,0.0,0.0,0.0,0.0,0.0,0.0,0.0,0.0,0.0,0.0,0.0,0.0,-2.1269,-2.3776,-2.3997,-2.428,-2.4785,-2.4804,-2.4842,-2.4917,-2.4974,-2.5065,-2.5192,-2.5629,-2.612,-2.664,-2.7852,-2.8659,-2.914,-3.0025,-3.0398,-3.0398,-3.0398,-3.0621,-3.1083,-3.2275,-3.3333,-3.4237,-3.4603,-3.5064,-3.5526,-3.5584,-3.5618,-3.567,-3.5843,-3.6191,-3.6797,-3.8184,-3.8867,-3.9434,-4.0801,-4.1152,-4.1071,-4.087,-4.0781,-4.0716,-4.0543,-4.0489,-4.0489,-4.0489,-4.0489,-4.0835,-4.197,-4.2502,-4.314,-4.4345,-4.4753,-4.4669,-4.4016,-4.3679,-4.3497,-4.3497,-4.3497,-4.3497,-4.3497,-4.3497,-4.3497,-4.3497,-4.3497,-4.3497,-4.3497,-4.3497,-4.3375,-4.305,-4.2462,-4.1682,-4.0577,-4.0497,-4.0319,-4.007,-4.007,-4.007,-4.007,-4.007,-4.0257,-1.9904,0.0,0.0,0.0,0.0,0.0,0.0,0.0,0.0,0.0,0.0,0.0,0.0,0.0,0.0,0.0,0.0,0.0,0.0,0.0,0.0,0.0,0.0,0.0,0.0,0.0,0.0,0.0,0.0,0.0,-2.3409,-2.3632,-2.4056,-2.4904,-2.4942,-2.4987,-2.5088,-2.5088,-2.5152,-2.5303,-2.5303,-2.563,-2.6274,-2.714,-2.7986,-2.8813,-2.9679,-3.0179,-3.0398,-3.0398,-3.0398,-3.0456,-3.1102,-3.2372,-3.3872,-3.4103,-3.4757,-3.5526,-3.5565,-3.5603,-3.5662,-3.5832,-3.5957,-3.6289,-3.7793,-3.8418,-3.8906,-4.043,-4.1016,-4.1149,-4.087,-4.08,-4.0754,-4.0562,-4.0489,-4.0489,-4.0489,-4.0489,-4.0739,-4.1566,-4.1971,-4.2485,-4.3443,-4.4178,-4.4542,-4.4261,-4.3804,-4.3497,-4.3497,-4.3497,-4.3497,-4.3497,-4.3497,-4.3497,-4.3497,-4.3497,-4.3497,-4.3497,-4.3497,-4.3214,-4.248,-4.2021,-4.1446,-4.0703,-4.0286,-4.007,-4.007,-4.007,-4.007,-4.007,-4.007,-4.007,0.0,0.0,0.0,-1.7899,0.0,0.0,0.0,0.0,-1.5562,0.0,0.0,0.0,0.0,0.0,0.0,0.0,0.0,0.0,0.0,0.0,0.0,0.0,0.0,0.0,0.0,0.0,0.0,0.0,0.0,0.0,-2.3538,-2.3965,-2.4457,-2.5254,-2.5274,-2.5293,-2.5284,-2.5284,-2.5284,-2.5303,-2.5303,-2.5303,-2.536,-2.6236,-2.7121,-2.7986,-2.8794,-2.9621,-3.0398,-3.0398,-3.0398,-3.0398,-3.0417,-3.1468,-3.3045,-3.3891,-3.4757,-3.5493,-3.5493,-3.5603,-3.5719,-3.5851,-3.5957,-3.6172,-3.707,-3.793,-3.8789,-3.9687,-4.0547,-4.1149,-4.087,-4.08,-4.0754,-4.0562,-4.0489,-4.0489,-4.0489,-4.0489,-4.0508,-4.0546,-4.0994,-4.1724,-4.2919,-4.3634,-4.4058,-4.4175,-4.3804,-4.3497,-4.3497,-4.3497,-4.3497,-4.3497,-4.3497,-4.3497,-4.3497,-4.3497,-4.3497,-4.3497,-4.3497,-4.2995,-4.1895,-4.181,-4.1286,-4.0171,-4.0121,-4.007,-4.007,-4.007,-4.007,-4.007,-4.007,-4.007,0.0,0.0,-2.0727,-1.9632,0.0,0.0,0.0,0.0,0.0,0.0,0.0,0.0,0.0,0.0,0.0,0.0,0.0,0.0,0.0,0.0,0.0,0.0,0.0,0.0,0.0,0.0,0.0,0.0,0.0,0.0,0.0,-2.3198,-2.387,-2.5264,-2.5303,-2.5303,-2.5303,-2.5303,-2.5303,-2.5303,-2.5303,-2.5303,-2.5322,-2.6197,-2.7082,-2.7928,-2.8736,-2.9583,-3.0398,-3.0398,-3.0398,-3.0398,-3.0398,-3.1102,-3.2218,-3.3026,-3.4257,-3.5493,-3.5493,-3.5603,-3.5721,-3.5756,-3.5862,-3.6152,-3.7031,-3.791,-3.8789,-3.9648,-4.0527,-4.1149,-4.087,-4.08,-4.0754,-4.0562,-4.0489,-4.0489,-4.0489,-4.0489,-4.0489,-4.0489,-4.0749,-4.1272,-4.2196,-4.2642,-4.3256,-4.4298,-4.3931,-4.3497,-4.3497,-4.3497,-4.3497,-4.3497,-4.3497,-4.3497,-4.3497,-4.3497,-4.3339,-4.2976,-4.3286,-4.316,-4.244,-4.2021,-4.1639,-4.1241,-4.0466,-4.007,-4.007,-4.007,-4.007,-4.007,-4.007,-4.007,-2.3072,-2.2539,0.0,-2.0619,-1.9465,0.0,-1.6678,0.0,0.0,0.0,0.0,0.0,0.0,0.0,0.0,0.0,0.0,0.0,0.0,0.0,0.0,0.0,0.0,0.0,0.0,0.0,-1.4964,-1.7587,0.0,0.0,0.0,0.0,-2.3447,-2.4832,-2.5149,-2.5303,-2.5303,-2.5303,-2.5303,-2.5303,-2.5303,-2.5303,-2.5322,-2.589,-2.6437,-2.7042,-2.7956,-2.9129,-3.0398,-3.0398,-3.0398,-3.0398,-3.0398,-3.0929,-3.1795,-3.2602,-3.4007,-3.5493,-3.5493,-3.5603,-3.5695,-3.5693,-3.5838,-3.6094,-3.668,-3.7656,-3.8711,-3.9277,-4.0293,-4.1149,-4.087,-4.08,-4.0754,-4.0562,-4.0489,-4.0489,-4.0489,-4.0489,-4.0489,-4.0489,-4.0442,-4.0656,-4.1586,-4.1818,-4.2392,-4.3986,-4.3791,-4.3497,-4.3497,-4.3497,-4.3497,-4.3497,-4.3497,-4.3497,-4.3497,-4.3497,-4.3375,-4.3014,-4.3142,-4.305,-4.2711,-4.1895,-4.149,-4.149,-4.0546,-4.007,-4.007,-4.007,-4.007,-4.007,-4.007,-4.007]}]]